[[{"header":{"parameterUnit":"m.s-1","parameterCategory":1,"la1":31.0,"la2":29.5877,"lo1":-88.7671,"lo2":-86.6584,"dy":0.0162,"dx":0.0185,"nx":115,"ny":88,"refTime":"2026-04-16T00:00:00:Z","depth":0,"parameterNumber":2,"parameterNumberName":"U-component_of_WINDS"},"data":[0.0,0.0,0.0,0.0,0.0,0.0,0.0,0.0,0.0,0.0,0.0,0.0,0.0,0.0,0.0,0.0,0.0,0.0,0.0,0.0,0.0,0.0,0.0,0.0,0.0,0.0,0.0,0.0,0.0,0.0,0.0,0.0,0.0,0.0,0.0,0.0,0.0,0.0,0.0,0.0,0.0,0.0,0.0,0.0,0.0,0.0,0.0,0.0,0.0,0.0,0.0,0.0,0.0,0.0,0.0,0.0,0.0,0.0,0.0,0.0,0.0,0.0,0.0,0.0,0.0,0.0,0.0,0.0,0.0,0.0,0.0,0.0,0.0,0.0,0.0,0.0,0.0,0.0,0.0,0.0,0.0,0.0,0.0,0.0,0.0,0.0,0.0,0.0,0.0,0.0,0.0,0.0,0.0,0.0,0.0,0.0,0.0,0.0,0.0,0.0,0.0,0.0,0.0,0.0,0.0,0.0,0.0,0.0,0.0,0.0,0.0,0.0,0.0,0.0,0.0,0.0,0.0,0.0,0.0,0.0,0.0,0.0,0.0,0.0,0.0,0.0,0.0,0.0,0.0,0.0,0.0,0.0,0.0,0.0,0.0,0.0,0.0,0.0,0.0,0.0,0.0,0.0,0.0,0.0,0.0,0.0,0.0,0.0,0.0,0.0,0.0,0.0,0.0,0.0,0.0,0.0,0.0,0.0,0.0,0.0,0.0,0.0,0.0,0.0,0.0,0.0,0.0,0.0,0.0,0.0,0.0,0.0,0.0,0.0,0.0,0.0,0.0,0.0,0.0,0.0,0.0,0.0,0.0,0.0,0.0,0.0,0.0,0.0,0.0,0.0,0.0,0.0,0.0,0.0,0.0,0.0,0.0,0.0,0.0,0.0,0.0,0.0,0.0,0.0,0.0,0.0,0.0,0.0,0.0,0.0,0.0,0.0,0.0,0.0,0.0,0.0,0.0,0.0,0.0,0.0,0.0,0.0,0.0,0.0,0.0,0.0,0.0,0.0,0.0,0.0,0.0,0.0,0.0,0.0,0.0,0.0,0.0,0.0,0.0,0.0,0.0,0.0,0.0,0.0,0.0,0.0,0.0,0.0,0.0,0.0,0.0,0.0,0.0,0.0,0.0,0.0,0.0,0.0,0.0,0.0,0.0,0.0,0.0,0.0,0.0,0.0,0.0,0.0,0.0,0.0,0.0,0.0,0.0,0.0,0.0,0.0,0.0,0.0,0.0,0.0,0.0,0.0,0.0,0.0,0.0,0.0,0.0,0.0,0.0,0.0,0.0,0.0,0.0,0.0,0.0,0.0,0.0,0.0,0.0,0.0,0.0,0.0,0.0,0.0,0.0,0.0,0.0,0.0,0.0,0.0,0.0,0.0,0.0,0.0,0.0,0.0,0.0,0.0,0.0,0.0,0.0,0.0,0.0,0.0,0.0,0.0,0.0,0.0,0.0,0.0,0.0,0.0,0.0,0.0,0.0,0.0,0.0,0.0,0.0,0.0,0.0,0.0,0.0,0.0,0.0,0.0,0.0,0.0,0.0,0.0,0.0,0.0,0.0,0.0,0.0,0.0,0.0,0.0,0.0,0.0,0.0,0.0,0.0,0.0,0.0,0.0,0.0,0.0,0.0,0.0,0.0,0.0,0.0,0.0,0.0,0.0,0.0,0.0,0.0,0.0,0.0,0.0,0.0,0.0,0.0,0.0,0.0,0.0,0.0,0.0,0.0,0.0,0.0,0.0,0.0,0.0,0.0,0.0,0.0,0.0,0.0,0.0,0.0,0.0,0.0,0.0,0.0,0.0,0.0,0.0,0.0,0.0,0.0,0.0,0.0,0.0,0.0,0.0,0.0,0.0,0.0,0.0,0.0,0.0,0.0,0.0,0.0,0.0,0.0,0.0,0.0,0.0,0.0,0.0,0.0,0.0,0.0,0.0,0.0,0.0,0.0,0.0,0.0,0.0,0.0,0.0,0.0,0.0,0.0,0.0,0.0,0.0,0.0,0.0,0.0,0.0,0.0,0.0,0.0,0.0,0.0,0.0,0.0,0.0,0.0,0.0,0.0,0.0,0.0,0.0,0.0,0.0,0.0,0.0,0.0,0.0,0.0,0.0,0.0,0.0,0.0,0.0,0.0,0.0,0.0,0.0,0.0,0.0,0.0,0.0,0.0,0.0,0.0,0.0,0.0,0.0,0.0,0.0,0.0,0.0,0.0,0.0,0.0,0.0,0.0,0.0,0.0,0.0,0.0,0.0,0.0,0.0,0.0,0.0,0.0,0.0,0.0,0.0,0.0,0.0,0.0,0.0,0.0,0.0,0.0,0.0,0.0,0.0,0.0,0.0,0.0,0.0,0.0,0.0,0.0,0.0,0.0,0.0,0.0,0.0,0.0,0.0,0.0,0.0,0.0,0.0,0.0,0.0,0.0,0.0,0.0,0.0,0.0,0.0,0.0,0.0,0.0,0.0,0.0,0.0,0.0,0.0,0.0,0.0,0.0,0.0,0.0,0.0,0.0,0.0,0.0,0.0,0.0,0.0,0.0,0.0,0.0,0.0,0.0,0.0,0.0,0.0,0.0,0.0,0.0,0.0,0.0,0.0,0.0,0.0,0.0,0.0,0.0,0.0,0.0,0.0,0.0,0.0,0.0,0.0,0.0,0.0,0.0,0.0,0.0,0.0,0.0,0.0,0.0,0.0,0.0,0.0,0.0,0.0,0.0,0.0,0.0,0.0,0.0,0.0,0.0,0.0,0.0,0.0,0.0,0.0,0.0,0.0,0.0,0.0,0.0,0.0,0.0,0.0,0.0,0.0,0.0,0.0,0.0,0.0,0.0,0.0,0.0,0.0,0.0,0.0,0.0,0.0,0.0,0.0,0.0,0.0,0.0,0.0,0.0,0.0,0.0,0.0,0.0,0.0,0.0,0.0,0.0,0.0,0.0,0.0,0.0,0.0,0.0,0.0,0.0,0.0,0.0,0.0,0.0,0.0,0.0,0.0,0.0,0.0,0.0,0.0,0.0,0.0,0.0,0.0,0.0,0.0,0.0,0.0,0.0,0.0,0.0,0.0,0.0,0.0,0.0,0.0,0.0,0.0,0.0,0.0,0.0,0.0,0.0,0.0,0.0,0.0,0.0,0.0,0.0,0.0,0.0,0.0,0.0,0.0,0.0,0.0,0.0,0.0,0.0,0.0,0.0,0.0,0.0,0.0,0.0,0.0,0.0,0.0,0.0,0.0,0.0,0.0,0.0,0.0,0.0,0.0,0.0,0.0,0.0,0.0,0.0,0.0,0.0,0.0,0.0,0.0,0.0,0.0,0.0,0.0,0.0,0.0,0.0,0.0,0.0,0.0,0.0,0.0,0.0,0.0,0.0,0.0,0.0,0.0,0.0,0.0,0.0,0.0,0.0,0.0,0.0,0.0,0.0,0.0,0.0,0.0,0.0,0.0,0.0,0.0,0.0,0.0,0.0,0.0,0.0,0.0,0.0,0.0,0.0,0.0,0.0,0.0,0.0,0.0,0.0,0.0,0.0,0.0,0.0,0.0,0.0,0.0,0.0,0.0,0.0,0.0,0.0,0.0,0.0,0.0,0.0,0.0,0.0,0.0,0.0,0.0,0.0,0.0,0.0,0.0,0.0,0.0,0.0,0.0,0.0,0.0,0.0,0.0,0.0,0.0,0.0,0.0,0.0,0.0,0.0,0.0,0.0,0.0,0.0,0.0,0.0,0.0,0.0,0.0,0.0,0.0,0.0,0.0,0.0,0.0,0.0,0.0,0.0,0.0,0.0,0.0,0.0,0.0,0.0,0.0,0.0,0.0,0.0,0.0,0.0,0.0,0.0,0.0,0.0,0.0,0.0,0.0,0.0,0.0,0.0,0.0,0.0,0.0,0.0,0.0,0.0,0.0,0.0,0.0,0.0,0.0,0.0,0.0,0.0,0.0,0.0,0.0,0.0,0.0,0.0,0.0,0.0,0.0,0.0,0.0,0.0,0.0,0.0,0.0,0.0,0.0,0.0,0.0,0.0,0.0,0.0,0.0,0.0,0.0,0.0,0.0,0.0,0.0,0.0,0.0,0.0,0.0,0.0,0.0,0.0,0.0,0.0,0.0,0.0,0.0,0.0,0.0,0.0,0.0,0.0,0.0,0.0,0.0,0.0,0.0,0.0,0.0,0.0,0.0,0.0,0.0,0.0,0.0,0.0,0.0,0.0,0.0,0.0,0.0,0.0,0.0,0.0,0.0,0.0,0.0,0.0,0.0,0.0,0.0,-2.6458,0.0,0.0,0.0,0.0,0.0,0.0,0.0,0.0,0.0,0.0,0.0,0.0,0.0,0.0,0.0,0.0,0.0,0.0,0.0,0.0,0.0,0.0,0.0,0.0,0.0,0.0,0.0,0.0,0.0,0.0,0.0,0.0,0.0,0.0,0.0,0.0,0.0,0.0,0.0,0.0,0.0,0.0,0.0,0.0,0.0,0.0,0.0,0.0,0.0,0.0,0.0,0.0,0.0,0.0,0.0,0.0,0.0,0.0,0.0,0.0,0.0,0.0,0.0,0.0,0.0,0.0,0.0,0.0,0.0,0.0,0.0,0.0,0.0,0.0,0.0,0.0,0.0,0.0,0.0,0.0,0.0,0.0,0.0,0.0,0.0,0.0,0.0,0.0,0.0,0.0,0.0,0.0,0.0,0.0,0.0,0.0,0.0,0.0,0.0,0.0,0.0,0.0,0.0,0.0,0.0,0.0,0.0,0.0,0.0,0.0,-2.7716,-2.7716,-2.7716,-2.7142,-2.5925,0.0,0.0,0.0,0.0,0.0,0.0,0.0,0.0,0.0,0.0,0.0,0.0,0.0,0.0,0.0,0.0,0.0,0.0,0.0,0.0,0.0,0.0,0.0,0.0,0.0,0.0,0.0,0.0,0.0,0.0,0.0,0.0,0.0,0.0,0.0,0.0,0.0,0.0,0.0,0.0,0.0,0.0,0.0,0.0,0.0,0.0,0.0,0.0,0.0,0.0,0.0,0.0,0.0,0.0,0.0,0.0,0.0,0.0,0.0,0.0,0.0,0.0,0.0,0.0,0.0,0.0,0.0,0.0,0.0,0.0,0.0,0.0,0.0,0.0,0.0,0.0,0.0,0.0,0.0,0.0,0.0,0.0,0.0,0.0,0.0,0.0,0.0,0.0,0.0,0.0,0.0,0.0,0.0,0.0,0.0,0.0,0.0,0.0,0.0,0.0,0.0,0.0,0.0,0.0,0.0,0.0,0.0,0.0,0.0,0.0,0.0,0.0,-2.7935,-2.7172,-2.5548,0.0,0.0,0.0,0.0,0.0,0.0,0.0,0.0,0.0,0.0,0.0,0.0,0.0,0.0,0.0,0.0,0.0,0.0,0.0,0.0,0.0,0.0,0.0,0.0,0.0,0.0,0.0,0.0,0.0,0.0,0.0,0.0,0.0,0.0,0.0,0.0,0.0,0.0,0.0,0.0,0.0,0.0,0.0,0.0,0.0,0.0,0.0,0.0,0.0,0.0,0.0,0.0,0.0,0.0,0.0,0.0,0.0,0.0,0.0,0.0,0.0,0.0,0.0,0.0,0.0,0.0,0.0,0.0,0.0,0.0,0.0,0.0,0.0,0.0,0.0,0.0,0.0,0.0,0.0,0.0,0.0,0.0,0.0,0.0,0.0,0.0,0.0,0.0,0.0,0.0,0.0,0.0,0.0,0.0,0.0,0.0,0.0,0.0,0.0,0.0,0.0,0.0,0.0,0.0,0.0,0.0,0.0,0.0,0.0,0.0,-2.8022,-2.8679,-2.8699,0.0,-2.6222,0.0,0.0,0.0,0.0,0.0,0.0,0.0,0.0,0.0,0.0,0.0,0.0,0.0,0.0,0.0,0.0,0.0,0.0,0.0,0.0,0.0,0.0,0.0,0.0,0.0,0.0,0.0,0.0,0.0,0.0,0.0,0.0,0.0,0.0,0.0,0.0,0.0,0.0,0.0,0.0,0.0,0.0,0.0,0.0,0.0,0.0,0.0,0.0,0.0,0.0,0.0,0.0,0.0,0.0,0.0,0.0,0.0,0.0,0.0,0.0,0.0,0.0,0.0,0.0,0.0,0.0,0.0,0.0,0.0,0.0,0.0,0.0,0.0,0.0,0.0,0.0,0.0,0.0,0.0,0.0,0.0,0.0,0.0,0.0,0.0,0.0,0.0,0.0,0.0,0.0,0.0,0.0,0.0,0.0,0.0,0.0,0.0,0.0,0.0,0.0,0.0,0.0,0.0,0.0,0.0,0.0,0.0,0.0,0.0,0.0,0.0,-2.8657,-2.7755,-2.6929,0.0,0.0,0.0,0.0,0.0,0.0,0.0,0.0,0.0,0.0,0.0,0.0,0.0,0.0,0.0,0.0,0.0,0.0,0.0,0.0,0.0,0.0,0.0,0.0,0.0,0.0,0.0,0.0,0.0,0.0,0.0,0.0,0.0,0.0,0.0,0.0,0.0,0.0,0.0,0.0,0.0,0.0,0.0,0.0,0.0,0.0,0.0,0.0,0.0,0.0,0.0,0.0,0.0,0.0,0.0,0.0,0.0,0.0,0.0,0.0,0.0,0.0,0.0,0.0,0.0,0.0,0.0,0.0,0.0,0.0,0.0,0.0,0.0,0.0,0.0,0.0,0.0,0.0,0.0,0.0,0.0,0.0,0.0,0.0,0.0,0.0,0.0,0.0,0.0,0.0,0.0,0.0,0.0,0.0,0.0,0.0,0.0,0.0,0.0,0.0,0.0,0.0,0.0,0.0,0.0,0.0,0.0,0.0,0.0,0.0,-2.82,0.0,-2.8559,-2.7471,-2.6541,-2.5888,0.0,0.0,0.0,0.0,0.0,0.0,0.0,0.0,0.0,0.0,0.0,0.0,0.0,0.0,0.0,0.0,0.0,0.0,0.0,0.0,0.0,0.0,0.0,0.0,0.0,0.0,0.0,0.0,0.0,0.0,0.0,0.0,0.0,0.0,0.0,0.0,0.0,0.0,0.0,0.0,0.0,0.0,0.0,0.0,0.0,0.0,0.0,0.0,0.0,0.0,0.0,0.0,0.0,0.0,0.0,0.0,0.0,0.0,0.0,0.0,0.0,0.0,0.0,0.0,0.0,0.0,0.0,0.0,0.0,0.0,0.0,0.0,0.0,0.0,0.0,0.0,0.0,0.0,0.0,0.0,0.0,0.0,0.0,0.0,0.0,0.0,0.0,0.0,0.0,0.0,0.0,0.0,0.0,0.0,0.0,0.0,0.0,0.0,0.0,0.0,0.0,0.0,0.0,0.0,0.0,0.0,0.0,0.0,0.0,-2.806,-2.8047,-2.8678,-2.8512,-2.7343,0.0,0.0,0.0,0.0,0.0,0.0,0.0,0.0,0.0,0.0,0.0,0.0,0.0,0.0,0.0,0.0,0.0,0.0,0.0,0.0,0.0,0.0,0.0,0.0,0.0,0.0,0.0,0.0,0.0,0.0,0.0,0.0,0.0,0.0,0.0,0.0,0.0,0.0,0.0,0.0,0.0,0.0,0.0,0.0,0.0,0.0,0.0,0.0,0.0,0.0,0.0,0.0,0.0,0.0,0.0,0.0,0.0,0.0,0.0,0.0,0.0,0.0,0.0,0.0,0.0,0.0,0.0,0.0,0.0,0.0,0.0,0.0,0.0,0.0,0.0,0.0,0.0,0.0,0.0,0.0,0.0,0.0,0.0,0.0,0.0,0.0,0.0,0.0,0.0,0.0,0.0,0.0,0.0,0.0,0.0,0.0,0.0,0.0,0.0,0.0,0.0,0.0,0.0,0.0,0.0,0.0,0.0,0.0,0.0,-2.6481,-2.6714,-2.76,-2.9121,-2.739,-2.6117,0.0,0.0,0.0,0.0,0.0,0.0,0.0,0.0,0.0,0.0,0.0,0.0,0.0,0.0,0.0,0.0,0.0,0.0,0.0,0.0,0.0,0.0,0.0,0.0,0.0,0.0,0.0,0.0,0.0,0.0,0.0,0.0,0.0,0.0,0.0,0.0,0.0,0.0,0.0,0.0,0.0,0.0,0.0,0.0,0.0,0.0,0.0,0.0,0.0,0.0,0.0,0.0,0.0,0.0,0.0,0.0,0.0,0.0,0.0,0.0,0.0,0.0,0.0,0.0,0.0,0.0,0.0,0.0,0.0,0.0,0.0,0.0,0.0,0.0,0.0,0.0,0.0,0.0,0.0,0.0,0.0,0.0,0.0,0.0,0.0,0.0,0.0,0.0,0.0,0.0,0.0,0.0,0.0,0.0,0.0,0.0,0.0,0.0,0.0,0.0,0.0,0.0,0.0,0.0,0.0,0.0,0.0,0.0,0.0,-2.5949,0.0,-2.7903,0.0,-2.6924,-2.5564,0.0,0.0,0.0,0.0,0.0,0.0,0.0,0.0,0.0,0.0,0.0,0.0,0.0,0.0,0.0,0.0,0.0,0.0,0.0,0.0,0.0,0.0,0.0,0.0,0.0,0.0,0.0,0.0,0.0,0.0,0.0,0.0,0.0,0.0,0.0,0.0,0.0,0.0,0.0,0.0,0.0,0.0,0.0,0.0,0.0,0.0,0.0,0.0,0.0,0.0,0.0,0.0,0.0,0.0,0.0,0.0,0.0,0.0,0.0,0.0,0.0,0.0,0.0,0.0,0.0,0.0,0.0,0.0,0.0,0.0,0.0,0.0,0.0,0.0,0.0,0.0,0.0,0.0,0.0,0.0,0.0,0.0,0.0,0.0,0.0,0.0,0.0,0.0,0.0,0.0,0.0,0.0,0.0,0.0,0.0,0.0,0.0,0.0,0.0,0.0,0.0,0.0,0.0,0.0,0.0,0.0,0.0,0.0,-2.4433,-2.7354,-2.8871,-2.8943,-2.7542,-2.7355,-2.589,0.0,0.0,0.0,0.0,0.0,0.0,0.0,0.0,0.0,0.0,0.0,0.0,0.0,0.0,0.0,0.0,0.0,0.0,0.0,0.0,0.0,0.0,0.0,0.0,0.0,0.0,0.0,0.0,0.0,0.0,0.0,0.0,0.0,0.0,0.0,0.0,0.0,0.0,0.0,0.0,0.0,0.0,0.0,0.0,0.0,0.0,0.0,0.0,0.0,0.0,0.0,0.0,0.0,0.0,0.0,0.0,0.0,0.0,0.0,0.0,0.0,0.0,0.0,0.0,0.0,0.0,0.0,0.0,0.0,0.0,0.0,0.0,0.0,0.0,0.0,0.0,0.0,0.0,0.0,0.0,0.0,0.0,0.0,0.0,0.0,0.0,0.0,0.0,0.0,0.0,0.0,0.0,0.0,0.0,0.0,0.0,0.0,0.0,0.0,0.0,0.0,0.0,0.0,0.0,0.0,0.0,0.0,0.0,0.0,-2.6016,-2.7527,-2.8827,-2.9673,-2.7241,-2.5895,0.0,0.0,0.0,0.0,0.0,0.0,0.0,0.0,0.0,0.0,0.0,0.0,0.0,0.0,0.0,0.0,0.0,0.0,0.0,0.0,0.0,0.0,0.0,0.0,0.0,0.0,0.0,0.0,0.0,0.0,0.0,0.0,0.0,0.0,0.0,0.0,0.0,0.0,0.0,0.0,0.0,0.0,0.0,0.0,0.0,0.0,0.0,0.0,0.0,0.0,0.0,0.0,0.0,0.0,0.0,0.0,0.0,0.0,0.0,0.0,0.0,0.0,0.0,0.0,0.0,0.0,0.0,0.0,0.0,0.0,0.0,0.0,0.0,0.0,0.0,0.0,0.0,0.0,0.0,0.0,0.0,0.0,0.0,0.0,0.0,0.0,0.0,0.0,0.0,0.0,0.0,0.0,0.0,0.0,0.0,0.0,0.0,0.0,0.0,0.0,0.0,0.0,0.0,0.0,0.0,0.0,0.0,0.0,0.0,-2.7452,-2.8898,-2.9913,-3.0369,-2.7785,-2.6266,-2.5937,0.0,0.0,0.0,0.0,0.0,0.0,0.0,0.0,0.0,0.0,0.0,0.0,0.0,0.0,0.0,0.0,0.0,0.0,0.0,0.0,0.0,0.0,0.0,0.0,0.0,0.0,0.0,0.0,0.0,0.0,0.0,0.0,0.0,0.0,0.0,0.0,0.0,0.0,0.0,0.0,0.0,0.0,0.0,0.0,0.0,0.0,0.0,0.0,0.0,0.0,0.0,0.0,0.0,0.0,0.0,0.0,0.0,0.0,0.0,0.0,0.0,0.0,0.0,0.0,0.0,0.0,0.0,0.0,0.0,0.0,0.0,0.0,0.0,0.0,0.0,0.0,0.0,0.0,0.0,0.0,0.0,0.0,0.0,0.0,0.0,0.0,0.0,0.0,0.0,0.0,0.0,0.0,0.0,0.0,0.0,0.0,0.0,0.0,0.0,0.0,0.0,0.0,0.0,0.0,0.0,0.0,0.0,0.0,-3.0994,-3.2485,-3.2188,-2.9972,-2.8971,-2.7075,0.0,0.0,0.0,0.0,0.0,0.0,0.0,0.0,0.0,0.0,0.0,0.0,0.0,0.0,0.0,0.0,0.0,0.0,0.0,0.0,0.0,0.0,0.0,0.0,0.0,0.0,0.0,0.0,0.0,0.0,0.0,0.0,0.0,0.0,0.0,0.0,0.0,0.0,0.0,0.0,0.0,0.0,0.0,0.0,0.0,0.0,0.0,0.0,0.0,0.0,0.0,0.0,0.0,0.0,0.0,0.0,0.0,0.0,0.0,0.0,0.0,0.0,0.0,0.0,0.0,0.0,0.0,0.0,0.0,0.0,0.0,0.0,0.0,0.0,0.0,0.0,0.0,0.0,0.0,0.0,0.0,0.0,0.0,0.0,0.0,0.0,0.0,0.0,0.0,0.0,0.0,0.0,0.0,0.0,0.0,0.0,0.0,0.0,0.0,0.0,0.0,0.0,0.0,0.0,0.0,0.0,0.0,0.0,0.0,-3.2323,-3.4508,-3.501,-3.3761,-3.0924,-2.8692,0.0,0.0,0.0,0.0,0.0,0.0,0.0,0.0,0.0,0.0,0.0,0.0,0.0,0.0,0.0,0.0,0.0,0.0,0.0,0.0,0.0,0.0,0.0,0.0,0.0,0.0,0.0,0.0,0.0,0.0,0.0,0.0,0.0,0.0,0.0,0.0,0.0,0.0,0.0,0.0,0.0,0.0,0.0,0.0,0.0,0.0,0.0,0.0,0.0,0.0,0.0,0.0,0.0,0.0,0.0,0.0,0.0,0.0,0.0,0.0,0.0,0.0,0.0,0.0,0.0,0.0,0.0,0.0,0.0,0.0,0.0,0.0,0.0,0.0,0.0,0.0,0.0,0.0,0.0,0.0,0.0,0.0,0.0,0.0,0.0,0.0,0.0,0.0,0.0,0.0,0.0,0.0,0.0,0.0,0.0,0.0,0.0,0.0,0.0,0.0,0.0,0.0,0.0,0.0,0.0,0.0,0.0,0.0,-3.0612,-3.3822,-3.5883,-3.6717,-3.6229,-3.3206,-3.0404,0.0,0.0,0.0,0.0,0.0,0.0,0.0,0.0,0.0,0.0,0.0,0.0,0.0,0.0,0.0,0.0,0.0,0.0,0.0,0.0,0.0,0.0,0.0,0.0,0.0,0.0,0.0,0.0,0.0,0.0,0.0,0.0,0.0,0.0,0.0,0.0,0.0,0.0,0.0,0.0,0.0,0.0,0.0,0.0,0.0,0.0,0.0,0.0,0.0,0.0,0.0,0.0,0.0,0.0,0.0,0.0,0.0,0.0,0.0,0.0,0.0,0.0,0.0,0.0,0.0,0.0,0.0,0.0,0.0,0.0,0.0,0.0,0.0,0.0,0.0,0.0,0.0,0.0,0.0,0.0,0.0,0.0,0.0,0.0,0.0,0.0,0.0,0.0,0.0,0.0,0.0,0.0,0.0,0.0,0.0,0.0,0.0,0.0,0.0,0.0,0.0,0.0,0.0,0.0,0.0,0.0,0.0,0.0,-3.1581,-3.5333,-3.6774,-3.7547,-3.7564,-3.5338,-3.2008,0.0,0.0,0.0,0.0,0.0,0.0,0.0,0.0,0.0,0.0,0.0,0.0,0.0,0.0,0.0,0.0,0.0,0.0,0.0,0.0,0.0,0.0,0.0,0.0,0.0,0.0,0.0,0.0,0.0,0.0,0.0,0.0,0.0,0.0,0.0,0.0,0.0,0.0,0.0,0.0,0.0,0.0,0.0,0.0,0.0,0.0,0.0,0.0,0.0,0.0,0.0,0.0,0.0,0.0,0.0,0.0,0.0,0.0,0.0,0.0,0.0,0.0,0.0,0.0,0.0,0.0,0.0,0.0,0.0,0.0,0.0,0.0,0.0,0.0,0.0,0.0,0.0,0.0,0.0,0.0,0.0,0.0,0.0,0.0,0.0,0.0,0.0,0.0,0.0,0.0,0.0,0.0,0.0,0.0,0.0,0.0,0.0,0.0,0.0,0.0,0.0,0.0,0.0,0.0,0.0,0.0,0.0,0.0,-3.2359,-3.5959,-3.7012,-3.7789,-3.8358,-3.5597,-3.225,0.0,0.0,0.0,0.0,0.0,0.0,0.0,0.0,0.0,0.0,0.0,0.0,0.0,0.0,0.0,0.0,0.0,0.0,0.0,0.0,0.0,0.0,0.0,0.0,0.0,0.0,0.0,0.0,0.0,0.0,0.0,0.0,0.0,0.0,0.0,0.0,0.0,0.0,0.0,0.0,0.0,0.0,0.0,0.0,0.0,0.0,0.0,0.0,-1.9932,0.0,0.0,0.0,0.0,0.0,0.0,0.0,0.0,0.0,0.0,0.0,0.0,0.0,0.0,0.0,0.0,0.0,0.0,0.0,0.0,0.0,0.0,0.0,0.0,0.0,0.0,0.0,0.0,0.0,0.0,0.0,0.0,0.0,0.0,0.0,0.0,0.0,0.0,0.0,0.0,0.0,0.0,0.0,0.0,0.0,0.0,0.0,0.0,0.0,0.0,0.0,0.0,0.0,0.0,0.0,0.0,0.0,0.0,0.0,-3.3464,-3.6732,-3.7633,-3.8203,-3.8513,-3.599,-3.2817,0.0,0.0,0.0,0.0,0.0,0.0,0.0,0.0,0.0,0.0,0.0,0.0,0.0,0.0,0.0,0.0,0.0,0.0,0.0,0.0,0.0,0.0,0.0,0.0,0.0,0.0,0.0,0.0,0.0,0.0,0.0,0.0,0.0,0.0,0.0,0.0,0.0,0.0,0.0,0.0,0.0,0.0,0.0,0.0,0.0,0.0,0.0,0.0,0.0,0.0,0.0,0.0,0.0,0.0,0.0,0.0,0.0,0.0,0.0,0.0,0.0,0.0,0.0,0.0,0.0,0.0,0.0,0.0,0.0,0.0,0.0,0.0,0.0,0.0,0.0,0.0,0.0,0.0,0.0,0.0,0.0,0.0,0.0,0.0,0.0,0.0,0.0,0.0,0.0,0.0,0.0,0.0,0.0,0.0,0.0,0.0,0.0,0.0,0.0,0.0,0.0,0.0,0.0,0.0,0.0,0.0,0.0,-3.1407,-3.4224,-3.7357,-3.7991,-3.8284,-3.837,-3.6236,-3.33,-2.9661,0.0,0.0,0.0,0.0,0.0,0.0,0.0,0.0,0.0,0.0,0.0,0.0,0.0,0.0,0.0,0.0,0.0,0.0,0.0,0.0,0.0,0.0,0.0,0.0,0.0,0.0,0.0,0.0,0.0,0.0,0.0,0.0,0.0,0.0,0.0,0.0,0.0,0.0,-1.8211,-2.0018,0.0,0.0,0.0,0.0,0.0,0.0,0.0,0.0,-1.9251,0.0,0.0,0.0,0.0,0.0,0.0,0.0,0.0,0.0,0.0,0.0,0.0,0.0,0.0,0.0,0.0,0.0,0.0,0.0,0.0,0.0,0.0,0.0,0.0,0.0,0.0,0.0,0.0,0.0,0.0,0.0,0.0,0.0,0.0,0.0,0.0,0.0,0.0,0.0,0.0,0.0,0.0,0.0,0.0,0.0,0.0,0.0,0.0,0.0,0.0,0.0,0.0,0.0,0.0,0.0,0.0,-3.1145,-3.1199,-3.3223,-3.7357,-3.6939,-3.6973,-3.7599,-3.5476,-3.2785,-2.9644,0.0,0.0,0.0,0.0,0.0,0.0,0.0,0.0,0.0,0.0,0.0,0.0,0.0,0.0,0.0,0.0,0.0,0.0,0.0,0.0,0.0,0.0,0.0,0.0,0.0,0.0,0.0,0.0,0.0,0.0,0.0,0.0,0.0,0.0,0.0,0.0,0.0,0.0,0.0,-2.1618,-2.2396,0.0,0.0,0.0,0.0,0.0,0.0,0.0,0.0,-1.9576,0.0,0.0,0.0,0.0,0.0,0.0,0.0,0.0,0.0,0.0,0.0,0.0,0.0,0.0,0.0,0.0,0.0,0.0,0.0,0.0,0.0,0.0,0.0,0.0,0.0,0.0,0.0,0.0,0.0,0.0,0.0,0.0,0.0,0.0,0.0,0.0,0.0,0.0,0.0,0.0,0.0,0.0,0.0,0.0,0.0,0.0,0.0,0.0,0.0,0.0,0.0,0.0,0.0,0.0,0.0,-3.0421,-3.2272,-3.4555,-3.7374,-3.7133,-3.7094,-3.7426,-3.4545,-3.1834,0.0,0.0,0.0,0.0,0.0,0.0,0.0,0.0,0.0,0.0,0.0,0.0,0.0,0.0,0.0,0.0,0.0,0.0,0.0,0.0,0.0,0.0,0.0,0.0,0.0,0.0,0.0,0.0,0.0,0.0,0.0,0.0,0.0,0.0,0.0,0.0,0.0,0.0,0.0,0.0,-2.2266,-2.2772,-2.2471,0.0,0.0,0.0,0.0,0.0,0.0,-2.0209,-1.9878,0.0,0.0,0.0,0.0,0.0,0.0,0.0,0.0,0.0,0.0,0.0,0.0,0.0,0.0,0.0,0.0,0.0,0.0,0.0,0.0,0.0,0.0,0.0,0.0,0.0,0.0,0.0,0.0,0.0,0.0,0.0,0.0,0.0,0.0,0.0,0.0,0.0,0.0,0.0,0.0,0.0,0.0,0.0,0.0,0.0,0.0,0.0,0.0,0.0,0.0,0.0,0.0,0.0,0.0,0.0,-2.9472,-3.286,-3.5472,-3.7167,-3.7249,-3.7202,-3.6995,-3.3785,-3.1093,0.0,0.0,0.0,0.0,0.0,0.0,0.0,0.0,0.0,0.0,0.0,0.0,0.0,0.0,0.0,0.0,0.0,0.0,0.0,0.0,0.0,0.0,0.0,0.0,0.0,0.0,0.0,0.0,0.0,0.0,0.0,0.0,0.0,0.0,0.0,0.0,0.0,0.0,0.0,0.0,0.0,-2.3288,-2.2736,-2.2289,0.0,0.0,0.0,0.0,-2.0602,-2.1138,0.0,0.0,0.0,0.0,0.0,0.0,0.0,0.0,0.0,0.0,0.0,0.0,0.0,0.0,0.0,0.0,0.0,0.0,0.0,0.0,0.0,0.0,0.0,0.0,0.0,0.0,0.0,0.0,0.0,0.0,0.0,0.0,0.0,0.0,0.0,0.0,0.0,0.0,0.0,0.0,0.0,0.0,0.0,0.0,0.0,0.0,0.0,0.0,0.0,0.0,0.0,0.0,0.0,0.0,0.0,0.0,-2.9368,-3.1338,-3.3638,-3.6266,-3.6439,-3.6128,-3.5456,-3.3714,-3.1127,0.0,0.0,0.0,0.0,0.0,0.0,0.0,0.0,0.0,0.0,0.0,0.0,0.0,0.0,0.0,0.0,0.0,0.0,0.0,0.0,0.0,0.0,0.0,0.0,0.0,0.0,0.0,0.0,0.0,0.0,0.0,0.0,0.0,0.0,0.0,0.0,0.0,0.0,0.0,0.0,0.0,-2.4591,-2.2169,-2.2238,-2.2462,0.0,0.0,0.0,-2.298,-2.3745,0.0,0.0,0.0,0.0,0.0,0.0,0.0,0.0,0.0,0.0,0.0,0.0,0.0,0.0,0.0,0.0,0.0,0.0,0.0,0.0,0.0,0.0,0.0,0.0,0.0,0.0,0.0,0.0,0.0,0.0,0.0,0.0,0.0,0.0,0.0,0.0,0.0,0.0,0.0,0.0,0.0,0.0,0.0,0.0,0.0,0.0,0.0,0.0,0.0,0.0,0.0,0.0,0.0,0.0,0.0,-2.4983,-2.8848,-3.1375,-3.3815,-3.618,-3.6284,-3.5939,-3.5197,-3.2886,-3.0282,0.0,0.0,0.0,0.0,0.0,0.0,0.0,0.0,0.0,0.0,0.0,0.0,0.0,0.0,0.0,0.0,0.0,0.0,0.0,0.0,0.0,0.0,0.0,0.0,0.0,0.0,0.0,0.0,0.0,0.0,0.0,0.0,0.0,0.0,0.0,0.0,0.0,0.0,0.0,0.0,0.0,0.0,-2.3994,-2.3873,0.0,0.0,0.0,-2.2948,-2.3993,0.0,0.0,0.0,0.0,0.0,0.0,0.0,0.0,0.0,0.0,0.0,0.0,0.0,0.0,0.0,0.0,0.0,0.0,0.0,0.0,0.0,0.0,0.0,0.0,0.0,0.0,0.0,0.0,0.0,0.0,0.0,0.0,0.0,0.0,0.0,0.0,0.0,0.0,0.0,0.0,0.0,0.0,0.0,0.0,0.0,0.0,0.0,0.0,0.0,0.0,0.0,0.0,0.0,0.0,0.0,0.0,0.0,-2.8237,-3.155,-3.4085,-3.5725,-3.5773,-3.539,-3.4594,-3.2059,0.0,0.0,0.0,0.0,0.0,0.0,0.0,0.0,0.0,0.0,0.0,0.0,0.0,0.0,0.0,0.0,0.0,0.0,0.0,0.0,0.0,0.0,0.0,0.0,0.0,0.0,0.0,-1.1515,0.0,0.0,0.0,0.0,0.0,0.0,0.0,0.0,0.0,0.0,0.0,0.0,0.0,0.0,-2.3658,-2.5014,-2.5098,-2.5206,0.0,0.0,-2.4173,-2.4704,-2.4431,-2.3292,0.0,0.0,0.0,0.0,0.0,0.0,0.0,0.0,0.0,0.0,0.0,0.0,0.0,0.0,0.0,0.0,0.0,0.0,0.0,0.0,0.0,0.0,0.0,0.0,0.0,0.0,0.0,0.0,0.0,0.0,0.0,0.0,0.0,0.0,0.0,0.0,0.0,0.0,0.0,0.0,0.0,0.0,0.0,0.0,0.0,0.0,0.0,0.0,0.0,0.0,0.0,0.0,0.0,0.0,0.0,-2.7604,-3.1411,-3.3675,-3.4337,-3.4354,-3.3932,-3.3059,-3.1524,-2.8954,0.0,0.0,0.0,0.0,0.0,0.0,0.0,0.0,0.0,0.0,0.0,0.0,0.0,0.0,0.0,0.0,0.0,0.0,0.0,0.0,0.0,0.0,0.0,0.0,0.0,0.0,0.0,0.0,0.0,0.0,0.0,0.0,0.0,0.0,0.0,0.0,0.0,0.0,0.0,0.0,0.0,-2.4258,-2.3657,-2.5105,-2.6279,0.0,0.0,-2.5481,-2.5281,-2.6082,-2.5277,-2.1011,0.0,0.0,0.0,0.0,0.0,0.0,0.0,0.0,0.0,0.0,0.0,0.0,0.0,0.0,0.0,0.0,0.0,0.0,0.0,0.0,0.0,0.0,0.0,0.0,0.0,0.0,0.0,0.0,0.0,0.0,0.0,0.0,0.0,0.0,0.0,0.0,0.0,0.0,0.0,0.0,0.0,0.0,0.0,0.0,0.0,0.0,0.0,0.0,0.0,0.0,0.0,0.0,0.0,-2.4178,-2.6829,-3.0661,-3.3207,-3.4278,-3.4328,-3.3701,-3.2451,-3.1375,-2.9034,0.0,0.0,0.0,0.0,0.0,0.0,0.0,0.0,0.0,0.0,0.0,0.0,0.0,0.0,0.0,0.0,0.0,0.0,0.0,0.0,0.0,0.0,0.0,0.0,0.0,0.0,0.0,0.0,-1.2364,-1.2356,-1.3052,0.0,0.0,0.0,0.0,0.0,0.0,0.0,0.0,0.0,0.0,-2.4219,-2.5168,-2.6293,0.0,0.0,-2.7011,-2.6673,-2.7142,-2.568,-2.3979,-2.2405,-2.0582,0.0,0.0,0.0,0.0,0.0,0.0,0.0,0.0,0.0,0.0,0.0,0.0,0.0,0.0,0.0,0.0,0.0,0.0,0.0,0.0,0.0,0.0,0.0,0.0,0.0,0.0,0.0,0.0,0.0,0.0,0.0,0.0,0.0,0.0,0.0,0.0,0.0,0.0,0.0,0.0,0.0,0.0,0.0,0.0,0.0,0.0,0.0,0.0,0.0,0.0,0.0,0.0,-2.3252,-2.5747,-2.9801,-3.2389,-3.3396,-3.3414,-3.2891,-3.1777,-3.0976,-2.8872,0.0,0.0,0.0,0.0,0.0,0.0,0.0,0.0,0.0,0.0,0.0,0.0,0.0,0.0,0.0,0.0,0.0,0.0,0.0,0.0,0.0,0.0,0.0,0.0,0.0,0.0,0.0,0.0,-1.314,-1.2899,-1.3141,0.0,0.0,0.0,0.0,0.0,0.0,0.0,0.0,0.0,0.0,-2.4369,-2.6214,-2.718,-2.7873,-2.8334,-2.7593,-2.7187,-2.7711,-2.5536,-2.3572,-2.2816,0.0,0.0,0.0,0.0,0.0,0.0,0.0,0.0,0.0,0.0,0.0,0.0,0.0,0.0,0.0,0.0,0.0,0.0,0.0,0.0,0.0,0.0,0.0,0.0,0.0,0.0,0.0,0.0,0.0,0.0,0.0,0.0,0.0,0.0,0.0,0.0,0.0,0.0,0.0,0.0,0.0,0.0,0.0,0.0,0.0,0.0,0.0,0.0,0.0,0.0,0.0,0.0,0.0,0.0,-2.4427,-2.8947,-3.1215,-3.1218,-3.1183,-3.1149,-3.0924,-3.0211,-2.8349,-2.5265,0.0,0.0,0.0,0.0,0.0,0.0,0.0,0.0,0.0,0.0,0.0,0.0,0.0,0.0,0.0,0.0,0.0,0.0,0.0,0.0,0.0,0.0,0.0,0.0,0.0,0.0,-1.3706,-1.3574,-1.3205,0.0,0.0,0.0,0.0,0.0,0.0,0.0,0.0,0.0,0.0,-2.269,-2.4873,-2.6202,-2.7519,-2.8334,-2.8365,-2.7609,-2.688,-2.658,-2.5999,-2.4643,0.0,0.0,0.0,0.0,0.0,0.0,0.0,0.0,0.0,0.0,0.0,0.0,0.0,0.0,0.0,0.0,0.0,0.0,0.0,0.0,0.0,0.0,0.0,0.0,0.0,0.0,0.0,-2.4829,-2.3609,0.0,0.0,0.0,0.0,0.0,0.0,0.0,0.0,0.0,0.0,0.0,-2.565,-2.6866,0.0,0.0,0.0,0.0,0.0,0.0,0.0,0.0,0.0,0.0,0.0,0.0,-2.3769,-2.5875,-2.9384,-3.1178,-3.1161,-3.1161,-3.0917,-3.0377,-2.9607,-2.7704,-2.4565,0.0,0.0,0.0,0.0,0.0,0.0,0.0,0.0,0.0,0.0,0.0,0.0,0.0,0.0,0.0,0.0,0.0,0.0,0.0,0.0,0.0,0.0,0.0,0.0,0.0,-1.3306,0.0,0.0,0.0,0.0,0.0,0.0,0.0,0.0,0.0,0.0,0.0,-1.9431,-2.1456,-2.3253,-2.4662,-2.5549,-2.6842,-2.7734,0.0,0.0,0.0,0.0,0.0,0.0,0.0,0.0,0.0,0.0,0.0,0.0,0.0,0.0,-2.1642,-1.85,-1.75,-1.727,-1.7485,0.0,0.0,0.0,0.0,0.0,0.0,0.0,0.0,0.0,0.0,0.0,0.0,0.0,0.0,0.0,0.0,-2.5019,0.0,0.0,0.0,0.0,0.0,0.0,0.0,0.0,-2.7712,-2.8494,-2.7953,-2.9167,-2.8818,0.0,-2.682,-2.4835,0.0,0.0,0.0,0.0,0.0,0.0,0.0,0.0,-2.4125,-2.6212,-2.8965,-3.0404,-3.0404,-3.0668,-3.0598,-3.0106,-2.9053,-2.7359,-2.502,-2.3187,-2.1464,0.0,0.0,0.0,0.0,0.0,0.0,0.0,0.0,0.0,0.0,0.0,0.0,0.0,0.0,0.0,0.0,0.0,0.0,0.0,0.0,0.0,0.0,0.0,-1.3394,0.0,0.0,0.0,0.0,0.0,0.0,0.0,0.0,0.0,-1.7125,-1.8843,-2.0789,-2.279,-2.3984,-2.4902,-2.5595,0.0,0.0,0.0,0.0,0.0,0.0,0.0,-2.5379,-2.4456,-2.4128,-2.3763,-2.3071,-2.3702,-2.3871,-2.2536,0.0,0.0,-2.0237,-1.9299,-1.9038,-1.9284,-1.9314,-1.9407,-1.9866,-2.0179,-2.0428,0.0,0.0,0.0,0.0,0.0,0.0,0.0,0.0,-2.9835,-2.9488,0.0,-2.7858,0.0,0.0,0.0,0.0,0.0,0.0,0.0,0.0,-3.1122,-3.1699,-3.0317,-3.0931,-3.0878,-3.0246,-3.0773,-2.9527,-2.6476,-2.2177,0.0,0.0,0.0,0.0,0.0,0.0,-2.3962,-2.5595,-2.7806,-2.893,-2.9,-2.9685,-3.0053,-2.995,-2.8544,-2.7356,-2.6471,-2.4287,-2.2373,-2.0836,-1.9208,0.0,0.0,0.0,0.0,0.0,0.0,0.0,0.0,0.0,0.0,0.0,0.0,0.0,0.0,0.0,0.0,0.0,0.0,0.0,0.0,-1.3982,0.0,0.0,0.0,0.0,0.0,0.0,0.0,0.0,0.0,0.0,-1.8656,-2.0252,-2.2145,-2.4025,0.0,0.0,0.0,0.0,-2.7334,-2.7349,-2.7365,-2.7349,-2.7303,-2.6765,-2.5872,-2.4564,0.0,0.0,-2.2767,-2.3486,-2.3933,-2.2624,-2.3456,-2.4302,-2.4174,-2.2994,-2.2409,-2.2963,-2.2086,-2.184,-2.2902,-2.264,-2.2471,-3.784,0.0,0.0,0.0,0.0,-3.3646,-3.4317,-3.5781,-3.4452,-3.3526,-3.2787,-3.0749,0.0,0.0,0.0,0.0,0.0,0.0,-3.0107,-3.0488,-3.2384,-3.3002,-3.2546,-3.2739,-3.2441,-3.1756,-3.137,-3.0176,-2.8245,-2.6911,-2.419,-2.0234,0.0,0.0,0.0,0.0,-2.5788,-2.7806,-2.8561,-2.9176,-2.9755,-2.9421,-2.8965,-2.8403,-2.8509,-2.7917,-2.6548,-2.5306,-2.3916,-2.233,-2.0211,0.0,0.0,0.0,0.0,0.0,0.0,0.0,0.0,0.0,0.0,0.0,0.0,0.0,0.0,0.0,0.0,0.0,0.0,0.0,-1.4744,-1.3932,-1.3897,0.0,0.0,0.0,0.0,0.0,0.0,0.0,0.0,0.0,-2.1118,-2.213,-2.3137,0.0,0.0,-2.4856,-2.5533,-2.5773,-2.6103,-2.6633,0.0,0.0,0.0,-2.5749,-2.5487,-2.5066,-2.561,-2.5718,-2.462,-2.4758,-2.4748,-2.3871,-2.404,-2.4281,-2.4235,-2.3625,-2.3117,-2.3225,-2.2983,-2.2994,-2.3779,-2.384,-2.3743,-4.2249,-3.8948,-3.7408,-3.6984,-3.7317,-3.6767,-3.727,-3.8417,-3.7322,-3.6603,-3.6061,-3.3932,-3.2508,-3.1618,-2.9715,0.0,0.0,0.0,-3.2123,-3.2719,-3.3618,-3.4004,-3.3986,-3.3968,-3.36,-3.2809,-3.2353,-3.1317,-2.9808,-2.9808,-2.7874,-2.412,0.0,0.0,-2.3874,-2.5489,-2.7157,-2.8825,-2.8895,-2.9141,-2.9597,-2.9141,-2.8667,-2.821,-2.8649,-2.816,-2.6594,-2.5771,-2.4742,-2.3505,-2.1481,-1.9678,0.0,0.0,0.0,0.0,0.0,0.0,0.0,0.0,0.0,0.0,0.0,-1.1982,-1.0773,0.0,0.0,0.0,-1.3693,-1.5081,-1.6055,-1.5963,0.0,0.0,0.0,0.0,0.0,0.0,0.0,-1.9718,-2.0603,-2.1479,-2.2647,-2.333,-2.3948,-2.4625,-2.4451,-2.4548,-2.5189,0.0,-2.545,-2.5887,-2.6211,-2.6226,-2.5795,-2.5465,-2.5219,-2.4927,-2.5272,-2.541,-2.501,-2.4896,-2.4758,-2.4404,-2.4281,-2.4281,-2.4281,-2.3963,-2.3702,-2.3702,-2.3702,-2.384,-2.4241,-2.4281,-2.4281,-4.5761,-4.4061,-4.1162,-3.9841,-3.9589,-3.9446,-3.9299,-3.9147,-3.889,-3.8857,-3.8828,-3.7053,-3.6453,-3.6596,-3.4227,0.0,0.0,-3.3934,-3.4217,-3.4957,-3.4919,-3.4863,-3.4863,-3.4811,-3.4408,-3.367,-3.3617,-3.2827,-3.1439,-3.137,-3.0598,-2.9088,-2.7666,-2.6897,-2.6841,-2.7526,-2.828,-2.9088,-2.8965,-2.886,-2.8807,-2.8807,-2.8772,-2.8684,-2.8737,-2.8017,-2.6563,-2.5669,-2.4927,-2.4291,-2.2702,-2.1138,-1.9623,0.0,0.0,0.0,0.0,0.0,0.0,0.0,0.0,0.0,0.0,0.0,0.0,0.0,0.0,0.0,-1.5632,0.0,-1.7776,-1.8971,0.0,0.0,0.0,-1.8463,-1.8494,-1.9268,-2.0067,-2.0754,0.0,0.0,0.0,0.0,-2.4512,-2.5142,-2.4681,-2.4527,-2.5226,-2.525,-2.5235,-2.5327,-2.581,-2.618,-2.5942,-2.5588,-2.5081,-2.4502,-2.4327,-2.4451,-2.4358,-2.4327,-2.4297,-2.4297,-2.4281,-2.4281,-2.4281,-2.4287,-2.4281,-2.4251,-2.4266,-2.4281,-2.4281,-2.4281,-2.4281,-4.7391,-4.587,-4.511,-4.4095,-4.288,-4.2189,-4.2125,-4.232,-4.1014,-4.0397,-4.0213,-3.853,-3.7225,-3.6239,-3.5616,-3.5421,-3.5543,-3.5469,-3.58,-3.6448,-3.6445,-3.6463,-3.6427,-3.5829,-3.5443,-3.5232,-3.467,-3.3916,-3.2985,-3.2967,-3.2177,-3.0703,-3.0282,-2.9509,-2.8421,-2.9141,-2.9913,-3.0633,-2.9492,-2.8596,-2.7999,-2.7999,-2.7719,-2.7157,-2.7142,-2.6686,-2.57,-2.437,-2.3857,-2.4203,-2.2177,-2.0789,-2.0326,-1.7589,0.0,0.0,0.0,0.0,0.0,0.0,0.0,0.0,0.0,-1.465,-1.1633,0.0,-1.5356,0.0,-1.6335,-1.7532,-1.8925,-1.8014,0.0,0.0,-1.8805,-1.8923,-2.0863,-2.0814,-2.1205,-2.272,-2.3285,-2.3685,-2.4035,-2.4194,-2.4348,-2.4533,-2.4404,-2.4533,-2.5173,-2.4856,-2.4727,-2.5164,-2.5041,-2.481,-2.4856,-2.5096,-2.505,-2.4404,-2.4718,-2.4881,-2.4374,-2.4281,-2.4281,-2.4281,-2.4281,-2.4281,-2.4281,-2.4281,-2.4281,-2.4281,-2.4281,-2.4281,-2.4281,-2.4281,-2.4281,-4.8366,-4.7554,-4.7174,-4.6522,-4.5617,-4.4395,-4.3766,-4.3507,-4.2478,-4.1739,-4.1181,-3.9879,-3.8759,-3.7801,-3.7649,-3.7374,-3.6943,-3.6943,-3.6958,-3.6989,-3.6989,-3.6989,-3.6972,-3.6531,-3.6162,-3.5792,-3.539,-3.4618,-3.3547,-3.3512,-3.2897,-3.1756,-3.1739,-3.1317,-3.0492,-3.0545,-3.0791,-3.1177,-3.0053,-2.9053,-2.8263,-2.7877,-2.7508,-2.709,-2.7104,-2.656,-2.5437,-2.4581,-2.4015,-2.3751,-2.2498,-2.1569,-2.1127,-1.9173,-1.7535,0.0,0.0,0.0,0.0,0.0,0.0,0.0,0.0,0.0,0.0,0.0,-1.7023,0.0,-1.8027,0.0,-2.018,-1.9968,-2.0237,-2.1437,-2.1059,-2.1238,-2.2535,-2.2356,-2.2521,-2.3479,-2.3783,-2.4008,-2.4256,-2.4281,-2.4281,-2.4281,-2.4281,-2.442,-2.4748,-2.4518,-2.4441,-2.4795,-2.4548,-2.4281,-2.4281,-2.4589,-2.4712,-2.4425,-2.4589,-2.4733,-2.4358,-2.4281,-2.4281,-2.4281,-2.4281,-2.4281,-2.4281,-2.4281,-2.4281,-2.4281,-2.4281,-2.4281,-2.4281,-2.4281,-2.4281,-4.8981,-4.8818,-4.804,-4.7699,-4.7569,-4.613,-4.4885,-4.376,-4.344,-4.2743,-4.1766,-4.1057,-4.0483,-3.998,-3.9755,-3.9109,-3.8286,-3.8146,-3.776,-3.7165,-3.7042,-3.6989,-3.6989,-3.6989,-3.6619,-3.5968,-3.595,-3.5179,-3.3669,-3.3652,-3.3231,-3.2441,-3.2406,-3.2406,-3.2371,-3.1703,-3.1247,-3.1036,-3.0422,-2.9651,-2.8754,-2.8157,-2.7754,-2.7578,-2.7561,-2.6841,-2.5331,-2.5156,-2.4476,-2.3195,-2.3107,-2.2742,-2.1986,-2.1103,-1.9945,0.0,-1.7624,0.0,0.0,0.0,0.0,0.0,0.0,0.0,0.0,-1.8469,-1.8817,-1.9297,-2.0053,-2.0833,-2.1519,-2.2801,-2.3596,-2.3477,-2.3856,-2.3984,-2.3715,-2.3791,-2.3866,-2.3822,-2.4155,-2.4369,-2.4302,-2.4281,-2.4281,-2.4281,-2.4281,-2.4312,-2.4317,-2.4312,-2.4297,-2.4281,-2.4281,-2.4281,-2.4281,-2.4297,-2.4327,-2.4297,-2.4312,-2.4281,-2.4297,-2.4281,-2.4281,-2.4281,-2.4281,-2.4281,-2.4281,-2.4281,-2.4281,-2.4281,-2.4281,-2.4281,-2.4281,-2.4281,-2.4281,-4.9492,-4.8818,-4.8022,-4.7699,-4.7681,-4.7349,-4.6266,-4.4671,-4.3817,-4.2829,-4.1819,-4.1621,-4.117,-4.0488,-4.0426,-3.9937,-3.9041,-3.8392,-3.8023,-3.7865,-3.7271,-3.6989,-3.6989,-3.6989,-3.6919,-3.6779,-3.6779,-3.5988,-3.4477,-3.4477,-3.3757,-3.2441,-3.2406,-3.2406,0.0,0.0,0.0,0.0,-3.0176,-2.9404,-2.8032,-2.8438,-2.807,-2.6876,-2.6791,0.0,-2.4572,-2.3892,-2.3388,-2.3125,-2.3107,0.0,0.0,0.0,0.0,0.0,0.0,0.0,0.0,0.0,0.0,0.0,-1.8855,-1.84,-1.8269,-1.9889,-2.0997,-2.1093,-2.1273,-2.1846,-2.2974,-2.2821,-2.297,-2.3699,-2.4094,-2.433,-2.4523,-2.4719,-2.4839,-2.4898,-2.4934,-2.4775,-2.4364,-2.4281,-2.4281,-2.4281,-2.4281,-2.4281,-2.4312,-2.4312,-2.4281,-2.4281,-2.4281,-2.4281,-2.4281,-2.4281,-2.4281,-2.4281,-2.4281,-2.4281,-2.4281,-2.4281,-2.4281,-2.4281,-2.4281,-2.4281,-2.4281,-2.4281,-2.4281,-2.4281,-2.4281,-2.4281,-2.4281,-2.4281,-2.4281,-4.9619,0.0,-4.8043,-4.7699,0.0,-4.7699,-4.6708,-4.5045,-4.4426,-4.3379,-4.2103,-4.187,-4.1658,-4.1395,-4.1266,-4.0711,-3.9849,-3.9059,-3.8477,-3.8076,-3.7341,-3.6989,-3.6989,-3.6989,-3.6989,-3.6989,-3.6989,-3.6199,-3.4776,-3.4688,-3.3915,-3.2423,-3.2406,-3.2406,-3.2406,-3.2406,-3.2019,-3.1247,-3.0494,-2.9702,-2.8912,-2.8509,-2.7929,-2.7192,0.0,0.0,0.0,0.0,0.0,0.0,0.0,0.0,0.0,0.0,0.0,-2.1149,-2.0743,-2.016,-1.9417,-2.0016,-2.0579,-2.0941,-2.0963,-2.0665,-1.9924,-2.1268,-2.2302,-2.2647,-2.2681,-2.3106,-2.409,-2.3904,-2.3981,-2.469,-2.4841,-2.5045,-2.5424,-2.5307,-2.5167,-2.5154,-2.4914,-2.4574,-2.4323,-2.4281,-2.4281,-2.4281,-2.4281,-2.4441,-2.4681,-2.4502,-2.4297,-2.4281,-2.4281,-2.4281,-2.4281,-2.4281,-2.4281,-2.4281,-2.4281,-2.4281,-2.4281,-2.4281,-2.4281,-2.4281,-2.4281,-2.4281,-2.4281,-2.4281,-2.4281,-2.4281,-2.4281,-2.4281,-2.4281,-2.4281,-2.4281,-4.9637,-4.8837,-4.804,-4.7699,-4.7699,-4.7699,-4.675,-4.5163,0.0,0.0,0.0,-4.1995,-4.1934,-4.2113,-4.1892,-4.1384,-4.066,-3.9884,-3.9076,-3.8304,-3.7532,-3.713,-3.7007,-3.6989,-3.6989,-3.6989,-3.6989,-3.6199,-3.474,-3.4688,-3.3915,-3.2529,-3.2406,-3.2406,-3.2406,-3.2406,-3.2406,-3.2335,-3.0878,-3.0036,-2.9878,-2.8596,-2.7856,-2.7716,-2.7122,-2.6405,-2.5647,-2.4906,-2.4133,-2.3365,-2.3318,-2.3223,-2.3033,-2.3003,-2.2995,-2.2914,-2.2855,-2.2539,-2.1938,-2.2406,-2.2492,-2.2039,-2.2543,-2.2578,-2.1867,-2.2474,-2.3216,-2.3957,-2.4008,-2.4336,-2.5126,-2.5195,-2.5369,-2.5839,-2.5859,-2.5982,-2.6231,-2.5832,-2.5446,-2.5195,-2.4815,-2.4405,-2.4302,-2.4281,-2.4379,-2.4451,-2.4527,-2.4697,-2.5235,-2.5066,-2.4733,-2.4574,-2.4558,-2.4487,-2.4312,-2.4281,-2.4281,-2.4281,-2.4281,-2.4281,-2.4281,-2.4281,-2.4281,-2.4281,-2.4281,-2.4281,-2.4281,-2.4281,-2.4281,-2.4281,-2.4281,-2.4281,-2.4281,-2.4281,-2.4281,-4.9619,-4.8837,-4.8022,-4.7699,-4.7699,-4.7699,-4.675,-4.5073,-4.3402,-4.2463,-4.2145,-4.2012,-4.1927,-4.1849,-4.1801,-4.1661,-4.1394,-4.0674,-3.9884,0.0,-3.8322,-3.7602,-3.7007,-3.6989,-3.6989,-3.6989,-3.6989,-3.6199,-3.4846,-3.4688,-3.3915,-3.2581,-3.2406,-3.2406,-3.2406,-3.2406,-3.2406,-3.2371,-3.0878,-2.9772,-2.9105,-2.8842,-2.8403,-2.7736,-2.7596,-2.7192,-2.6441,-2.5665,-2.491,-2.4168,-2.4133,-2.3821,-2.3147,-2.3082,-2.307,-2.2995,-2.2914,-2.2816,-2.266,-2.2686,-2.294,-2.3457,-2.3595,-2.3336,-2.2647,-2.3216,-2.3974,-2.4729,-2.4818,-2.5129,-2.585,-2.5971,-2.614,-2.6551,-2.6868,-2.6888,-2.6453,-2.6349,-2.6049,-2.5443,-2.5169,-2.4755,-2.4364,-2.4312,-2.4543,-2.501,-2.5226,-2.5419,-2.5973,-2.6134,-2.5841,-2.5349,-2.5142,-2.4933,-2.4435,-2.4281,-2.4281,-2.4281,-2.4281,-2.4281,-2.4281,-2.4281,-2.4281,-2.4281,-2.4281,-2.4281,-2.4281,-2.4281,-2.4281,-2.4281,-2.4281,-2.4281,-2.4281,-2.4281,-2.4281,-4.8985,-4.8261,-4.7862,-4.7699,-4.7645,-4.6776,-4.5956,-4.5122,-4.3492,-4.2589,-4.2205,-4.2016,-4.1888,-4.178,-4.1714,-4.1648,-4.1569,-4.0854,-4.0081,-3.9287,-3.8497,-3.7809,-3.7279,-3.7127,-3.711,-3.7262,-3.7127,-3.6448,-3.5355,-3.4917,-3.4108,-3.3038,-3.2599,-3.2406,-3.2406,-3.2406,-3.2177,-3.1739,-3.0668,-2.993,-2.9544,-2.8702,-2.8087,-2.7716,-2.7332,-2.6949,-2.6598,-2.5823,-2.5243,-2.491,-2.4519,-2.4146,-2.3769,-2.3335,-2.3077,-2.307,-2.2995,-2.3123,-2.3493,-2.3784,-2.4077,-2.4422,-2.4439,-2.4491,-2.456,-2.4488,-2.4767,-2.5505,-2.5592,-2.5904,-2.6661,-2.6747,-2.6758,-2.679,-2.6957,-2.6858,-2.6436,-2.6122,-2.5817,-2.5424,-2.5033,-2.4666,-2.4359,-2.4604,-2.4933,-2.5312,-2.5872,-2.6549,-2.6872,-2.7226,-2.6919,-2.5635,-2.5296,-2.4989,-2.442,-2.4281,-2.4281,-2.4281,-2.4281,-2.4281,-2.4281,-2.4281,-2.4281,-2.4281,-2.4281,-2.4281,-2.4281,-2.4281,-2.4281,-2.4281,-2.4281,-2.4281,-2.4281,-2.4281,-2.4281,-4.842,-4.7717,-4.7699,-4.7609,-4.7319,-4.5906,-4.5291,-4.5166,-4.3958,-4.3172,-4.2743,-4.2299,-4.1998,-4.1823,-4.1692,-4.1626,-4.1539,-4.1098,-4.0475,-3.9682,-3.8909,-3.8312,-3.7882,-3.7408,-3.7245,-3.745,-3.7226,-3.6663,-3.5811,-3.5056,-3.4214,-3.3301,-3.2686,-3.2406,-3.2406,-3.2406,-3.209,-3.144,-3.0562,-3.0018,-2.979,-2.8438,-2.7716,-2.7648,-2.7157,-2.6844,-2.6791,-2.6104,-2.5682,-2.5647,-2.4945,-2.4537,-2.4519,-2.3962,-2.3616,-2.3616,-2.3552,-2.375,-2.4284,-2.4732,-2.5074,-2.5247,-2.5247,-2.5574,-2.6212,-2.585,-2.573,-2.6281,-2.6368,-2.6626,-2.7144,-2.728,-2.7169,-2.6858,-2.6891,-2.6741,-2.6349,-2.5906,-2.5521,-2.5329,-2.4851,-2.4529,-2.4657,-2.4995,-2.5404,-2.5918,-2.6857,-2.7534,-2.7519,-2.7873,-2.7334,-2.5988,-2.5441,-2.521,-2.4497,-2.4281,-2.4281,-2.4281,-2.4281,-2.4281,-2.4281,-2.4281,-2.4281,-2.4281,-2.4281,-2.4281,-2.4281,-2.4281,-2.4281,-2.4281,-2.4281,-2.4281,-2.4281,-2.4281,-2.4281,-4.842,-4.7753,-4.7699,-4.7265,-4.6576,-4.5689,-4.5327,-4.5218,-4.4388,-4.4084,-4.4086,-4.3094,-4.2374,-4.1917,-4.1823,-4.1714,-4.1631,-4.1913,-4.1602,-4.0856,-4.0224,-3.9642,-3.8993,-3.7879,-3.7355,-3.7469,-3.7243,-3.67,-3.5902,-3.5111,-3.3987,-3.2651,-3.2423,-3.244,-3.2423,-3.2423,-3.237,-3.2248,-3.0827,-2.9739,-2.9018,-2.8157,-2.7716,-2.7716,-2.7631,-2.7596,-2.7526,-2.6879,-2.6493,-2.6423,-2.5721,-2.5314,-2.5296,-2.5226,-2.5173,-2.516,-2.5088,-2.5063,-2.5038,-2.4997,-2.535,-2.5904,-2.6006,-2.6316,-2.7057,-2.7108,-2.7092,-2.7144,-2.7177,-2.7178,-2.7282,-2.7315,-2.7153,-2.6858,-2.7023,-2.6925,-2.6208,-2.6049,-2.5799,-2.5188,-2.4889,-2.4797,-2.5282,-2.5438,-2.5872,-2.6857,-2.755,-2.7857,-2.738,-2.7365,-2.7026,-2.5872,-2.581,-2.561,-2.4635,-2.4281,-2.4281,-2.4281,-2.4281,-2.4281,-2.4281,-2.4281,-2.4281,-2.4281,-2.4281,-2.4281,-2.4281,-2.4281,-2.4281,-2.4281,-2.4281,-2.4281,-2.4281,-2.4281,-2.4281,-4.8025,-4.7717,-4.7699,-4.7228,-4.6486,-4.6142,-4.6015,-4.5945,-4.5496,-4.5224,-4.5076,-4.4309,-4.3356,-4.2376,-4.2019,-4.1823,-4.174,-4.2068,-4.1787,-4.108,-4.0524,-4.002,-3.9495,-3.8222,-3.7685,-3.7791,-3.7412,-3.7101,-3.6663,-3.5775,-3.4482,-3.3089,-3.2928,-3.2928,-3.2928,-3.2928,-3.265,-3.2026,-3.0914,-2.9882,-2.8986,-2.8135,-2.7716,-2.7716,-2.7716,-2.7716,-2.7683,-2.7385,-2.7245,-2.721,-2.6511,-2.6104,-2.6107,-2.5665,-2.5401,-2.5423,-2.5789,-2.5949,-2.5831,-2.6194,-2.6534,-2.6782,-2.6816,-2.6954,-2.7247,-2.7315,-2.7315,-2.7315,-2.7315,-2.7315,-2.7315,-2.7315,-2.7169,-2.6875,-2.6792,-2.6572,-2.6082,-2.5791,-2.5602,-2.5704,-2.5455,-2.5456,-2.5985,-2.6355,-2.6749,-2.7334,-2.7673,-2.7565,-2.6903,-2.6795,-2.638,-2.5626,-2.5595,-2.5333,-2.4497,-2.4281,-2.4281,-2.4281,-2.4281,-2.4281,-2.4281,-2.4281,-2.4281,-2.4281,-2.4281,-2.4281,-2.4281,-2.4281,-2.4281,-2.4281,-2.4281,-2.4281,-2.4281,-2.4281,-2.4281,-4.7699,-4.7699,-4.7699,-4.7246,-4.6504,-4.6504,-4.6504,-4.6493,-4.6378,-4.6121,-4.5773,-4.5347,-4.4325,-4.2993,-4.2295,-4.1934,-4.187,-4.2169,-4.2034,-4.1507,-4.0854,-4.0422,-4.0144,-3.8604,-3.7982,-3.8135,-3.7685,-3.7397,-3.7255,-3.6251,-3.4987,-3.3791,-3.3414,-3.3288,-3.3288,-3.3288,-3.2943,-3.2218,-3.1171,-3.0248,-2.9514,-2.8468,-2.7858,-2.773,-2.7716,-2.7716,-2.7716,-2.7716,-2.7716,-2.7698,-2.7192,-2.6897,-2.6876,-2.6349,-2.6033,-2.6055,-2.6506,-2.6749,-2.6643,-2.7109,-2.7378,-2.7315,-2.7315,-2.7315,-2.7315,-2.7315,-2.7315,-2.7315,-2.7315,-2.7315,-2.7315,-2.7315,-2.7222,-2.713,-2.6979,-2.684,-2.6658,-2.63,-2.6292,-2.6457,-2.6225,-2.6236,-2.6727,-2.7103,-2.7349,-2.738,-2.7396,-2.7026,-2.6327,-2.6211,-2.6103,-2.5189,-2.5019,-2.482,-2.4389,-2.4281,-2.4281,-2.4281,-2.4281,-2.4281,-2.4281,-2.4281,-2.4281,-2.4281,-2.4281,-2.4281,-2.4281,-2.4281,-2.4281,-2.4281,-2.4281,-2.4281,-2.4281,-2.4281,-2.4281,-4.7699,-4.7699,-4.7699,-4.7265,-4.6522,-4.6561,-4.654,-4.6638,-4.6793,-4.6618,-4.619,-4.604,-4.5102,-4.3567,-4.2728,-4.2145,-4.1998,-4.2412,-4.2619,-4.2519,-4.1431,-4.1054,-4.1334,-3.9165,-3.8219,-3.8489,-3.8015,-3.75,-3.6961,-3.6141,-3.5274,-3.4456,-3.3727,-3.3317,-3.3346,-3.3361,-3.3288,-3.3049,-3.1731,-3.0853,-3.0586,-2.9248,-2.8246,-2.7818,-2.7716,-2.773,-2.7716,-2.7716,-2.7716,-2.7716,-2.7631,-2.7613,-2.7613,-2.7561,-2.749,-2.7526,-2.7539,-2.7502,-2.7407,-2.7402,-2.7393,-2.7315,-2.7315,-2.7315,-2.7315,-2.7401,-2.7418,-2.7333,-2.7418,-2.7385,-2.7454,-2.7471,-2.7598,-2.7947,-2.8151,-2.8149,-2.8075,-2.7918,-2.784,-2.7467,-2.7126,-2.7096,-2.7464,-2.7442,-2.7342,-2.7296,-2.7303,-2.6842,-2.5764,-2.5887,-2.5641,-2.4841,-2.4404,-2.4327,-2.4281,-2.4281,-2.4281,-2.4281,-2.4281,-2.4281,-2.4281,-2.4281,-2.4281,-2.4281,-2.4281,-2.4281,-2.4281,-2.4281,-2.4281,-2.4281,-2.4281,-2.4281,-2.4281,-2.4281,-2.4281,-4.7699,-4.7699,-4.7699,-4.7518,-4.7303,-4.7454,-4.7534,-4.7576,-4.8034,-4.7841,-4.7166,-4.6661,-4.5772,-4.4631,-4.3592,-4.2865,-4.2478,-4.2959,-4.3177,-4.3102,-4.2421,-4.1921,-4.1419,-3.9997,-3.8999,-3.8572,-3.8231,-3.7784,-3.722,-3.6626,-3.5947,-3.5137,-3.4276,-3.3889,-3.3889,-3.3871,-3.3823,-3.3579,-3.2527,-3.1699,-3.0988,-2.9932,-2.8987,-2.8255,-2.8047,-2.7915,-2.7842,-2.7748,-2.7716,-2.7716,-2.7716,-2.7716,-2.7716,-2.7716,-2.7716,-2.7701,-2.7672,-2.7615,-2.7511,-2.7465,-2.7405,-2.7313,-2.7315,-2.7332,-2.7401,-2.7713,-2.7989,-2.7989,-2.7989,-2.8161,-2.8506,-2.8299,-2.8266,-2.8836,-2.8905,-2.8867,-2.8748,-2.8574,-2.8417,-2.8428,-2.8355,-2.8205,-2.7687,-2.7573,-2.7164,-2.6368,-2.6116,-2.5656,-2.501,-2.4933,-2.4933,-2.4502,-2.4281,-2.4281,-2.4281,-2.4281,-2.4281,-2.4281,-2.4281,-2.4281,-2.4281,-2.4281,-2.4281,-2.4281,-2.4281,-2.4281,-2.4281,-2.4281,-2.4281,-2.4281,-2.4281,-2.4281,-2.4281,-2.4281,-2.4281,-4.7699,-4.7717,-4.7785,-4.7809,-4.7868,-4.8134,-4.8269,-4.8326,-4.8784,-4.8544,-4.776,-4.7037,-4.6215,-4.5249,-4.4308,-4.3629,-4.3178,-4.337,-4.3456,-4.3382,-4.2929,-4.231,-4.1523,-4.0514,-3.9577,-3.8844,-3.8597,-3.8288,-3.7882,-3.7113,-3.6426,-3.585,-3.4773,-3.4216,-3.4216,-3.4216,-3.4105,-3.3844,-3.316,-3.2262,-3.1334,-3.0491,-2.9625,-2.8803,-2.8451,-2.8192,-2.7982,-2.7836,-2.7716,-2.7716,-2.7716,-2.7716,-2.7716,-2.7716,-2.7716,-2.7716,-2.7716,-2.7642,-2.7509,-2.7496,-2.7452,-2.733,-2.7332,-2.7368,-2.7627,-2.8109,-2.8454,-2.8661,-2.8765,-2.9058,-2.9575,-2.942,-2.9351,-2.9782,-2.9728,-2.9688,-2.9784,-2.9559,-2.9257,-2.896,-2.8718,-2.8311,-2.7599,-2.7136,-2.6503,-2.5577,-2.5382,-2.5041,-2.4471,-2.4518,-2.4518,-2.4364,-2.4297,-2.4281,-2.4297,-2.4297,-2.4312,-2.4312,-2.4374,-2.4358,-2.4312,-2.4312,-2.4312,-2.4297,-2.4281,-2.4281,-2.4281,-2.4281,-2.4281,-2.4281,-2.4281,-2.4281,-2.4281,-2.4281,-2.4312,-4.7681,-4.7689,-4.7994,-4.8058,-4.8043,-4.8421,-4.8605,-4.8641,-4.8906,-4.865,-4.801,-4.7267,-4.6413,-4.5431,-4.4736,-4.4262,-4.3939,-4.366,-4.354,-4.3498,-4.2955,-4.2289,-4.1571,-4.0636,-3.9771,-3.9078,-3.9055,-3.9055,-3.8869,-3.7472,-3.6662,-3.637,-3.4959,-3.4216,-3.4216,-3.4197,-3.4197,-3.4024,-3.3418,-3.2632,-3.1801,-3.1032,-3.0128,-2.9166,-2.8803,-2.8482,-2.8116,-2.7968,-2.7827,-2.7716,-2.7716,-2.7716,-2.7716,-2.7716,-2.7716,-2.7716,-2.7716,-2.7627,-2.7509,-2.7496,-2.7469,-2.7467,-2.7384,-2.7713,-2.8299,-2.8558,-2.8885,-2.9403,-2.9541,-2.9851,-3.0506,-3.0541,-3.0541,-3.0696,-3.066,-3.0776,-3.1031,-3.1114,-3.0506,-2.9214,-2.8575,-2.781,-2.6973,-2.6299,-2.5703,-2.5474,-2.528,-2.4995,-2.4492,-2.4702,-2.4835,-2.4564,-2.4364,-2.4312,-2.4333,-2.4333,-2.4348,-2.4379,-2.4435,-2.4466,-2.4425,-2.4394,-2.4441,-2.4425,-2.4297,-2.4281,-2.4343,-2.4343,-2.4338,-2.4338,-2.4317,-2.4348,-2.4312,-2.4312,-2.4379,-4.7479,-4.7262,-4.7836,-4.7882,-4.7684,-4.8489,-4.8872,-4.8906,-4.9214,-4.9177,-4.8743,-4.7582,-4.6765,-4.621,-4.5129,-4.444,-4.434,-4.4218,-4.4124,-4.4011,-4.3776,-4.2902,-4.1797,-4.1249,-4.0385,-3.9291,-3.9101,-3.9101,-3.8804,-3.7498,-3.6718,-3.637,-3.5033,-3.4253,-3.4216,-3.4216,-3.4216,-3.4172,-3.3968,-3.3175,-3.1942,-3.1571,-3.0702,-2.9255,-2.8893,-2.8601,-2.8233,-2.8028,-2.7842,-2.7716,-2.7716,-2.7716,-2.7716,-2.7716,-2.7716,-2.7716,-2.7716,-2.7657,-2.7587,-2.7544,-2.7693,-2.7999,-2.8073,-2.842,-2.911,-2.9644,-3.0024,-3.03,-3.0352,-3.0644,-3.1179,-3.099,-3.0956,-3.1421,-3.1455,-3.1454,-3.1529,-3.1372,-3.0667,-2.9606,-2.8951,-2.8051,-2.6783,-2.5895,-2.5477,-2.4984,-2.4854,-2.4637,-2.4544,-2.4559,-2.4862,-2.4972,-2.4713,-2.4508,-2.4585,-2.4817,-2.5019,-2.4993,-2.4945,-2.4933,-2.4816,-2.48,-2.4769,-2.4692,-2.4548,-2.4508,-2.4518,-2.4534,-2.4636,-2.4513,-2.4544,-2.4492,-2.4394,-2.4533,-2.4779,-4.7564,-4.7572,-4.785,-4.7978,-4.8008,-4.8839,-4.9179,-4.9211,-4.9412,-4.9321,-4.8776,-4.7612,-4.6805,-4.6298,-4.5082,-4.4519,-4.4482,-4.4482,-4.4458,-4.4373,-4.43,-4.3326,-4.1739,-4.0927,-4.0215,-3.9305,-3.9101,-3.9101,-3.9027,-3.7819,-3.6983,-3.6482,-3.533,-3.4513,-3.4253,-3.4216,-3.4216,-3.4216,-3.4179,-3.3577,-3.2537,-3.224,-3.1422,-2.9909,-2.9444,-2.9077,-2.861,-2.834,-2.8053,-2.7774,-2.7716,-2.7716,-2.7716,-2.7716,-2.7716,-2.7716,-2.7701,-2.7657,-2.7602,-2.7542,-2.7795,-2.8327,-2.8435,-2.8903,-2.9748,-3.0489,-3.0766,-3.1058,-3.1093,-3.1282,-3.1593,-3.1439,-3.1351,-3.1731,-3.1765,-3.18,-3.1763,-3.1504,-3.0879,-2.992,-2.9072,-2.7964,-2.6792,-2.5774,-2.5329,-2.4764,-2.4584,-2.4518,-2.4498,-2.4441,-2.4818,-2.5253,-2.5571,-2.5331,-2.5024,-2.5288,-2.571,-2.5693,-2.5601,-2.5583,-2.5493,-2.5623,-2.5654,-2.5568,-2.5423,-2.5534,-2.5561,-2.5413,-2.5386,-2.5145,-2.5033,-2.5232,-2.5395,-2.5487,-2.5656,-4.783,-4.8475,-4.8071,-4.8286,-4.8855,-4.927,-4.9459,-4.9474,-4.9509,-4.9058,-4.8213,-4.7387,-4.6542,-4.5697,-4.4876,-4.4482,-4.4482,-4.4482,-4.4501,-4.4473,-4.4336,-4.3446,-4.1721,-4.0309,-3.9486,-3.9138,-3.9101,-3.9101,-3.9045,-3.8191,-3.7498,-3.6649,-3.5826,-3.5045,-3.4364,-3.4216,-3.4216,-3.4216,-3.4216,-3.3782,-3.2983,-3.2934,-3.2217,-3.0691,-3.0312,-2.9829,-2.9168,-2.8748,-2.8326,-2.7829,-2.7745,-2.7716,-2.7716,-2.7716,-2.7716,-2.7839,-2.7768,-2.7759,-2.7669,-2.7716,-2.7969,-2.8619,-2.8797,-2.9144,-3.0489,-3.0851,-3.1128,-3.1593,-3.1696,-3.1731,-3.1783,-3.1731,-3.1731,-3.1783,-3.18,-3.18,-3.1781,-3.1488,-3.0806,-2.9956,-2.8879,-2.7686,-2.6633,-2.5643,-2.5112,-2.4854,-2.4748,-2.4797,-2.4673,-2.4683,-2.4694,-2.5233,-2.6036,-2.6123,-2.5815,-2.6626,-2.6963,-2.6604,-2.6516,-2.651,-2.6236,-2.6267,-2.632,-2.6242,-2.6236,-2.6395,-2.6401,-2.6149,-2.6081,-2.6016,-2.6103,-2.6317,-2.6334,-2.6272,-2.6272,-4.8158,-4.8051,-4.8509,-4.8567,-4.8537,-4.9174,-4.9509,-4.9509,-4.949,-4.8945,-4.8138,-4.7368,-4.6467,-4.5679,-4.4871,-4.4482,-4.4482,-4.4482,-4.4482,-4.4501,-4.4501,-4.3418,-4.1842,-4.0645,-3.9747,-3.9189,-3.9082,-3.9101,-3.9045,-3.8339,-3.7535,-3.6699,-3.5937,-3.5083,-3.4327,-3.4216,-3.4216,-3.4216,-3.4216,-3.3807,-3.3169,-3.3027,-3.2449,-3.1376,-3.0683,-3.0178,-2.9618,-2.8948,-2.8394,-2.8051,-2.7893,-2.7795,-2.7766,-2.7733,-2.7944,-2.8368,-2.8035,-2.7982,-2.8378,-2.8392,-2.8681,-2.9396,-2.9747,-3.0507,-3.1369,-3.1507,-3.161,-3.18,-3.18,-3.18,-3.18,-3.18,-3.18,-3.18,-3.18,-3.18,-3.1695,-3.1228,-3.0482,-2.9478,-2.8382,-2.7261,-2.6346,-2.5593,-2.5084,-2.5005,-2.5192,-2.5351,-2.5179,-2.5451,-2.5665,-2.5903,-2.6436,-2.662,-2.696,-2.7813,-2.8094,-2.7621,-2.7515,-2.7623,-2.7165,-2.6701,-2.6736,-2.6686,-2.6685,-2.6778,-2.6707,-2.6567,-2.6645,-2.6747,-2.6636,-2.6601,-2.6626,-2.6626,-2.6688,-4.8464,-4.852,-4.8632,-4.8693,-4.8795,-4.9302,-4.9509,-4.9415,-4.9077,-4.8476,-4.765,-4.6805,-4.5998,-4.519,-4.4721,-4.4501,-4.4482,-4.4482,-4.4482,-4.4421,-4.4125,-4.3142,-4.1852,-4.0924,-4.0016,-3.9217,-3.9096,-3.9082,-3.9045,-3.8599,-3.7801,-3.6848,-3.6253,-3.5386,-3.4271,-3.4216,-3.4216,-3.4216,-3.4197,-3.3937,-3.354,-3.351,-3.301,-3.2248,-3.1614,-3.1236,-3.0674,-2.9783,-2.899,-2.8437,-2.816,-2.8152,-2.8296,-2.7965,-2.815,-2.8822,-2.8438,-2.8438,-2.8811,-2.9001,-2.9462,-3.0107,-3.0595,-3.1042,-3.1593,-3.18,-3.18,-3.18,-3.18,-3.18,-3.18,-3.18,-3.18,-3.18,-3.18,-3.18,-3.18,-3.1162,-3.0505,-2.9639,-2.8538,-2.7408,-2.662,-2.601,-2.5586,-2.5512,-2.593,-2.5859,-2.5739,-2.6293,-2.6582,-2.6576,-2.6496,-2.6553,-2.6757,-2.7462,-2.8199,-2.7906,-2.8074,-2.8276,-2.8035,-2.7404,-2.7559,-2.7565,-2.7326,-2.7195,-2.734,-2.7324,-2.7195,-2.7174,-2.6984,-2.7094,-2.7303,-2.7226,-2.7273,-4.8795,-4.9434,-4.8664,-4.8795,-4.9415,-4.949,-4.9415,-4.9189,-4.8589,-4.7725,-4.6843,-4.6054,-4.5378,-4.4501,-4.4552,-4.4482,-4.4482,-4.4482,-4.4482,-4.4289,-4.3769,-4.2822,-4.1911,-4.096,-4.0071,-3.9309,-3.9142,-3.9115,-3.9096,-3.9027,-3.8172,-3.7052,-3.6662,-3.5751,-3.4531,-3.4216,-3.4216,-3.4216,-3.4216,-3.4179,-3.4067,-3.403,-3.3609,-3.2904,-3.2521,-3.2057,-3.1443,-3.0736,-2.9886,-2.8747,-2.8535,-2.8796,-2.9184,-2.8584,-2.8617,-2.9086,-2.9193,-2.9088,-2.9234,-2.9736,-3.0142,-3.0664,-3.0802,-3.1058,-3.1645,-3.18,-3.18,-3.18,-3.18,-3.18,-3.18,-3.18,-3.18,-3.18,-3.18,-3.18,-3.1679,-3.1145,-3.0714,-3.0593,-2.9093,-2.8117,-2.7587,-2.6991,-2.6259,-2.6239,-2.6651,-2.6864,-2.6819,-2.7109,-2.7034,-2.6691,-2.656,-2.6372,-2.6609,-2.6909,-2.7579,-2.7955,-2.8311,-2.8541,-2.8693,-2.8466,-2.8638,-2.8622,-2.8191,-2.8198,-2.8502,-2.8346,-2.791,-2.7904,-2.7898,-2.8194,-2.8436,-2.8139,-2.8061,-4.9321,-4.949,-4.9283,-4.9321,-4.949,-4.949,-4.9114,-4.8476,-4.8269,-4.7331,-4.6186,-4.5772,-4.5228,-4.4501,-4.4482,-4.4482,-4.4482,-4.4482,-4.4482,-4.4402,-4.3688,-4.283,-4.194,-4.1031,-4.0115,-3.9405,-3.9183,-3.9156,-3.9115,-3.8971,-3.8284,-3.6922,-3.6625,-3.5863,-3.4439,-3.4216,-3.4216,-3.4216,-3.4216,-3.4216,-3.4216,-3.4179,-3.3844,-3.3113,-3.2537,-3.1756,-3.1155,-3.1117,-3.0772,-3.0021,-2.9541,-2.9639,-3.0029,-2.9824,-2.9884,-3.0261,-3.0088,-3.0056,-3.0483,-3.0592,-3.0699,-3.089,-3.1268,-3.1627,-3.1731,-3.18,-3.18,-3.18,-3.18,-3.18,-3.18,-3.18,-3.18,-3.18,-3.18,-3.18,-3.1679,-3.1163,-3.0748,-3.035,-2.9178,-2.7946,-2.7809,-2.6976,-2.6648,-2.6955,-2.7396,-2.7866,-2.7974,-2.7976,-2.779,-2.7442,-2.7046,-2.696,-2.707,-2.7353,-2.7844,-2.8345,-2.8674,-2.8981,-2.9139,-2.9144,-2.922,-2.9136,-2.8957,-2.9051,-2.9004,-2.8745,-2.8175,-2.8497,-2.8685,-2.8685,-2.867,-2.8646,-2.8645,-4.9509,-4.9509,-4.9509,-4.9509,-4.9509,-4.949,-4.9002,-4.8232,-4.7781,-4.6918,-4.581,-4.5341,-4.4876,-4.4519,-4.4482,-4.4482,-4.4482,-4.4482,-4.4482,-4.42,-4.3318,-4.2436,-4.1835,-4.0815,-3.9851,-3.936,-3.9242,-3.9183,-3.9142,-3.8985,-3.8265,-3.6829,-3.6718,-3.5789,-3.4439,-3.4216,-3.4216,-3.4216,-3.4216,-3.4216,-3.4216,-3.4197,-3.4086,-3.364,-3.3138,-3.2674,-3.2458,-3.2096,-3.2041,-3.1688,-3.1089,-3.0729,-3.0844,-3.0576,-3.0601,-3.0964,-3.0896,-3.0724,-3.1008,-3.1307,-3.1429,-3.1305,-3.1648,-3.1732,-3.18,-3.18,-3.18,-3.18,-3.18,-3.18,-3.18,-3.18,-3.18,-3.18,-3.18,-3.18,-3.1679,-3.1145,-3.0714,-3.0385,-2.9248,-2.8442,-2.7811,-2.7199,-2.6962,-2.7216,-2.8035,-2.8498,-2.8617,-2.8663,-2.8841,-2.854,-2.7921,-2.7671,-2.7697,-2.7943,-2.838,-2.882,-2.9186,-2.9523,-2.9794,-2.9739,-2.9633,-2.94,-2.9118,-2.894,-2.8839,-2.8619,-2.8565,-2.8754,-2.8841,-2.8794,-2.8779,-2.8787,-2.8795,-4.9509,-4.9509,-4.9509,-4.9509,-4.9471,-4.934,-4.8758,-4.7932,-4.7162,-4.6279,-4.5528,-4.4763,-4.4557,-4.4482,-4.4482,-4.4482,-4.4482,-4.4482,-4.4463,-4.4008,-4.2774,-4.2023,-4.1441,-4.0428,-3.9665,-3.9495,-3.9354,-3.9256,-3.9183,-3.9044,-3.8274,-3.6978,-3.6718,-3.5807,-3.4569,-3.4216,-3.4216,-3.4216,-3.4216,-3.4216,-3.4123,-3.4067,-3.3881,-3.3807,-3.3484,-3.3491,-3.3288,-3.3032,-3.288,-3.35,-3.2632,-3.2134,-3.1732,-3.1193,-3.081,-3.1404,-3.1388,-3.1356,-3.1411,-3.1708,-3.1932,-3.1893,-3.1838,-3.18,-3.18,-3.18,-3.18,-3.18,-3.18,-3.18,-3.18,-3.18,-3.18,-3.18,-3.18,-3.18,-3.1696,-3.1231,-3.1025,-3.0731,-2.9748,-2.8818,-2.8336,-2.7807,-2.7596,-2.756,-2.8391,-2.8983,-2.9076,-2.9048,-2.9068,-2.8953,-2.8237,-2.7663,-2.7643,-2.7336,-2.7905,-2.8825,-2.9299,-2.97,-3.0063,-3.0175,-2.993,-2.9454,-2.9159,-2.9037,-2.8867,-2.8656,-2.8681,-2.8893,-2.8933,-2.8871,-2.8895,-2.8951,-2.8943,-4.9509,-4.9509,-4.9509,-4.949,-4.9377,-4.8739,-4.7988,-4.7143,-4.6336,-4.5472,-4.4777,-4.4557,-4.4482,-4.4482,-4.4482,-4.4482,-4.4482,-4.4407,-4.412,-4.3501,-4.2393,-4.1685,-4.0985,-4.0153,-3.9614,-3.9583,-3.9464,-3.9354,-3.9242,-3.909,-3.8319,-3.7071,-3.6718,-3.5844,-3.4736,-3.4216,-3.4216,-3.4216,-3.4216,-3.4216,-3.4104,-3.3733,-3.3436,-3.3398,-3.3039,-3.2983,-3.3196,-3.2958,-3.2777,-3.2855,-3.2936,-3.2874,-3.2637,-3.2243,-3.2065,-3.2054,-3.2004,-3.1882,-3.1865,-3.1863,-3.1912,-3.1838,-3.18,-3.18,-3.18,-3.18,-3.18,-3.18,-3.18,-3.18,-3.18,-3.18,-3.18,-3.18,-3.18,-3.18,-3.1765,-3.1645,-3.1525,-3.1334,-3.0248,-2.9196,-2.8747,-2.8213,-2.7678,-2.7627,-2.8217,-2.8819,-2.9075,-2.8919,-2.8763,-2.8589,-2.8312,-2.7791,-2.7402,-2.6916,-2.6978,-2.8282,-2.8943,-2.9376,-2.9806,-3.0282,-3.018,-2.9653,-2.943,-2.9419,-2.9157,-2.8779,-2.8821,-2.9019,-2.8988,-2.894,-2.898,-2.9013,-2.9006,-4.9509,-4.9509,-4.9509,-4.9227,-4.8795,-4.8382,-4.7462,-4.6354,-4.5866,-4.5247,-4.4702,-4.4482,-4.4482,-4.4482,-4.4482,-4.4482,-4.4407,-4.4008,-4.367,-4.3069,-4.2018,-4.1248,-4.0703,-3.9965,-3.9683,-3.9596,-3.9533,-3.9425,-3.9301,-3.9229,-3.8444,-3.7535,-3.6946,-3.6055,-3.5033,-3.442,-3.4253,-3.4216,-3.4216,-3.4197,-3.4197,-3.3745,-3.3621,-3.3454,-3.325,-3.3287,-3.3449,-3.3438,-3.3329,-3.3298,-3.3276,-3.3181,-3.2988,-3.28,-3.2573,-3.244,-3.2267,-3.2161,-3.209,-3.1984,-3.1875,-3.1818,-3.18,-3.18,-3.18,-3.18,-3.18,-3.18,-3.18,-3.18,-3.18,-3.18,-3.18,-3.18,-3.18,-3.18,-3.18,-3.18,-3.1765,-3.1627,-3.0351,-2.9437,-2.9179,-2.8558,-2.7764,-2.7782,-2.8144,-2.8523,-2.8903,-2.8801,-2.8528,-2.8511,-2.8322,-2.7979,-2.7499,-2.6992,-2.689,-2.7985,-2.8609,-2.9046,-2.9517,-3.0015,-3.0072,-2.9777,-2.9723,-2.961,-2.9377,-2.9,-2.9081,-2.9114,-2.9067,-2.9035,-2.9067,-2.9075,-2.9052,-4.9509,-4.949,-4.9302,-4.8833,-4.8194,-4.78,-4.6936,-4.5848,-4.551,-4.5078,-4.4557,-4.4482,-4.4482,-4.4482,-4.4463,-4.4426,-4.4238,-4.3557,-4.3144,-4.2431,-4.1492,-4.0778,-4.0365,-4.0021,-3.9577,-3.9558,-3.9533,-3.9457,-3.9373,-3.9275,-3.863,-3.7623,-3.6891,-3.6147,-3.5182,-3.4451,-3.4253,-3.4216,-3.4216,-3.416,-3.4011,-3.4104,-3.4086,-3.3956,-3.3956,-3.39,-3.4055,-3.3704,-3.3714,-3.3703,-3.3625,-3.3375,-3.3111,-3.2923,-3.2719,-3.2456,-3.2284,-3.2161,-3.209,-3.1948,-3.1839,-3.1801,-3.18,-3.18,-3.18,-3.18,-3.18,-3.18,-3.18,-3.18,-3.18,-3.18,-3.18,-3.18,-3.18,-3.18,-3.18,-3.1748,-3.161,-3.111,-3.0144,-2.9627,-2.9299,-2.8403,-2.7539,-2.7437,-2.7782,-2.7851,-2.8213,-2.8472,-2.8388,-2.8492,-2.8407,-2.815,-2.7741,-2.7282,-2.7487,-2.834,-2.8595,-2.8766,-2.9244,-2.9739,-2.9666,-2.9585,-2.963,-2.949,-2.9341,-2.922,-2.916,-2.9114,-2.9114,-2.9114,-2.9098,-2.9075,-2.9075,-4.9509,-4.9415,-4.8664,-4.8269,-4.7947,-4.6655,-4.596,-4.5622,-4.497,-4.4613,-4.4482,-4.4482,-4.4482,-4.4407,-4.4407,-4.405,-4.3538,-4.3106,-4.2412,-4.1454,-4.0891,-4.0347,-3.9871,-3.9702,-3.9571,-3.952,-3.9495,-3.9457,-3.9373,-3.9256,-3.8407,-3.7257,-3.6798,-3.6012,-3.481,-3.4376,-3.4216,-3.4216,-3.4216,-3.39,-3.3491,-3.3881,-3.38,-3.3466,-3.3354,-3.3615,-3.4048,-3.3722,-3.3568,-3.4056,-3.3928,-3.3657,-3.3375,-3.3096,-3.2816,-3.2523,-3.2266,-3.209,-3.209,-3.1929,-3.1819,-3.18,-3.18,-3.18,-3.18,-3.18,-3.18,-3.18,-3.18,-3.18,-3.18,-3.18,-3.18,-3.18,-3.18,-3.18,-3.18,-3.1765,-3.161,-3.0938,-3.0075,-2.9661,-2.9317,-2.8247,-2.7332,-2.7333,-2.7368,-2.7454,-2.7575,-2.7885,-2.8006,-2.806,-2.8146,-2.7923,-2.7786,-2.7341,-2.7598,-2.8489,-2.8455,-2.8387,-2.8682,-2.9041,-2.9299,-2.9262,-2.9297,-2.9283,-2.9103,-2.9013,-2.908,-2.9067,-2.8988,-2.9035,-2.9082,-2.9082,-2.9028,-4.8082,-4.8044,-4.7669,-4.7218,-4.6711,-4.5979,-4.5416,-4.5007,-4.4651,-4.4482,-4.4482,-4.4482,-4.4289,-4.3951,-4.382,-4.3351,-4.2618,-4.2149,-4.1586,-4.0797,-4.0365,-3.9965,-3.969,-3.9571,-3.952,-3.9464,-3.938,-3.9296,-3.9256,-3.9112,-3.85,-3.7498,-3.6891,-3.6197,-3.4847,-3.4432,-3.4253,-3.4216,-3.4179,-3.4011,-3.3844,-3.3956,-3.403,-3.3677,-3.3658,-3.3881,-3.3993,-3.3956,-3.3819,-3.4173,-3.4011,-3.377,-3.348,-3.319,-3.2866,-3.2573,-3.2266,-3.2108,-3.2073,-3.1893,-3.1837,-3.18,-3.18,-3.18,-3.18,-3.18,-3.18,-3.18,-3.18,-3.18,-3.18,-3.18,-3.18,-3.18,-3.18,-3.18,-3.18,-3.1765,-3.1541,-3.0765,-3.0041,-2.9627,-2.9144,-2.8213,-2.7435,-2.7332,-2.7332,-2.7384,-2.7401,-2.7489,-2.7523,-2.7471,-2.7575,-2.7593,-2.7507,-2.7284,-2.7302,-2.7833,-2.7816,-2.7818,-2.7926,-2.822,-2.852,-2.8708,-2.8646,-2.8672,-2.873,-2.882,-2.8849,-2.886,-2.8846,-2.8656,-2.8514,-2.894,-2.8807,-4.6373,-4.6411,-4.6599,-4.6298,-4.5679,-4.551,-4.5078,-4.4557,-4.4501,-4.4482,-4.4426,-4.4275,-4.382,-4.3332,-4.305,-4.2524,-4.1685,-4.106,-4.0703,-4.0328,-3.9984,-3.9683,-3.9596,-3.9558,-3.9527,-3.9469,-3.9354,-3.9256,-3.9127,-3.8891,-3.8436,-3.7856,-3.7039,-3.6272,-3.5473,-3.4692,-3.4216,-3.4216,-3.4216,-3.4179,-3.416,-3.416,-3.4197,-3.4179,-3.4197,-3.4216,-3.4216,-3.4179,-3.4179,-3.4055,-3.3985,-3.3762,-3.3426,-3.3144,-3.2848,-3.2589,-3.2284,-3.2126,-3.2072,-3.1946,-3.1837,-3.18,-3.18,-3.18,-3.18,-3.18,-3.18,-3.18,-3.18,-3.18,-3.18,-3.18,-3.18,-3.18,-3.18,-3.18,-3.18,-3.1765,-3.1524,-3.0851,-3.0127,-2.9437,-2.8868,-2.8109,-2.7592,-2.7384,-2.7315,-2.7315,-2.7349,-2.7366,-2.7315,-2.7315,-2.7366,-2.742,-2.7368,-2.7315,-2.7315,-2.7315,-2.7315,-2.7287,-2.7465,-2.7604,-2.7862,-2.7975,-2.8027,-2.8169,-2.829,-2.8464,-2.857,-2.8294,-2.8028,-2.7857,-2.7883,-2.8325,-2.8435,-4.4651,-4.4726,-4.5491,-4.5735,-4.5604,-4.4876,-4.4557,-4.4482,-4.4482,-4.4444,-4.4289,-4.3782,-4.3407,-4.3031,-4.2318,-4.1648,-4.0872,-4.0816,-4.0347,-3.9908,-3.9608,-3.9608,-3.9608,-3.9571,-3.952,-3.9431,-3.9328,-3.921,-3.8956,-3.8404,-3.8111,-3.7764,-3.6872,-3.6216,-3.5436,-3.4581,-3.4234,-3.4216,-3.4216,-3.4216,-3.4216,-3.4216,-3.4216,-3.4216,-3.4216,-3.4216,-3.4216,-3.4216,-3.4148,-3.3998,-3.3895,-3.3694,-3.3324,-3.3052,-3.2784,-3.2557,-3.2318,-3.2161,-3.209,-3.1929,-3.1819,-3.18,-3.18,-3.18,-3.18,-3.18,-3.18,-3.18,-3.18,-3.18,-3.18,-3.18,-3.18,-3.18,-3.18,-3.18,-3.18,-3.18,-3.1507,-3.0903,-3.03,-2.9713,-2.9161,-2.8523,-2.773,-2.747,-2.7349,-2.7349,-2.7437,-2.7454,-2.7366,-2.7315,-2.7315,-2.7349,-2.7349,-2.7315,-2.7315,-2.7315,-2.7315,-2.7153,-2.7058,-2.7214,-2.7486,-2.7418,-2.7542,-2.7694,-2.7755,-2.7664,-2.7559,-2.7381,-2.7253,-2.7342,-2.7178,-2.7273,-2.7367,-4.4482,-4.4519,-4.4853,-4.497,-4.4946,-4.4632,-4.4482,-4.4482,-4.4482,-4.4195,-4.3764,-4.3388,-4.2712,-4.1905,-4.1492,-4.0816,-4.0153,-4.0059,-3.9833,-3.9721,-3.9608,-3.9608,-3.9608,-3.9558,-3.9482,-3.9386,-3.9296,-3.8875,-3.8297,-3.7894,-3.7559,-3.7095,-3.6365,-3.5529,-3.4785,-3.4469,-3.4271,-3.4216,-3.4216,-3.4216,-3.4216,-3.4216,-3.4216,-3.4216,-3.4216,-3.4216,-3.4216,-3.4216,-3.4167,-3.4067,-3.386,-3.3569,-3.3265,-3.299,-3.2721,-3.2506,-3.2336,-3.2214,-3.209,-3.1948,-3.1839,-3.18,-3.18,-3.18,-3.18,-3.18,-3.18,-3.18,-3.18,-3.18,-3.18,-3.18,-3.18,-3.18,-3.18,-3.18,-3.18,-3.18,-3.1593,-3.1058,-3.0644,-3.0179,-2.9644,-2.911,-2.8282,-2.7574,-2.747,-2.7418,-2.7575,-2.7592,-2.7489,-2.7332,-2.7315,-2.7315,-2.7315,-2.7315,-2.7315,-2.7315,-2.7315,-2.7169,-2.7055,-2.7154,-2.7361,-2.7199,-2.7061,-2.7154,-2.7087,-2.6759,-2.6633,-2.6651,-2.6888,-2.7146,-2.6862,-2.6409,-2.6361,-4.4482,-4.4482,-4.4482,-4.4482,-4.4482,-4.4482,-4.4482,-4.4482,-4.4482,-4.4064,-4.3257,-4.2806,-4.198,-4.0985,-4.0478,-4.0228,-3.9777,-3.9664,-3.9646,-3.9608,-3.9608,-3.9608,-3.9596,-3.9558,-3.9495,-3.9349,-3.896,-3.8465,-3.7986,-3.7448,-3.6853,-3.6216,-3.5584,-3.4897,-3.4841,-3.4309,-3.4216,-3.4216,-3.4216,-3.4216,-3.4216,-3.4216,-3.4216,-3.4216,-3.4216,-3.4216,-3.4216,-3.4216,-3.413,-3.4023,-3.386,-3.3601,-3.3262,-3.2957,-3.2672,-3.2506,-3.2371,-3.2232,-3.2108,-3.1965,-3.1839,-3.1801,-3.18,-3.18,-3.18,-3.18,-3.18,-3.18,-3.18,-3.18,-3.18,-3.18,-3.18,-3.18,-3.18,-3.18,-3.18,-3.1783,-3.1558,-3.1249,-3.0973,-3.0782,-3.0144,-2.9644,-2.9127,-2.8489,-2.8454,-2.8265,-2.8006,-2.7937,-2.766,-2.7487,-2.7315,-2.7315,-2.7315,-2.7315,-2.7315,-2.7315,-2.7315,-2.7315,-2.725,-2.7315,-2.7283,-2.721,-2.7028,-2.6775,-2.6639,-2.6573,-2.6335,-2.6072,-2.6274,-2.6414,-2.6135,-2.5697,-2.5618,-4.4482,-4.4482,-4.4482,-4.4482,-4.4482,-4.4482,-4.4482,-4.4463,-4.4388,-4.3895,-4.29,-4.168,-4.0985,-4.0572,-4.0059,-3.9758,-3.9664,-3.9608,-3.9608,-3.9608,-3.9608,-3.9608,-3.9608,-3.9583,-3.952,-3.9206,-3.8837,-3.8398,-3.7777,-3.6773,-3.5993,-3.5398,-3.4866,-3.4643,-3.5268,-3.4599,-3.4234,-3.4216,-3.4216,-3.4216,-3.4216,-3.4216,-3.4216,-3.4216,-3.4216,-3.4216,-3.4216,-3.4216,-3.4148,-3.4011,-3.3939,-3.3652,-3.3262,-3.3065,-3.285,-3.2623,-3.2491,-3.2319,-3.2108,-3.1911,-3.1819,-3.1801,-3.18,-3.18,-3.18,-3.18,-3.18,-3.18,-3.18,-3.18,-3.18,-3.18,-3.18,-3.18,-3.18,-3.18,-3.18,-3.18,-3.1593,-3.1508,-3.1594,-3.149,-3.0765,-3.0162,-2.9834,-2.9541,-2.9489,-2.9213,-2.8799,-2.8247,-2.7953,-2.7696,-2.7505,-2.7315,-2.7315,-2.7315,-2.7315,-2.7315,-2.7315,-2.7315,-2.7315,-2.7315,-2.7283,-2.7202,-2.7023,-2.6758,-2.6657,-2.6538,-2.6318,-2.608,-2.5493,-2.5401,-2.5187,-2.5144,-2.5175,-4.4482,-4.4482,-4.4482,-4.4482,-4.4482,-4.4482,-4.4482,-4.4402,-4.3895,-4.2938,-4.1755,-4.0929,-4.044,-4.0027,-3.9833,-3.9608,-3.9608,-3.9608,-3.9608,-3.9608,-3.9608,-3.9608,-3.9608,-3.9596,-3.954,-3.9407,-3.8969,-3.8046,-3.7136,-3.6229,-3.5473,-3.4829,-3.4569,-3.4395,-3.4525,-3.4271,-3.4216,-3.4216,-3.4216,-3.4216,-3.4216,-3.4216,-3.4216,-3.4216,-3.4216,-3.4216,-3.4216,-3.4216,-3.4148,-3.4074,-3.3998,-3.3788,-3.348,-3.3306,-3.3068,-3.2912,-3.2786,-3.2422,-3.2197,-3.2001,-3.1856,-3.1837,-3.18,-3.18,-3.18,-3.18,-3.18,-3.18,-3.18,-3.18,-3.18,-3.18,-3.18,-3.18,-3.18,-3.18,-3.18,-3.18,-3.1731,-3.1714,-3.1748,-3.1748,-3.13,-3.0955,-3.0627,-3.0334,-3.0248,-3.0144,-2.9817,-2.885,-2.8247,-2.7989,-2.7764,-2.747,-2.7332,-2.7366,-2.7349,-2.7315,-2.7315,-2.7315,-2.7315,-2.7315,-2.7202,-2.7087,-2.694,-2.6774,-2.6775,-2.6691,-2.6453,-2.6101,-2.5721,-2.5343,-2.5275,-2.519,-2.5049,-4.4482,-4.4482,-4.4482,-4.4332,-4.4163,-4.4369,-4.4369,-4.3933,-4.2938,-4.1773,-4.0929,-4.0534,-4.0134,-3.9721,-3.9608,-3.9608,-3.9608,-3.9608,-3.9608,-3.9608,-3.9608,-3.9608,-3.9608,-3.957,-3.9296,-3.9158,-3.8552,-3.7685,-3.6379,-3.5981,-3.5454,-3.494,-3.4643,-3.4785,-3.468,-3.4525,-3.4216,-3.4216,-3.4216,-3.4216,-3.4216,-3.4216,-3.4216,-3.4216,-3.4216,-3.4216,-3.4216,-3.4216,-3.4216,-3.4161,-3.4074,-3.3947,-3.3762,-3.3583,-3.3335,-3.3232,-3.291,-3.2505,-3.2214,-3.2002,-3.1875,-3.1801,-3.18,-3.18,-3.18,-3.18,-3.18,-3.18,-3.18,-3.18,-3.18,-3.18,-3.18,-3.18,-3.18,-3.18,-3.18,-3.18,-3.18,-3.18,-3.18,-3.18,-3.18,-3.1748,-3.1489,-3.1231,-3.0989,-3.0834,-3.0679,-2.9765,-2.8851,-2.8575,-2.823,-2.7902,-2.7643,-2.7453,-2.7418,-2.7332,-2.7315,-2.7315,-2.7315,-2.7299,-2.7153,-2.7039,-2.7039,-2.7039,-2.6989,-2.6875,-2.6725,-2.6521,-2.6228,-2.587,-2.5516,-2.5362,-2.5227,-4.4444,-4.4463,-4.4482,-4.4045,-4.3501,-4.3919,-4.3801,-4.3069,-4.1548,-4.0854,-4.0666,-3.9946,-3.9664,-3.9627,-3.9608,-3.9608,-3.9608,-3.9608,-3.9608,-3.9608,-3.9608,-3.9608,-3.9608,-3.9589,-3.9158,-3.829,-3.7648,-3.7187,-3.5702,-3.5293,-3.5126,-3.5287,-3.5268,-3.5157,-3.4915,-3.4562,-3.4234,-3.4216,-3.4216,-3.4216,-3.4216,-3.4216,-3.4216,-3.4216,-3.4216,-3.4216,-3.4216,-3.4216,-3.4216,-3.4185,-3.4191,-3.4074,-3.3959,-3.386,-3.3648,-3.3346,-3.2923,-3.2587,-3.2249,-3.202,-3.1875,-3.1819,-3.18,-3.18,-3.18,-3.18,-3.18,-3.18,-3.18,-3.18,-3.18,-3.18,-3.18,-3.18,-3.18,-3.18,-3.18,-3.18,-3.18,-3.18,-3.18,-3.18,-3.18,-3.18,-3.18,-3.1662,-3.1386,-3.1265,-3.1059,-3.0697,-2.9886,-2.9403,-2.8989,-2.842,-2.8092,-2.7677,-2.7418,-2.7315,-2.7315,-2.7315,-2.7315,-2.7315,-2.7234,-2.7202,-2.7267,-2.725,-2.7169,-2.7137,-2.7087,-2.6875,-2.659,-2.6209,-2.5795,-2.5742,-2.5649,-4.3651,-4.3688,-4.4271,-4.4045,-4.32,-4.2262,-4.1736,-4.1417,-4.0929,-4.0516,-3.9927,-3.9721,-3.9608,-3.9608,-3.9608,-3.9608,-3.9608,-3.9608,-3.9608,-3.9608,-3.9608,-3.9608,-3.957,-3.9458,-3.8983,-3.8395,-3.7679,-3.6832,-3.5863,-3.5113,-3.5107,-3.5473,-3.551,-3.5213,-3.4785,-3.4327,-3.4253,-3.4216,-3.4216,-3.4216,-3.4216,-3.4216,-3.4216,-3.4216,-3.4216,-3.4216,-3.4216,-3.4216,-3.4216,-3.4216,-3.4216,-3.4148,-3.4124,-3.3947,-3.3716,-3.3291,-3.3006,-3.2736,-3.2335,-3.2126,-3.1983,-3.1838,-3.18,-3.18,-3.18,-3.18,-3.18,-3.18,-3.18,-3.18,-3.18,-3.18,-3.18,-3.18,-3.18,-3.18,-3.18,-3.18,-3.18,-3.18,-3.18,-3.18,-3.18,-3.18,-3.18,-3.18,-3.1748,-3.1593,-3.142,-3.1076,-3.08,-3.03,-2.9403,-2.8747,-2.823,-2.7815,-2.7522,-2.7315,-2.7315,-2.7315,-2.7315,-2.7315,-2.7315,-2.7315,-2.7315,-2.7315,-2.7299,-2.725,-2.7218,-2.7137,-2.6891,-2.6487,-2.6155,-2.6067,-2.587,-4.2806,-4.2862,-4.3299,-4.305,-4.2149,-4.0904,-4.0322,-4.0328,-4.034,-4.0021,-3.9646,-3.9608,-3.9608,-3.9608,-3.9608,-3.9608,-3.9608,-3.9608,-3.9608,-3.9608,-3.9552,-3.9308,-3.9232,-3.8988,-3.8263,-3.777,-3.7134,-3.6295,-3.5588,-3.5529,-3.5566,-3.5993,-3.5751,-3.5231,-3.481,-3.4476,-3.4234,-3.4216,-3.4216,-3.4216,-3.4216,-3.4216,-3.4216,-3.4216,-3.4216,-3.4216,-3.4216,-3.4216,-3.4216,-3.4216,-3.4216,-3.4216,-3.4161,-3.3998,-3.3648,-3.328,-3.3052,-3.2753,-3.2422,-3.2197,-3.2037,-3.1893,-3.1838,-3.1819,-3.1818,-3.18,-3.18,-3.18,-3.18,-3.18,-3.18,-3.18,-3.18,-3.18,-3.18,-3.18,-3.18,-3.18,-3.18,-3.18,-3.18,-3.18,-3.18,-3.18,-3.18,-3.18,-3.18,-3.1748,-3.1645,-3.149,-3.137,-3.1128,-2.9972,-2.8937,-2.8506,-2.8109,-2.7678,-2.7437,-2.7315,-2.7315,-2.7332,-2.7349,-2.7366,-2.7349,-2.7315,-2.7315,-2.7315,-2.7315,-2.7283,-2.7202,-2.7104,-2.6808,-2.647,-2.6243,-2.5994,-4.1929,-4.1892,-4.1929,-4.1573,-4.0741,-4.0002,-3.9664,-3.9608,-3.9683,-3.9608,-3.9608,-3.9608,-3.9608,-3.9608,-3.9608,-3.9608,-3.9608,-3.9608,-3.9608,-3.957,-3.9326,-3.9014,-3.8601,-3.8188,-3.7493,-3.6437,-3.5859,-3.5888,-3.514,-3.5193,-3.5807,-3.6551,-3.5882,-3.5306,-3.4934,-3.4476,-3.4216,-3.4216,-3.4216,-3.4216,-3.4216,-3.4216,-3.4216,-3.4216,-3.4216,-3.4216,-3.4216,-3.4216,-3.4216,-3.4216,-3.4216,-3.4216,-3.4086,-3.3921,-3.3536,-3.3217,-3.2975,-3.2705,-3.2456,-3.2267,-3.2091,-3.1948,-3.1894,-3.1839,-3.1819,-3.18,-3.18,-3.18,-3.18,-3.18,-3.18,-3.18,-3.18,-3.18,-3.18,-3.18,-3.18,-3.18,-3.18,-3.18,-3.18,-3.18,-3.18,-3.18,-3.18,-3.18,-3.18,-3.18,-3.1765,-3.1696,-3.1697,-3.161,-3.0506,-2.9472,-2.9265,-2.8782,-2.7972,-2.7627,-2.7609,-2.7764,-2.8092,-2.7833,-2.7402,-2.7366,-2.7315,-2.7315,-2.7315,-2.7315,-2.7299,-2.725,-2.7169,-2.7071,-2.6808,-2.6453,-2.6137,-4.1098,-4.1098,-4.1079,-4.0966,-4.0685,-3.9946,-3.9608,-3.9608,-3.9608,-3.9608,-3.9608,-3.9608,-3.9608,-3.9608,-3.9608,-3.9608,-3.9608,-3.9608,-3.9608,-3.9345,-3.9063,-3.8601,-3.8131,-3.7587,-3.681,-3.6235,-3.5807,-3.5611,-3.5376,-3.5454,-3.5529,-3.577,-3.5436,-3.5175,-3.4661,-3.4234,-3.4216,-3.4216,-3.4216,-3.4216,-3.4216,-3.4216,-3.4216,-3.4216,-3.4216,-3.4216,-3.4216,-3.4216,-3.4216,-3.4216,-3.4216,-3.4124,-3.3972,-3.3684,-3.3408,-3.3099,-3.2866,-3.264,-3.249,-3.2319,-3.2144,-3.2002,-3.1894,-3.1857,-3.1819,-3.1818,-3.18,-3.18,-3.18,-3.18,-3.18,-3.18,-3.18,-3.18,-3.18,-3.18,-3.18,-3.18,-3.18,-3.18,-3.18,-3.18,-3.18,-3.18,-3.18,-3.18,-3.18,-3.18,-3.18,-3.1765,-3.1748,-3.1576,-3.0815,-3.0057,-2.9885,-2.9523,-2.873,-2.8506,-2.8558,-2.8713,-2.8782,-2.8334,-2.7816,-2.747,-2.7315,-2.7315,-2.7315,-2.7315,-2.7299,-2.7266,-2.7169,-2.7055,-2.6875,-2.6573,-2.6295,-4.0265,-4.0265,-4.0284,-4.0253,-4.019,-3.9777,-3.9608,-3.9608,-3.9608,-3.9608,-3.9608,-3.9608,-3.9608,-3.9608,-3.9608,-3.9608,-3.9608,-3.9608,-3.9608,-3.9345,-3.8688,-3.815,-3.7606,-3.693,-3.6085,-3.5522,-3.5357,-3.5263,-3.5506,-3.5162,-3.4989,-3.5306,-3.5213,-3.4736,-3.4216,-3.4216,-3.4216,-3.4216,-3.4216,-3.4216,-3.4216,-3.4216,-3.4216,-3.4216,-3.4216,-3.4216,-3.4216,-3.4216,-3.4216,-3.4216,-3.4216,-3.4086,-3.3928,-3.377,-3.3536,-3.3247,-3.299,-3.2705,-3.2573,-3.2439,-3.2266,-3.2126,-3.2002,-3.1983,-3.1857,-3.182,-3.18,-3.18,-3.18,-3.18,-3.18,-3.18,-3.18,-3.18,-3.18,-3.18,-3.18,-3.18,-3.18,-3.18,-3.18,-3.18,-3.18,-3.18,-3.18,-3.18,-3.18,-3.18,-3.18,-3.18,-3.18,-3.1645,-3.0952,-3.0557,-3.0386,-3.0024,-2.9523,-2.9437,-2.9489,-2.8782,-2.8385,-2.842,-2.8213,-2.7746,-2.7401,-2.7315,-2.7315,-2.7315,-2.7315,-2.7299,-2.7186,-2.7039,-2.6858,-2.6725,-2.6521,-3.9627,-3.9608,-3.9627,-3.9627,-3.9608,-3.9608,-3.9608,-3.9608,-3.9608,-3.9608,-3.9608,-3.9608,-3.9608,-3.9608,-3.9608,-3.9608,-3.9608,-3.9608,-3.9608,-3.912,-3.8432,-3.7643,-3.6836,-3.6104,-3.539,-3.4947,-3.4764,-3.5015,-3.532,-3.4857,-3.4704,-3.5064,-3.4754,-3.4216,-3.4216,-3.4216,-3.4216,-3.4216,-3.4216,-3.4216,-3.4216,-3.4216,-3.4216,-3.4216,-3.4216,-3.4216,-3.4216,-3.4216,-3.4216,-3.4216,-3.4204,-3.4074,-3.3959,-3.3829,-3.3616,-3.3375,-3.3187,-3.3003,-3.2894,-3.2752,-3.2538,-3.2353,-3.2232,-3.2108,-3.1966,-3.1857,-3.1837,-3.18,-3.18,-3.18,-3.18,-3.18,-3.18,-3.18,-3.18,-3.18,-3.18,-3.18,-3.18,-3.18,-3.18,-3.18,-3.18,-3.18,-3.18,-3.18,-3.18,-3.18,-3.18,-3.18,-3.18,-3.1679,-3.1282,-3.0989,-3.0904,-3.0645,-3.03,-3.03,-3.0144,-2.892,-2.8161,-2.8627,-2.8575,-2.7815,-2.7539,-2.7401,-2.7332,-2.7315,-2.7315,-2.7315,-2.7251,-2.7137,-2.7071,-2.6941,-2.6809,-3.9608,-3.9608,-3.9608,-3.9608,-3.9608,-3.9608,-3.9608,-3.9608,-3.9608,-3.9608,-3.9608,-3.9608,-3.9608,-3.9608,-3.9608,-3.9608,-3.9608,-3.9608,-3.9063,-3.8488,-3.7906,-3.7024,-3.6216,-3.5597,-3.4913,-3.4628,-3.4547,-3.4585,-3.4883,-3.4552,-3.4313,-3.4488,-3.4476,-3.4216,-3.4216,-3.4216,-3.4216,-3.4216,-3.4216,-3.4216,-3.4216,-3.4216,-3.4216,-3.4216,-3.4216,-3.4216,-3.4216,-3.4216,-3.4216,-3.4216,-3.4185,-3.4086,-3.3998,-3.3895,-3.373,-3.3588,-3.339,-3.3306,-3.3187,-3.3096,-3.2892,-3.2668,-3.2537,-3.2336,-3.2144,-3.1874,-3.1855,-3.18,-3.18,-3.18,-3.18,-3.18,-3.18,-3.18,-3.18,-3.18,-3.18,-3.18,-3.18,-3.18,-3.18,-3.18,-3.18,-3.18,-3.18,-3.18,-3.18,-3.18,-3.18,-3.18,-3.18,-3.1662,-3.1488,-3.161,-3.1593,-3.1455,-3.1214,-3.1179,-3.0938,-2.9972,-2.9403,-2.9368,-2.9075,-2.8178,-2.7644,-2.7402,-2.7366,-2.7315,-2.7315,-2.7315,-2.7315,-2.7267,-2.7185,-2.7121,-2.6975]},{"header":{"parameterUnit":"m.s-1","parameterCategory":1,"la1":31.0,"la2":29.5877,"lo1":-88.7671,"lo2":-86.6584,"dy":0.0162,"dx":0.0185,"nx":115,"ny":88,"refTime":"2026-04-16T00:00:00:Z","depth":0,"parameterNumber":3,"parameterNumberName":"V-component_of_WINDS"},"data":[0.0,0.0,0.0,0.0,0.0,0.0,0.0,0.0,0.0,0.0,0.0,0.0,0.0,0.0,0.0,0.0,0.0,0.0,0.0,0.0,0.0,0.0,0.0,0.0,0.0,0.0,0.0,0.0,0.0,0.0,0.0,0.0,0.0,0.0,0.0,0.0,0.0,0.0,0.0,0.0,0.0,0.0,0.0,0.0,0.0,0.0,0.0,0.0,0.0,0.0,0.0,0.0,0.0,0.0,0.0,0.0,0.0,0.0,0.0,0.0,0.0,0.0,0.0,0.0,0.0,0.0,0.0,0.0,0.0,0.0,0.0,0.0,0.0,0.0,0.0,0.0,0.0,0.0,0.0,0.0,0.0,0.0,0.0,0.0,0.0,0.0,0.0,0.0,0.0,0.0,0.0,0.0,0.0,0.0,0.0,0.0,0.0,0.0,0.0,0.0,0.0,0.0,0.0,0.0,0.0,0.0,0.0,0.0,0.0,0.0,0.0,0.0,0.0,0.0,0.0,0.0,0.0,0.0,0.0,0.0,0.0,0.0,0.0,0.0,0.0,0.0,0.0,0.0,0.0,0.0,0.0,0.0,0.0,0.0,0.0,0.0,0.0,0.0,0.0,0.0,0.0,0.0,0.0,0.0,0.0,0.0,0.0,0.0,0.0,0.0,0.0,0.0,0.0,0.0,0.0,0.0,0.0,0.0,0.0,0.0,0.0,0.0,0.0,0.0,0.0,0.0,0.0,0.0,0.0,0.0,0.0,0.0,0.0,0.0,0.0,0.0,0.0,0.0,0.0,0.0,0.0,0.0,0.0,0.0,0.0,0.0,0.0,0.0,0.0,0.0,0.0,0.0,0.0,0.0,0.0,0.0,0.0,0.0,0.0,0.0,0.0,0.0,0.0,0.0,0.0,0.0,0.0,0.0,0.0,0.0,0.0,0.0,0.0,0.0,0.0,0.0,0.0,0.0,0.0,0.0,0.0,0.0,0.0,0.0,0.0,0.0,0.0,0.0,0.0,0.0,0.0,0.0,0.0,0.0,0.0,0.0,0.0,0.0,0.0,0.0,0.0,0.0,0.0,0.0,0.0,0.0,0.0,0.0,0.0,0.0,0.0,0.0,0.0,0.0,0.0,0.0,0.0,0.0,0.0,0.0,0.0,0.0,0.0,0.0,0.0,0.0,0.0,0.0,0.0,0.0,0.0,0.0,0.0,0.0,0.0,0.0,0.0,0.0,0.0,0.0,0.0,0.0,0.0,0.0,0.0,0.0,0.0,0.0,0.0,0.0,0.0,0.0,0.0,0.0,0.0,0.0,0.0,0.0,0.0,0.0,0.0,0.0,0.0,0.0,0.0,0.0,0.0,0.0,0.0,0.0,0.0,0.0,0.0,0.0,0.0,0.0,0.0,0.0,0.0,0.0,0.0,0.0,0.0,0.0,0.0,0.0,0.0,0.0,0.0,0.0,0.0,0.0,0.0,0.0,0.0,0.0,0.0,0.0,0.0,0.0,0.0,0.0,0.0,0.0,0.0,0.0,0.0,0.0,0.0,0.0,0.0,0.0,0.0,0.0,0.0,0.0,0.0,0.0,0.0,0.0,0.0,0.0,0.0,0.0,0.0,0.0,0.0,0.0,0.0,0.0,0.0,0.0,0.0,0.0,0.0,0.0,0.0,0.0,0.0,0.0,0.0,0.0,0.0,0.0,0.0,0.0,0.0,0.0,0.0,0.0,0.0,0.0,0.0,0.0,0.0,0.0,0.0,0.0,0.0,0.0,0.0,0.0,0.0,0.0,0.0,0.0,0.0,0.0,0.0,0.0,0.0,0.0,0.0,0.0,0.0,0.0,0.0,0.0,0.0,0.0,0.0,0.0,0.0,0.0,0.0,0.0,0.0,0.0,0.0,0.0,0.0,0.0,0.0,0.0,0.0,0.0,0.0,0.0,0.0,0.0,0.0,0.0,0.0,0.0,0.0,0.0,0.0,0.0,0.0,0.0,0.0,0.0,0.0,0.0,0.0,0.0,0.0,0.0,0.0,0.0,0.0,0.0,0.0,0.0,0.0,0.0,0.0,0.0,0.0,0.0,0.0,0.0,0.0,0.0,0.0,0.0,0.0,0.0,0.0,0.0,0.0,0.0,0.0,0.0,0.0,0.0,0.0,0.0,0.0,0.0,0.0,0.0,0.0,0.0,0.0,0.0,0.0,0.0,0.0,0.0,0.0,0.0,0.0,0.0,0.0,0.0,0.0,0.0,0.0,0.0,0.0,0.0,0.0,0.0,0.0,0.0,0.0,0.0,0.0,0.0,0.0,0.0,0.0,0.0,0.0,0.0,0.0,0.0,0.0,0.0,0.0,0.0,0.0,0.0,0.0,0.0,0.0,0.0,0.0,0.0,0.0,0.0,0.0,0.0,0.0,0.0,0.0,0.0,0.0,0.0,0.0,0.0,0.0,0.0,0.0,0.0,0.0,0.0,0.0,0.0,0.0,0.0,0.0,0.0,0.0,0.0,0.0,0.0,0.0,0.0,0.0,0.0,0.0,0.0,0.0,0.0,0.0,0.0,0.0,0.0,0.0,0.0,0.0,0.0,0.0,0.0,0.0,0.0,0.0,0.0,0.0,0.0,0.0,0.0,0.0,0.0,0.0,0.0,0.0,0.0,0.0,0.0,0.0,0.0,0.0,0.0,0.0,0.0,0.0,0.0,0.0,0.0,0.0,0.0,0.0,0.0,0.0,0.0,0.0,0.0,0.0,0.0,0.0,0.0,0.0,0.0,0.0,0.0,0.0,0.0,0.0,0.0,0.0,0.0,0.0,0.0,0.0,0.0,0.0,0.0,0.0,0.0,0.0,0.0,0.0,0.0,0.0,0.0,0.0,0.0,0.0,0.0,0.0,0.0,0.0,0.0,0.0,0.0,0.0,0.0,0.0,0.0,0.0,0.0,0.0,0.0,0.0,0.0,0.0,0.0,0.0,0.0,0.0,0.0,0.0,0.0,0.0,0.0,0.0,0.0,0.0,0.0,0.0,0.0,0.0,0.0,0.0,0.0,0.0,0.0,0.0,0.0,0.0,0.0,0.0,0.0,0.0,0.0,0.0,0.0,0.0,0.0,0.0,0.0,0.0,0.0,0.0,0.0,0.0,0.0,0.0,0.0,0.0,0.0,0.0,0.0,0.0,0.0,0.0,0.0,0.0,0.0,0.0,0.0,0.0,0.0,0.0,0.0,0.0,0.0,0.0,0.0,0.0,0.0,0.0,0.0,0.0,0.0,0.0,0.0,0.0,0.0,0.0,0.0,0.0,0.0,0.0,0.0,0.0,0.0,0.0,0.0,0.0,0.0,0.0,0.0,0.0,0.0,0.0,0.0,0.0,0.0,0.0,0.0,0.0,0.0,0.0,0.0,0.0,0.0,0.0,0.0,0.0,0.0,0.0,0.0,0.0,0.0,0.0,0.0,0.0,0.0,0.0,0.0,0.0,0.0,0.0,0.0,0.0,0.0,0.0,0.0,0.0,0.0,0.0,0.0,0.0,0.0,0.0,0.0,0.0,0.0,0.0,0.0,0.0,0.0,0.0,0.0,0.0,0.0,0.0,0.0,0.0,0.0,0.0,0.0,0.0,0.0,0.0,0.0,0.0,0.0,0.0,0.0,0.0,0.0,0.0,0.0,0.0,0.0,0.0,0.0,0.0,0.0,0.0,0.0,0.0,0.0,0.0,0.0,0.0,0.0,0.0,0.0,0.0,0.0,0.0,0.0,0.0,0.0,0.0,0.0,0.0,0.0,0.0,0.0,0.0,0.0,0.0,0.0,0.0,0.0,0.0,0.0,0.0,0.0,0.0,0.0,0.0,0.0,0.0,0.0,0.0,0.0,0.0,0.0,0.0,0.0,0.0,0.0,0.0,0.0,0.0,0.0,0.0,0.0,0.0,0.0,0.0,0.0,0.0,0.0,0.0,0.0,0.0,0.0,0.0,0.0,0.0,0.0,0.0,0.0,0.0,0.0,0.0,0.0,0.0,0.0,0.0,0.0,0.0,0.0,0.0,0.0,0.0,0.0,0.0,0.0,0.0,0.0,0.0,0.0,0.0,0.0,0.0,0.0,0.0,0.0,0.0,0.0,0.0,0.0,0.0,0.0,0.0,0.0,0.0,0.0,0.0,0.0,0.0,0.0,0.0,0.0,0.0,0.0,0.0,0.0,0.0,0.0,0.0,0.0,0.0,0.0,0.0,0.0,0.0,0.0,0.0,0.0,0.0,0.0,0.0,0.0,0.0,0.0,-1.294,0.0,0.0,0.0,0.0,0.0,0.0,0.0,0.0,0.0,0.0,0.0,0.0,0.0,0.0,0.0,0.0,0.0,0.0,0.0,0.0,0.0,0.0,0.0,0.0,0.0,0.0,0.0,0.0,0.0,0.0,0.0,0.0,0.0,0.0,0.0,0.0,0.0,0.0,0.0,0.0,0.0,0.0,0.0,0.0,0.0,0.0,0.0,0.0,0.0,0.0,0.0,0.0,0.0,0.0,0.0,0.0,0.0,0.0,0.0,0.0,0.0,0.0,0.0,0.0,0.0,0.0,0.0,0.0,0.0,0.0,0.0,0.0,0.0,0.0,0.0,0.0,0.0,0.0,0.0,0.0,0.0,0.0,0.0,0.0,0.0,0.0,0.0,0.0,0.0,0.0,0.0,0.0,0.0,0.0,0.0,0.0,0.0,0.0,0.0,0.0,0.0,0.0,0.0,0.0,0.0,0.0,0.0,0.0,0.0,0.0,-1.348,-1.348,-1.348,-1.3275,-1.2785,0.0,0.0,0.0,0.0,0.0,0.0,0.0,0.0,0.0,0.0,0.0,0.0,0.0,0.0,0.0,0.0,0.0,0.0,0.0,0.0,0.0,0.0,0.0,0.0,0.0,0.0,0.0,0.0,0.0,0.0,0.0,0.0,0.0,0.0,0.0,0.0,0.0,0.0,0.0,0.0,0.0,0.0,0.0,0.0,0.0,0.0,0.0,0.0,0.0,0.0,0.0,0.0,0.0,0.0,0.0,0.0,0.0,0.0,0.0,0.0,0.0,0.0,0.0,0.0,0.0,0.0,0.0,0.0,0.0,0.0,0.0,0.0,0.0,0.0,0.0,0.0,0.0,0.0,0.0,0.0,0.0,0.0,0.0,0.0,0.0,0.0,0.0,0.0,0.0,0.0,0.0,0.0,0.0,0.0,0.0,0.0,0.0,0.0,0.0,0.0,0.0,0.0,0.0,0.0,0.0,0.0,0.0,0.0,0.0,0.0,0.0,0.0,-1.37,-1.3436,-1.2842,0.0,0.0,0.0,0.0,0.0,0.0,0.0,0.0,0.0,0.0,0.0,0.0,0.0,0.0,0.0,0.0,0.0,0.0,0.0,0.0,0.0,0.0,0.0,0.0,0.0,0.0,0.0,0.0,0.0,0.0,0.0,0.0,0.0,0.0,0.0,0.0,0.0,0.0,0.0,0.0,0.0,0.0,0.0,0.0,0.0,0.0,0.0,0.0,0.0,0.0,0.0,0.0,0.0,0.0,0.0,0.0,0.0,0.0,0.0,0.0,0.0,0.0,0.0,0.0,0.0,0.0,0.0,0.0,0.0,0.0,0.0,0.0,0.0,0.0,0.0,0.0,0.0,0.0,0.0,0.0,0.0,0.0,0.0,0.0,0.0,0.0,0.0,0.0,0.0,0.0,0.0,0.0,0.0,0.0,0.0,0.0,0.0,0.0,0.0,0.0,0.0,0.0,0.0,0.0,0.0,0.0,0.0,0.0,0.0,0.0,-1.3743,-1.4221,-1.427,0.0,-1.3541,0.0,0.0,0.0,0.0,0.0,0.0,0.0,0.0,0.0,0.0,0.0,0.0,0.0,0.0,0.0,0.0,0.0,0.0,0.0,0.0,0.0,0.0,0.0,0.0,0.0,0.0,0.0,0.0,0.0,0.0,0.0,0.0,0.0,0.0,0.0,0.0,0.0,0.0,0.0,0.0,0.0,0.0,0.0,0.0,0.0,0.0,0.0,0.0,0.0,0.0,0.0,0.0,0.0,0.0,0.0,0.0,0.0,0.0,0.0,0.0,0.0,0.0,0.0,0.0,0.0,0.0,0.0,0.0,0.0,0.0,0.0,0.0,0.0,0.0,0.0,0.0,0.0,0.0,0.0,0.0,0.0,0.0,0.0,0.0,0.0,0.0,0.0,0.0,0.0,0.0,0.0,0.0,0.0,0.0,0.0,0.0,0.0,0.0,0.0,0.0,0.0,0.0,0.0,0.0,0.0,0.0,0.0,0.0,0.0,0.0,0.0,-1.4484,-1.4104,-1.3832,0.0,0.0,0.0,0.0,0.0,0.0,0.0,0.0,0.0,0.0,0.0,0.0,0.0,0.0,0.0,0.0,0.0,0.0,0.0,0.0,0.0,0.0,0.0,0.0,0.0,0.0,0.0,0.0,0.0,0.0,0.0,0.0,0.0,0.0,0.0,0.0,0.0,0.0,0.0,0.0,0.0,0.0,0.0,0.0,0.0,0.0,0.0,0.0,0.0,0.0,0.0,0.0,0.0,0.0,0.0,0.0,0.0,0.0,0.0,0.0,0.0,0.0,0.0,0.0,0.0,0.0,0.0,0.0,0.0,0.0,0.0,0.0,0.0,0.0,0.0,0.0,0.0,0.0,0.0,0.0,0.0,0.0,0.0,0.0,0.0,0.0,0.0,0.0,0.0,0.0,0.0,0.0,0.0,0.0,0.0,0.0,0.0,0.0,0.0,0.0,0.0,0.0,0.0,0.0,0.0,0.0,0.0,0.0,0.0,0.0,-1.4175,0.0,-1.4591,-1.4186,-1.3816,-1.3548,0.0,0.0,0.0,0.0,0.0,0.0,0.0,0.0,0.0,0.0,0.0,0.0,0.0,0.0,0.0,0.0,0.0,0.0,0.0,0.0,0.0,0.0,0.0,0.0,0.0,0.0,0.0,0.0,0.0,0.0,0.0,0.0,0.0,0.0,0.0,0.0,0.0,0.0,0.0,0.0,0.0,0.0,0.0,0.0,0.0,0.0,0.0,0.0,0.0,0.0,0.0,0.0,0.0,0.0,0.0,0.0,0.0,0.0,0.0,0.0,0.0,0.0,0.0,0.0,0.0,0.0,0.0,0.0,0.0,0.0,0.0,0.0,0.0,0.0,0.0,0.0,0.0,0.0,0.0,0.0,0.0,0.0,0.0,0.0,0.0,0.0,0.0,0.0,0.0,0.0,0.0,0.0,0.0,0.0,0.0,0.0,0.0,0.0,0.0,0.0,0.0,0.0,0.0,0.0,0.0,0.0,0.0,0.0,0.0,-1.38,-1.3869,-1.4573,-1.4724,-1.4348,0.0,0.0,0.0,0.0,0.0,0.0,0.0,0.0,0.0,0.0,0.0,0.0,0.0,0.0,0.0,0.0,0.0,0.0,0.0,0.0,0.0,0.0,0.0,0.0,0.0,0.0,0.0,0.0,0.0,0.0,0.0,0.0,0.0,0.0,0.0,0.0,0.0,0.0,0.0,0.0,0.0,0.0,0.0,0.0,0.0,0.0,0.0,0.0,0.0,0.0,0.0,0.0,0.0,0.0,0.0,0.0,0.0,0.0,0.0,0.0,0.0,0.0,0.0,0.0,0.0,0.0,0.0,0.0,0.0,0.0,0.0,0.0,0.0,0.0,0.0,0.0,0.0,0.0,0.0,0.0,0.0,0.0,0.0,0.0,0.0,0.0,0.0,0.0,0.0,0.0,0.0,0.0,0.0,0.0,0.0,0.0,0.0,0.0,0.0,0.0,0.0,0.0,0.0,0.0,0.0,0.0,0.0,0.0,0.0,-1.3203,-1.3392,-1.4063,-1.5079,-1.4258,-1.3741,0.0,0.0,0.0,0.0,0.0,0.0,0.0,0.0,0.0,0.0,0.0,0.0,0.0,0.0,0.0,0.0,0.0,0.0,0.0,0.0,0.0,0.0,0.0,0.0,0.0,0.0,0.0,0.0,0.0,0.0,0.0,0.0,0.0,0.0,0.0,0.0,0.0,0.0,0.0,0.0,0.0,0.0,0.0,0.0,0.0,0.0,0.0,0.0,0.0,0.0,0.0,0.0,0.0,0.0,0.0,0.0,0.0,0.0,0.0,0.0,0.0,0.0,0.0,0.0,0.0,0.0,0.0,0.0,0.0,0.0,0.0,0.0,0.0,0.0,0.0,0.0,0.0,0.0,0.0,0.0,0.0,0.0,0.0,0.0,0.0,0.0,0.0,0.0,0.0,0.0,0.0,0.0,0.0,0.0,0.0,0.0,0.0,0.0,0.0,0.0,0.0,0.0,0.0,0.0,0.0,0.0,0.0,0.0,0.0,-1.3044,0.0,-1.4371,0.0,-1.4053,-1.345,0.0,0.0,0.0,0.0,0.0,0.0,0.0,0.0,0.0,0.0,0.0,0.0,0.0,0.0,0.0,0.0,0.0,0.0,0.0,0.0,0.0,0.0,0.0,0.0,0.0,0.0,0.0,0.0,0.0,0.0,0.0,0.0,0.0,0.0,0.0,0.0,0.0,0.0,0.0,0.0,0.0,0.0,0.0,0.0,0.0,0.0,0.0,0.0,0.0,0.0,0.0,0.0,0.0,0.0,0.0,0.0,0.0,0.0,0.0,0.0,0.0,0.0,0.0,0.0,0.0,0.0,0.0,0.0,0.0,0.0,0.0,0.0,0.0,0.0,0.0,0.0,0.0,0.0,0.0,0.0,0.0,0.0,0.0,0.0,0.0,0.0,0.0,0.0,0.0,0.0,0.0,0.0,0.0,0.0,0.0,0.0,0.0,0.0,0.0,0.0,0.0,0.0,0.0,0.0,0.0,0.0,0.0,0.0,-1.2449,-1.39,-1.471,-1.4827,-1.4261,-1.424,-1.3586,0.0,0.0,0.0,0.0,0.0,0.0,0.0,0.0,0.0,0.0,0.0,0.0,0.0,0.0,0.0,0.0,0.0,0.0,0.0,0.0,0.0,0.0,0.0,0.0,0.0,0.0,0.0,0.0,0.0,0.0,0.0,0.0,0.0,0.0,0.0,0.0,0.0,0.0,0.0,0.0,0.0,0.0,0.0,0.0,0.0,0.0,0.0,0.0,0.0,0.0,0.0,0.0,0.0,0.0,0.0,0.0,0.0,0.0,0.0,0.0,0.0,0.0,0.0,0.0,0.0,0.0,0.0,0.0,0.0,0.0,0.0,0.0,0.0,0.0,0.0,0.0,0.0,0.0,0.0,0.0,0.0,0.0,0.0,0.0,0.0,0.0,0.0,0.0,0.0,0.0,0.0,0.0,0.0,0.0,0.0,0.0,0.0,0.0,0.0,0.0,0.0,0.0,0.0,0.0,0.0,0.0,0.0,0.0,0.0,-1.3042,-1.3687,-1.4451,-1.5201,-1.3993,-1.3408,0.0,0.0,0.0,0.0,0.0,0.0,0.0,0.0,0.0,0.0,0.0,0.0,0.0,0.0,0.0,0.0,0.0,0.0,0.0,0.0,0.0,0.0,0.0,0.0,0.0,0.0,0.0,0.0,0.0,0.0,0.0,0.0,0.0,0.0,0.0,0.0,0.0,0.0,0.0,0.0,0.0,0.0,0.0,0.0,0.0,0.0,0.0,0.0,0.0,0.0,0.0,0.0,0.0,0.0,0.0,0.0,0.0,0.0,0.0,0.0,0.0,0.0,0.0,0.0,0.0,0.0,0.0,0.0,0.0,0.0,0.0,0.0,0.0,0.0,0.0,0.0,0.0,0.0,0.0,0.0,0.0,0.0,0.0,0.0,0.0,0.0,0.0,0.0,0.0,0.0,0.0,0.0,0.0,0.0,0.0,0.0,0.0,0.0,0.0,0.0,0.0,0.0,0.0,0.0,0.0,0.0,0.0,0.0,0.0,-1.3837,-1.4526,-1.5159,-1.5725,-1.4387,-1.371,-1.3791,0.0,0.0,0.0,0.0,0.0,0.0,0.0,0.0,0.0,0.0,0.0,0.0,0.0,0.0,0.0,0.0,0.0,0.0,0.0,0.0,0.0,0.0,0.0,0.0,0.0,0.0,0.0,0.0,0.0,0.0,0.0,0.0,0.0,0.0,0.0,0.0,0.0,0.0,0.0,0.0,0.0,0.0,0.0,0.0,0.0,0.0,0.0,0.0,0.0,0.0,0.0,0.0,0.0,0.0,0.0,0.0,0.0,0.0,0.0,0.0,0.0,0.0,0.0,0.0,0.0,0.0,0.0,0.0,0.0,0.0,0.0,0.0,0.0,0.0,0.0,0.0,0.0,0.0,0.0,0.0,0.0,0.0,0.0,0.0,0.0,0.0,0.0,0.0,0.0,0.0,0.0,0.0,0.0,0.0,0.0,0.0,0.0,0.0,0.0,0.0,0.0,0.0,0.0,0.0,0.0,0.0,0.0,0.0,-1.5877,-1.6821,-1.6801,-1.5894,-1.5364,-1.4396,0.0,0.0,0.0,0.0,0.0,0.0,0.0,0.0,0.0,0.0,0.0,0.0,0.0,0.0,0.0,0.0,0.0,0.0,0.0,0.0,0.0,0.0,0.0,0.0,0.0,0.0,0.0,0.0,0.0,0.0,0.0,0.0,0.0,0.0,0.0,0.0,0.0,0.0,0.0,0.0,0.0,0.0,0.0,0.0,0.0,0.0,0.0,0.0,0.0,0.0,0.0,0.0,0.0,0.0,0.0,0.0,0.0,0.0,0.0,0.0,0.0,0.0,0.0,0.0,0.0,0.0,0.0,0.0,0.0,0.0,0.0,0.0,0.0,0.0,0.0,0.0,0.0,0.0,0.0,0.0,0.0,0.0,0.0,0.0,0.0,0.0,0.0,0.0,0.0,0.0,0.0,0.0,0.0,0.0,0.0,0.0,0.0,0.0,0.0,0.0,0.0,0.0,0.0,0.0,0.0,0.0,0.0,0.0,0.0,-1.7006,-1.8012,-1.8274,-1.7669,-1.6141,-1.5056,0.0,0.0,0.0,0.0,0.0,0.0,0.0,0.0,0.0,0.0,0.0,0.0,0.0,0.0,0.0,0.0,0.0,0.0,0.0,0.0,0.0,0.0,0.0,0.0,0.0,0.0,0.0,0.0,0.0,0.0,0.0,0.0,0.0,0.0,0.0,0.0,0.0,0.0,0.0,0.0,0.0,0.0,0.0,0.0,0.0,0.0,0.0,0.0,0.0,0.0,0.0,0.0,0.0,0.0,0.0,0.0,0.0,0.0,0.0,0.0,0.0,0.0,0.0,0.0,0.0,0.0,0.0,0.0,0.0,0.0,0.0,0.0,0.0,0.0,0.0,0.0,0.0,0.0,0.0,0.0,0.0,0.0,0.0,0.0,0.0,0.0,0.0,0.0,0.0,0.0,0.0,0.0,0.0,0.0,0.0,0.0,0.0,0.0,0.0,0.0,0.0,0.0,0.0,0.0,0.0,0.0,0.0,0.0,-1.5936,-1.7889,-1.8879,-1.9267,-1.9061,-1.7424,-1.5996,0.0,0.0,0.0,0.0,0.0,0.0,0.0,0.0,0.0,0.0,0.0,0.0,0.0,0.0,0.0,0.0,0.0,0.0,0.0,0.0,0.0,0.0,0.0,0.0,0.0,0.0,0.0,0.0,0.0,0.0,0.0,0.0,0.0,0.0,0.0,0.0,0.0,0.0,0.0,0.0,0.0,0.0,0.0,0.0,0.0,0.0,0.0,0.0,0.0,0.0,0.0,0.0,0.0,0.0,0.0,0.0,0.0,0.0,0.0,0.0,0.0,0.0,0.0,0.0,0.0,0.0,0.0,0.0,0.0,0.0,0.0,0.0,0.0,0.0,0.0,0.0,0.0,0.0,0.0,0.0,0.0,0.0,0.0,0.0,0.0,0.0,0.0,0.0,0.0,0.0,0.0,0.0,0.0,0.0,0.0,0.0,0.0,0.0,0.0,0.0,0.0,0.0,0.0,0.0,0.0,0.0,0.0,0.0,-1.6528,-1.8541,-1.9451,-1.9912,-1.9921,-1.874,-1.6974,0.0,0.0,0.0,0.0,0.0,0.0,0.0,0.0,0.0,0.0,0.0,0.0,0.0,0.0,0.0,0.0,0.0,0.0,0.0,0.0,0.0,0.0,0.0,0.0,0.0,0.0,0.0,0.0,0.0,0.0,0.0,0.0,0.0,0.0,0.0,0.0,0.0,0.0,0.0,0.0,0.0,0.0,0.0,0.0,0.0,0.0,0.0,0.0,0.0,0.0,0.0,0.0,0.0,0.0,0.0,0.0,0.0,0.0,0.0,0.0,0.0,0.0,0.0,0.0,0.0,0.0,0.0,0.0,0.0,0.0,0.0,0.0,0.0,0.0,0.0,0.0,0.0,0.0,0.0,0.0,0.0,0.0,0.0,0.0,0.0,0.0,0.0,0.0,0.0,0.0,0.0,0.0,0.0,0.0,0.0,0.0,0.0,0.0,0.0,0.0,0.0,0.0,0.0,0.0,0.0,0.0,0.0,0.0,-1.698,-1.907,-1.9628,-2.004,-2.0342,-1.8878,-1.7102,0.0,0.0,0.0,0.0,0.0,0.0,0.0,0.0,0.0,0.0,0.0,0.0,0.0,0.0,0.0,0.0,0.0,0.0,0.0,0.0,0.0,0.0,0.0,0.0,0.0,0.0,0.0,0.0,0.0,0.0,0.0,0.0,0.0,0.0,0.0,0.0,0.0,0.0,0.0,0.0,0.0,0.0,0.0,0.0,0.0,0.0,0.0,0.0,-1.2515,0.0,0.0,0.0,0.0,0.0,0.0,0.0,0.0,0.0,0.0,0.0,0.0,0.0,0.0,0.0,0.0,0.0,0.0,0.0,0.0,0.0,0.0,0.0,0.0,0.0,0.0,0.0,0.0,0.0,0.0,0.0,0.0,0.0,0.0,0.0,0.0,0.0,0.0,0.0,0.0,0.0,0.0,0.0,0.0,0.0,0.0,0.0,0.0,0.0,0.0,0.0,0.0,0.0,0.0,0.0,0.0,0.0,0.0,0.0,-1.7606,-1.9531,-1.9957,-2.0259,-2.0424,-1.9136,-1.7449,0.0,0.0,0.0,0.0,0.0,0.0,0.0,0.0,0.0,0.0,0.0,0.0,0.0,0.0,0.0,0.0,0.0,0.0,0.0,0.0,0.0,0.0,0.0,0.0,0.0,0.0,0.0,0.0,0.0,0.0,0.0,0.0,0.0,0.0,0.0,0.0,0.0,0.0,0.0,0.0,0.0,0.0,0.0,0.0,0.0,0.0,0.0,0.0,0.0,0.0,0.0,0.0,0.0,0.0,0.0,0.0,0.0,0.0,0.0,0.0,0.0,0.0,0.0,0.0,0.0,0.0,0.0,0.0,0.0,0.0,0.0,0.0,0.0,0.0,0.0,0.0,0.0,0.0,0.0,0.0,0.0,0.0,0.0,0.0,0.0,0.0,0.0,0.0,0.0,0.0,0.0,0.0,0.0,0.0,0.0,0.0,0.0,0.0,0.0,0.0,0.0,0.0,0.0,0.0,0.0,0.0,0.0,-1.6524,-1.8006,-1.9811,-2.02,-2.0356,-2.0402,-1.9216,-1.7706,-1.5771,0.0,0.0,0.0,0.0,0.0,0.0,0.0,0.0,0.0,0.0,0.0,0.0,0.0,0.0,0.0,0.0,0.0,0.0,0.0,0.0,0.0,0.0,0.0,0.0,0.0,0.0,0.0,0.0,0.0,0.0,0.0,0.0,0.0,0.0,0.0,0.0,0.0,0.0,-1.308,-1.4213,0.0,0.0,0.0,0.0,0.0,0.0,0.0,0.0,-1.3573,0.0,0.0,0.0,0.0,0.0,0.0,0.0,0.0,0.0,0.0,0.0,0.0,0.0,0.0,0.0,0.0,0.0,0.0,0.0,0.0,0.0,0.0,0.0,0.0,0.0,0.0,0.0,0.0,0.0,0.0,0.0,0.0,0.0,0.0,0.0,0.0,0.0,0.0,0.0,0.0,0.0,0.0,0.0,0.0,0.0,0.0,0.0,0.0,0.0,0.0,0.0,0.0,0.0,0.0,0.0,0.0,-1.656,-1.6415,-1.7433,-1.9811,-1.9641,-1.9659,-1.9939,-1.8813,-1.7386,-1.5762,0.0,0.0,0.0,0.0,0.0,0.0,0.0,0.0,0.0,0.0,0.0,0.0,0.0,0.0,0.0,0.0,0.0,0.0,0.0,0.0,0.0,0.0,0.0,0.0,0.0,0.0,0.0,0.0,0.0,0.0,0.0,0.0,0.0,0.0,0.0,0.0,0.0,0.0,0.0,-1.5635,-1.616,0.0,0.0,0.0,0.0,0.0,0.0,0.0,0.0,-1.4125,0.0,0.0,0.0,0.0,0.0,0.0,0.0,0.0,0.0,0.0,0.0,0.0,0.0,0.0,0.0,0.0,0.0,0.0,0.0,0.0,0.0,0.0,0.0,0.0,0.0,0.0,0.0,0.0,0.0,0.0,0.0,0.0,0.0,0.0,0.0,0.0,0.0,0.0,0.0,0.0,0.0,0.0,0.0,0.0,0.0,0.0,0.0,0.0,0.0,0.0,0.0,0.0,0.0,0.0,0.0,-1.6132,-1.6934,-1.8132,-1.982,-1.9692,-1.9723,-1.9847,-1.8319,-1.6927,0.0,0.0,0.0,0.0,0.0,0.0,0.0,0.0,0.0,0.0,0.0,0.0,0.0,0.0,0.0,0.0,0.0,0.0,0.0,0.0,0.0,0.0,0.0,0.0,0.0,0.0,0.0,0.0,0.0,0.0,0.0,0.0,0.0,0.0,0.0,0.0,0.0,0.0,0.0,0.0,-1.614,-1.6507,-1.6289,0.0,0.0,0.0,0.0,0.0,0.0,-1.4717,-1.4442,0.0,0.0,0.0,0.0,0.0,0.0,0.0,0.0,0.0,0.0,0.0,0.0,0.0,0.0,0.0,0.0,0.0,0.0,0.0,0.0,0.0,0.0,0.0,0.0,0.0,0.0,0.0,0.0,0.0,0.0,0.0,0.0,0.0,0.0,0.0,0.0,0.0,0.0,0.0,0.0,0.0,0.0,0.0,0.0,0.0,0.0,0.0,0.0,0.0,0.0,0.0,0.0,0.0,0.0,0.0,-1.567,-1.7243,-1.8613,-1.971,-1.9806,-1.9729,-1.9619,-1.7917,-1.6532,0.0,0.0,0.0,0.0,0.0,0.0,0.0,0.0,0.0,0.0,0.0,0.0,0.0,0.0,0.0,0.0,0.0,0.0,0.0,0.0,0.0,0.0,0.0,0.0,0.0,0.0,0.0,0.0,0.0,0.0,0.0,0.0,0.0,0.0,0.0,0.0,0.0,0.0,0.0,0.0,0.0,-1.6959,-1.6556,-1.6306,0.0,0.0,0.0,0.0,-1.5106,-1.5499,0.0,0.0,0.0,0.0,0.0,0.0,0.0,0.0,0.0,0.0,0.0,0.0,0.0,0.0,0.0,0.0,0.0,0.0,0.0,0.0,0.0,0.0,0.0,0.0,0.0,0.0,0.0,0.0,0.0,0.0,0.0,0.0,0.0,0.0,0.0,0.0,0.0,0.0,0.0,0.0,0.0,0.0,0.0,0.0,0.0,0.0,0.0,0.0,0.0,0.0,0.0,0.0,0.0,0.0,0.0,0.0,-1.5615,-1.6444,-1.7651,-1.9283,-1.9375,-1.921,-1.8852,-1.7926,-1.6551,0.0,0.0,0.0,0.0,0.0,0.0,0.0,0.0,0.0,0.0,0.0,0.0,0.0,0.0,0.0,0.0,0.0,0.0,0.0,0.0,0.0,0.0,0.0,0.0,0.0,0.0,0.0,0.0,0.0,0.0,0.0,0.0,0.0,0.0,0.0,0.0,0.0,0.0,0.0,0.0,0.0,-1.8155,-1.6404,-1.6606,-1.6926,0.0,0.0,0.0,-1.7277,-1.7852,0.0,0.0,0.0,0.0,0.0,0.0,0.0,0.0,0.0,0.0,0.0,0.0,0.0,0.0,0.0,0.0,0.0,0.0,0.0,0.0,0.0,0.0,0.0,0.0,0.0,0.0,0.0,0.0,0.0,0.0,0.0,0.0,0.0,0.0,0.0,0.0,0.0,0.0,0.0,0.0,0.0,0.0,0.0,0.0,0.0,0.0,0.0,0.0,0.0,0.0,0.0,0.0,0.0,0.0,0.0,-1.2661,-1.5178,-1.6289,-1.765,-1.9237,-1.9292,-1.9109,-1.8715,-1.7486,-1.6101,0.0,0.0,0.0,0.0,0.0,0.0,0.0,0.0,0.0,0.0,0.0,0.0,0.0,0.0,0.0,0.0,0.0,0.0,0.0,0.0,0.0,0.0,0.0,0.0,0.0,0.0,0.0,0.0,0.0,0.0,0.0,0.0,0.0,0.0,0.0,0.0,0.0,0.0,0.0,0.0,0.0,0.0,-1.7877,-1.7908,0.0,0.0,0.0,-1.7769,-1.8204,0.0,0.0,0.0,0.0,0.0,0.0,0.0,0.0,0.0,0.0,0.0,0.0,0.0,0.0,0.0,0.0,0.0,0.0,0.0,0.0,0.0,0.0,0.0,0.0,0.0,0.0,0.0,0.0,0.0,0.0,0.0,0.0,0.0,0.0,0.0,0.0,0.0,0.0,0.0,0.0,0.0,0.0,0.0,0.0,0.0,0.0,0.0,0.0,0.0,0.0,0.0,0.0,0.0,0.0,0.0,0.0,0.0,-1.466,-1.6162,-1.7555,-1.8845,-1.8921,-1.8768,-1.8394,-1.7046,0.0,0.0,0.0,0.0,0.0,0.0,0.0,0.0,0.0,0.0,0.0,0.0,0.0,0.0,0.0,0.0,0.0,0.0,0.0,0.0,0.0,0.0,0.0,0.0,0.0,0.0,0.0,-0.7371,0.0,0.0,0.0,0.0,0.0,0.0,0.0,0.0,0.0,0.0,0.0,0.0,0.0,0.0,-1.7707,-1.8764,-1.9042,-1.9254,0.0,0.0,-1.9056,-1.8914,-1.8789,-1.7994,0.0,0.0,0.0,0.0,0.0,0.0,0.0,0.0,0.0,0.0,0.0,0.0,0.0,0.0,0.0,0.0,0.0,0.0,0.0,0.0,0.0,0.0,0.0,0.0,0.0,0.0,0.0,0.0,0.0,0.0,0.0,0.0,0.0,0.0,0.0,0.0,0.0,0.0,0.0,0.0,0.0,0.0,0.0,0.0,0.0,0.0,0.0,0.0,0.0,0.0,0.0,0.0,0.0,0.0,0.0,-1.4141,-1.5833,-1.7112,-1.7875,-1.7884,-1.7805,-1.7578,-1.6762,-1.5395,0.0,0.0,0.0,0.0,0.0,0.0,0.0,0.0,0.0,0.0,0.0,0.0,0.0,0.0,0.0,0.0,0.0,0.0,0.0,0.0,0.0,0.0,0.0,0.0,0.0,0.0,0.0,0.0,0.0,0.0,0.0,0.0,0.0,0.0,0.0,0.0,0.0,0.0,0.0,0.0,0.0,-1.8404,-1.8193,-1.9482,-2.0485,0.0,0.0,-2.0268,-1.9796,-2.0515,-1.9927,-1.6379,0.0,0.0,0.0,0.0,0.0,0.0,0.0,0.0,0.0,0.0,0.0,0.0,0.0,0.0,0.0,0.0,0.0,0.0,0.0,0.0,0.0,0.0,0.0,0.0,0.0,0.0,0.0,0.0,0.0,0.0,0.0,0.0,0.0,0.0,0.0,0.0,0.0,0.0,0.0,0.0,0.0,0.0,0.0,0.0,0.0,0.0,0.0,0.0,0.0,0.0,0.0,0.0,0.0,-1.1956,-1.3597,-1.5412,-1.6783,-1.7607,-1.768,-1.7404,-1.6803,-1.6289,-1.5034,0.0,0.0,0.0,0.0,0.0,0.0,0.0,0.0,0.0,0.0,0.0,0.0,0.0,0.0,0.0,0.0,0.0,0.0,0.0,0.0,0.0,0.0,0.0,0.0,0.0,0.0,0.0,0.0,-0.8901,-0.8977,-0.9483,0.0,0.0,0.0,0.0,0.0,0.0,0.0,0.0,0.0,0.0,-1.8584,-1.94,-2.0404,0.0,0.0,-2.1293,-2.1122,-2.1253,-2.0519,-1.9331,-1.7544,-1.6008,0.0,0.0,0.0,0.0,0.0,0.0,0.0,0.0,0.0,0.0,0.0,0.0,0.0,0.0,0.0,0.0,0.0,0.0,0.0,0.0,0.0,0.0,0.0,0.0,0.0,0.0,0.0,0.0,0.0,0.0,0.0,0.0,0.0,0.0,0.0,0.0,0.0,0.0,0.0,0.0,0.0,0.0,0.0,0.0,0.0,0.0,0.0,0.0,0.0,0.0,0.0,0.0,-1.1404,-1.2837,-1.4817,-1.6193,-1.697,-1.6979,-1.6714,-1.6235,-1.5826,-1.4751,0.0,0.0,0.0,0.0,0.0,0.0,0.0,0.0,0.0,0.0,0.0,0.0,0.0,0.0,0.0,0.0,0.0,0.0,0.0,0.0,0.0,0.0,0.0,0.0,0.0,0.0,0.0,0.0,-0.946,-0.9393,-0.9592,0.0,0.0,0.0,0.0,0.0,0.0,0.0,0.0,0.0,0.0,-1.8869,-2.0251,-2.114,-2.1777,-2.2137,-2.1753,-2.148,-2.1699,-2.0449,-1.9089,-1.7906,0.0,0.0,0.0,0.0,0.0,0.0,0.0,0.0,0.0,0.0,0.0,0.0,0.0,0.0,0.0,0.0,0.0,0.0,0.0,0.0,0.0,0.0,0.0,0.0,0.0,0.0,0.0,0.0,0.0,0.0,0.0,0.0,0.0,0.0,0.0,0.0,0.0,0.0,0.0,0.0,0.0,0.0,0.0,0.0,0.0,0.0,0.0,0.0,0.0,0.0,0.0,0.0,0.0,0.0,-1.1848,-1.4119,-1.5351,-1.5565,-1.5547,-1.5658,-1.5799,-1.5435,-1.4444,-1.2838,0.0,0.0,0.0,0.0,0.0,0.0,0.0,0.0,0.0,0.0,0.0,0.0,0.0,0.0,0.0,0.0,0.0,0.0,0.0,0.0,0.0,0.0,0.0,0.0,0.0,0.0,-0.9575,-0.9727,-0.9638,0.0,0.0,0.0,0.0,0.0,0.0,0.0,0.0,0.0,0.0,-1.7529,-1.9302,-2.0425,-2.15,-2.2137,-2.2161,-2.1765,-2.1238,-2.0767,-2.0588,-1.969,0.0,0.0,0.0,0.0,0.0,0.0,0.0,0.0,0.0,0.0,0.0,0.0,0.0,0.0,0.0,0.0,0.0,0.0,0.0,0.0,0.0,0.0,0.0,0.0,0.0,0.0,0.0,-0.8338,-0.7671,0.0,0.0,0.0,0.0,0.0,0.0,0.0,0.0,0.0,0.0,0.0,-1.2097,-1.2814,0.0,0.0,0.0,0.0,0.0,0.0,0.0,0.0,0.0,0.0,0.0,0.0,-1.1593,-1.262,-1.4292,-1.5249,-1.5283,-1.5283,-1.5204,-1.5063,-1.4681,-1.3813,-1.2449,0.0,0.0,0.0,0.0,0.0,0.0,0.0,0.0,0.0,0.0,0.0,0.0,0.0,0.0,0.0,0.0,0.0,0.0,0.0,0.0,0.0,0.0,0.0,0.0,0.0,-0.9018,0.0,0.0,0.0,0.0,0.0,0.0,0.0,0.0,0.0,0.0,0.0,-1.491,-1.6538,-1.8045,-1.9225,-1.9961,-2.0971,-2.1668,0.0,0.0,0.0,0.0,0.0,0.0,0.0,0.0,0.0,0.0,0.0,0.0,0.0,0.0,-1.6871,-1.4454,-1.3734,-1.3553,-1.3722,0.0,0.0,0.0,0.0,0.0,0.0,0.0,0.0,0.0,0.0,0.0,0.0,0.0,0.0,0.0,0.0,-0.8921,0.0,0.0,0.0,0.0,0.0,0.0,0.0,0.0,-1.2665,-1.3439,-1.3483,-1.4069,-1.3939,0.0,-1.3045,-1.2079,0.0,0.0,0.0,0.0,0.0,0.0,0.0,0.0,-1.1799,-1.282,-1.4127,-1.4829,-1.4829,-1.4958,-1.4923,-1.4684,-1.417,-1.3455,-1.2543,-1.1624,-1.0877,0.0,0.0,0.0,0.0,0.0,0.0,0.0,0.0,0.0,0.0,0.0,0.0,0.0,0.0,0.0,0.0,0.0,0.0,0.0,0.0,0.0,0.0,0.0,-0.9098,0.0,0.0,0.0,0.0,0.0,0.0,0.0,0.0,0.0,-1.2876,-1.4393,-1.606,-1.7686,-1.8696,-1.9456,-1.9997,0.0,0.0,0.0,0.0,0.0,0.0,0.0,-1.9829,-1.9107,-1.8893,-1.8566,-1.8025,-1.8518,-1.865,-1.7567,0.0,0.0,-1.5846,-1.5112,-1.4907,-1.51,-1.5124,-1.5196,-1.5591,-1.573,-1.5888,0.0,0.0,0.0,0.0,0.0,0.0,0.0,0.0,-1.2741,-1.2102,0.0,-1.1185,0.0,0.0,0.0,0.0,0.0,0.0,0.0,0.0,-1.4595,-1.5247,-1.4786,-1.5086,-1.506,-1.4752,-1.5009,-1.4401,-1.2949,-1.0846,0.0,0.0,0.0,0.0,0.0,0.0,-1.1687,-1.2483,-1.3562,-1.411,-1.4144,-1.4478,-1.4658,-1.4648,-1.3922,-1.3416,-1.309,-1.2043,-1.1155,-1.0474,-0.984,0.0,0.0,0.0,0.0,0.0,0.0,0.0,0.0,0.0,0.0,0.0,0.0,0.0,0.0,0.0,0.0,0.0,0.0,0.0,0.0,-0.9167,0.0,0.0,0.0,0.0,0.0,0.0,0.0,0.0,0.0,0.0,-1.4219,-1.554,-1.7147,-1.877,0.0,0.0,0.0,0.0,-2.1356,-2.1368,-2.138,-2.1368,-2.1332,-2.0911,-2.0213,-1.9191,0.0,0.0,-1.7748,-1.835,-1.8698,-1.7676,-1.8326,-1.8987,-1.8929,-1.7965,-1.7508,-1.7941,-1.7255,-1.7063,-1.7893,-1.7688,-1.7556,-1.5049,0.0,0.0,0.0,0.0,-1.2958,-1.3388,-1.4095,-1.4051,-1.3631,-1.2956,-1.2423,0.0,0.0,0.0,0.0,0.0,0.0,-1.3483,-1.4338,-1.5446,-1.5918,-1.5918,-1.5968,-1.5822,-1.5489,-1.53,-1.4718,-1.3776,-1.3125,-1.1798,-0.9841,0.0,0.0,0.0,0.0,-1.2577,-1.3562,-1.393,-1.423,-1.4512,-1.435,-1.4127,-1.3853,-1.3905,-1.3692,-1.32,-1.2583,-1.1957,-1.1286,-1.0409,0.0,0.0,0.0,0.0,0.0,0.0,0.0,0.0,0.0,0.0,0.0,0.0,0.0,0.0,0.0,0.0,0.0,0.0,0.0,-0.928,-0.8811,-0.9046,0.0,0.0,0.0,0.0,0.0,0.0,0.0,0.0,0.0,-1.6241,-1.7135,-1.8036,0.0,0.0,-1.942,-1.9949,-2.0181,-2.0394,-2.0762,0.0,0.0,0.0,-2.0117,-1.9913,-1.9627,-2.0009,-2.0093,-1.9278,-1.9387,-1.9336,-1.865,-1.8782,-1.9013,-1.8977,-1.8458,-1.8061,-1.8145,-1.7916,-1.7965,-1.8578,-1.8626,-1.8592,-1.7016,-1.5539,-1.4547,-1.4289,-1.4512,-1.4576,-1.5105,-1.5913,-1.5746,-1.549,-1.5168,-1.4535,-1.3841,-1.3137,-1.2422,0.0,0.0,0.0,-1.4852,-1.565,-1.617,-1.6493,-1.6576,-1.6567,-1.6342,-1.6002,-1.5736,-1.5274,-1.4538,-1.4538,-1.3557,-1.1764,0.0,0.0,-1.1644,-1.2432,-1.3245,-1.4059,-1.4093,-1.4213,-1.4435,-1.4213,-1.3982,-1.3759,-1.3973,-1.3773,-1.3151,-1.2744,-1.2269,-1.1687,-1.0886,-1.008,0.0,0.0,0.0,0.0,0.0,0.0,0.0,0.0,0.0,0.0,0.0,-0.6337,-0.5698,0.0,0.0,0.0,-0.7727,-0.8839,-0.9911,-0.9686,0.0,0.0,0.0,0.0,0.0,0.0,0.0,-1.4758,-1.5596,-1.6444,-1.7456,-1.8105,-1.871,-1.9239,-1.9146,-1.9179,-1.9724,0.0,-1.9929,-2.0225,-2.0478,-2.049,-2.0153,-1.9941,-1.9748,-1.9519,-1.9744,-1.9853,-1.954,-1.9495,-1.9387,-1.911,-1.9013,-1.9013,-1.9013,-1.8722,-1.8518,-1.8518,-1.8518,-1.8626,-1.8939,-1.9013,-1.9013,-1.8489,-1.7746,-1.663,-1.6198,-1.6348,-1.6592,-1.6986,-1.7429,-1.7621,-1.7504,-1.7135,-1.7082,-1.6325,-1.5205,-1.4838,0.0,0.0,-1.5914,-1.6366,-1.672,-1.689,-1.7004,-1.7004,-1.6978,-1.6735,-1.6422,-1.6351,-1.5966,-1.5292,-1.53,-1.4923,-1.4187,-1.3494,-1.3155,-1.3091,-1.3425,-1.3793,-1.4187,-1.4127,-1.4076,-1.405,-1.405,-1.4033,-1.399,-1.4016,-1.3665,-1.2992,-1.2554,-1.2158,-1.1815,-1.1195,-1.0568,-0.9972,0.0,0.0,0.0,0.0,0.0,0.0,0.0,0.0,0.0,0.0,0.0,0.0,0.0,0.0,0.0,-0.8621,0.0,-1.0575,-1.1202,0.0,0.0,0.0,-1.1876,-1.2328,-1.3617,-1.4713,-1.5427,0.0,0.0,0.0,0.0,-1.9194,-1.9688,-1.9326,-1.9206,-1.9708,-1.9772,-1.976,-1.9832,-2.0165,-2.0454,-2.0314,-2.0037,-1.964,-1.9143,-1.9049,-1.9146,-1.9074,-1.9049,-1.9025,-1.9025,-1.9013,-1.9013,-1.9013,-1.8975,-1.9013,-1.8989,-1.9001,-1.9013,-1.9013,-1.9013,-1.9013,-1.9147,-1.8533,-1.8225,-1.7816,-1.7434,-1.7421,-1.7827,-1.8511,-1.8422,-1.841,-1.8485,-1.812,-1.7408,-1.6467,-1.6372,-1.647,-1.6716,-1.6871,-1.722,-1.763,-1.7726,-1.7735,-1.7718,-1.7475,-1.7287,-1.7184,-1.691,-1.6496,-1.6043,-1.6035,-1.565,-1.4975,-1.4769,-1.4393,-1.3862,-1.4213,-1.459,-1.4941,-1.4384,-1.3947,-1.3656,-1.3656,-1.3519,-1.3245,-1.3275,-1.3052,-1.2535,-1.1919,-1.1636,-1.1772,-1.0936,-1.0393,-1.0357,-0.9059,0.0,0.0,0.0,0.0,0.0,0.0,0.0,0.0,0.0,-0.781,-0.612,0.0,-0.8187,0.0,-0.88,-0.9945,-1.1768,-1.1012,0.0,0.0,-1.2565,-1.2915,-1.4642,-1.4812,-1.5406,-1.7005,-1.7586,-1.8092,-1.8694,-1.8903,-1.9023,-1.9167,-1.911,-1.9167,-1.9712,-1.942,-1.9363,-1.966,-1.9564,-1.9384,-1.942,-1.9652,-1.9615,-1.911,-1.9312,-1.9483,-1.9086,-1.9013,-1.9013,-1.9013,-1.9013,-1.9013,-1.9013,-1.9013,-1.9013,-1.9013,-1.9013,-1.9013,-1.9013,-1.9013,-1.9013,-1.9603,-1.9213,-1.906,-1.8796,-1.843,-1.8219,-1.8409,-1.8917,-1.9023,-1.9187,-1.9367,-1.8968,-1.8228,-1.7277,-1.7606,-1.7777,-1.7819,-1.7819,-1.7876,-1.7991,-1.7991,-1.7991,-1.7983,-1.7817,-1.7638,-1.7505,-1.7261,-1.6884,-1.6362,-1.6345,-1.6045,-1.5489,-1.548,-1.5274,-1.4872,-1.4898,-1.5018,-1.5206,-1.4658,-1.417,-1.3785,-1.3596,-1.3417,-1.3249,-1.322,-1.2954,-1.2406,-1.2022,-1.1713,-1.1584,-1.1034,-1.0754,-1.0765,-0.9822,-0.9079,0.0,0.0,0.0,0.0,0.0,0.0,0.0,0.0,0.0,0.0,0.0,-0.9171,0.0,-0.9737,0.0,-1.2035,-1.1587,-1.1861,-1.346,-1.3545,-1.4057,-1.5488,-1.5947,-1.6551,-1.7653,-1.8126,-1.8505,-1.8951,-1.9013,-1.9013,-1.9013,-1.9013,-1.9122,-1.9336,-1.9155,-1.9095,-1.9372,-1.9179,-1.9013,-1.9013,-1.9254,-1.9351,-1.9083,-1.9254,-1.9324,-1.9074,-1.9013,-1.9013,-1.9013,-1.9013,-1.9013,-1.9013,-1.9013,-1.9013,-1.9013,-1.9013,-1.9013,-1.9013,-1.9013,-1.9013,-1.9852,-1.9786,-1.947,-1.9272,-1.928,-1.8931,-1.8822,-1.8971,-1.9454,-1.9761,-1.9866,-1.9583,-1.8877,-1.7957,-1.8591,-1.8812,-1.8674,-1.8605,-1.8417,-1.8076,-1.8017,-1.7991,-1.7991,-1.7991,-1.786,-1.7591,-1.7583,-1.7158,-1.6467,-1.6458,-1.6253,-1.5822,-1.5805,-1.5805,-1.5788,-1.5463,-1.524,-1.5137,-1.4838,-1.4502,-1.4024,-1.3733,-1.3536,-1.3451,-1.3442,-1.3091,-1.2355,-1.2269,-1.1971,-1.1344,-1.1301,-1.1246,-1.1142,-1.0724,-1.0245,0.0,-0.9371,0.0,0.0,0.0,0.0,0.0,0.0,0.0,0.0,-0.982,-1.0164,-1.0751,-1.0916,-1.1282,-1.202,-1.2445,-1.2945,-1.3555,-1.4298,-1.4987,-1.5622,-1.6658,-1.7459,-1.7748,-1.841,-1.8869,-1.8987,-1.9013,-1.9013,-1.9013,-1.9013,-1.9037,-1.8999,-1.9037,-1.9025,-1.9013,-1.9013,-1.9013,-1.9013,-1.9025,-1.9049,-1.9025,-1.9037,-1.9013,-1.9025,-1.9013,-1.9013,-1.9013,-1.9013,-1.9013,-1.9013,-1.9013,-1.9013,-1.9013,-1.9013,-1.9013,-1.9013,-1.9013,-1.9013,-1.9996,-1.9786,-1.9463,-1.9272,-1.9264,-1.9251,-1.9164,-1.9077,-1.928,-1.9575,-1.9891,-1.9852,-1.9527,-1.9096,-1.9228,-1.9209,-1.9042,-1.8725,-1.8545,-1.8468,-1.8128,-1.7991,-1.7991,-1.7991,-1.7957,-1.7889,-1.7889,-1.7504,-1.6816,-1.6816,-1.6465,-1.5822,-1.5805,-1.5805,0.0,0.0,0.0,0.0,-1.4718,-1.4341,-1.3634,-1.387,-1.3691,-1.3108,-1.3103,0.0,-1.1951,-1.1653,-1.1439,-1.131,-1.1301,0.0,0.0,0.0,0.0,0.0,0.0,0.0,0.0,0.0,0.0,0.0,-1.0052,-0.9784,-0.9739,-1.0603,-1.1223,-1.1334,-1.1371,-1.1831,-1.2899,-1.2813,-1.3262,-1.4594,-1.4584,-1.4873,-1.585,-1.6014,-1.6402,-1.7596,-1.795,-1.8333,-1.8907,-1.9013,-1.9013,-1.9013,-1.9013,-1.9013,-1.9037,-1.9037,-1.9013,-1.9013,-1.9013,-1.9013,-1.9013,-1.9013,-1.9013,-1.9013,-1.9013,-1.9013,-1.9013,-1.9013,-1.9013,-1.9013,-1.9013,-1.9013,-1.9013,-1.9013,-1.9013,-1.9013,-1.9013,-1.9013,-1.9013,-1.9013,-1.9013,-2.0047,0.0,-1.9411,-1.9272,0.0,-1.9272,-1.9168,-1.8947,-1.9202,-1.9257,-1.9188,-1.9691,-1.9592,-1.9138,-1.9462,-1.9582,-1.9436,-1.905,-1.8818,-1.8571,-1.8162,-1.7991,-1.7991,-1.7991,-1.7991,-1.7991,-1.7991,-1.7607,-1.6915,-1.6918,-1.6542,-1.5814,-1.5805,-1.5805,-1.5805,-1.5805,-1.5617,-1.524,-1.4914,-1.4487,-1.4101,-1.3905,-1.3622,-1.3262,0.0,0.0,0.0,0.0,0.0,0.0,0.0,0.0,0.0,0.0,0.0,-1.0892,-1.0741,-1.0551,-1.0243,-1.0615,-1.0971,-1.1164,-1.1205,-1.1017,-1.0622,-1.1338,-1.1889,-1.2073,-1.2092,-1.2415,-1.3182,-1.3114,-1.3499,-1.4653,-1.4705,-1.5011,-1.5925,-1.6435,-1.6896,-1.7572,-1.8143,-1.8602,-1.896,-1.9013,-1.9013,-1.9013,-1.9013,-1.9095,-1.9326,-1.9143,-1.9025,-1.9013,-1.9013,-1.9013,-1.9013,-1.9013,-1.9013,-1.9013,-1.9013,-1.9013,-1.9013,-1.9013,-1.9013,-1.9013,-1.9013,-1.9013,-1.9013,-1.9013,-1.9013,-1.9013,-1.9013,-1.9013,-1.9013,-1.9013,-1.9013,-2.0055,-1.9793,-1.947,-1.9272,-1.9272,-1.9272,-1.9066,-1.8765,0.0,0.0,0.0,-1.9471,-1.9554,-1.9026,-1.9646,-1.985,-1.9776,-1.9453,-1.9059,-1.8682,-1.8305,-1.8059,-1.8,-1.7991,-1.7991,-1.7991,-1.7991,-1.7607,-1.6944,-1.6918,-1.6542,-1.5865,-1.5805,-1.5805,-1.5805,-1.5805,-1.5805,-1.5771,-1.506,-1.4649,-1.4572,-1.3947,-1.3549,-1.348,-1.3228,-1.2914,-1.2509,-1.2114,-1.1738,-1.1396,-1.1404,-1.1421,-1.1452,-1.1469,-1.1528,-1.1644,-1.1803,-1.1733,-1.145,-1.1819,-1.1991,-1.1718,-1.2018,-1.2036,-1.1627,-1.1981,-1.2376,-1.2772,-1.2799,-1.2974,-1.336,-1.3396,-1.3774,-1.4619,-1.4742,-1.5076,-1.5957,-1.6775,-1.7285,-1.7683,-1.8278,-1.8854,-1.8987,-1.9013,-1.9047,-1.9146,-1.9206,-1.9338,-1.976,-1.9627,-1.9324,-1.9242,-1.923,-1.9131,-1.9037,-1.9013,-1.9013,-1.9013,-1.9013,-1.9013,-1.9013,-1.9013,-1.9013,-1.9013,-1.9013,-1.9013,-1.9013,-1.9013,-1.9013,-1.9013,-1.9013,-1.9013,-1.9013,-1.9013,-1.9013,-2.0047,-1.9793,-1.9463,-1.9272,-1.9272,-1.9272,-1.9066,-1.8727,-1.8815,-1.8961,-1.9096,-1.9479,-1.9662,-1.9737,-1.9882,-2.0039,-2.0189,-1.9838,-1.9453,0.0,-1.8691,-1.834,-1.8,-1.7991,-1.7991,-1.7991,-1.7991,-1.7607,-1.6995,-1.6918,-1.6542,-1.5891,-1.5805,-1.5805,-1.5805,-1.5805,-1.5805,-1.5788,-1.506,-1.4521,-1.4196,-1.4067,-1.3853,-1.3528,-1.3459,-1.3262,-1.2932,-1.2518,-1.2149,-1.1755,-1.1738,-1.1619,-1.1352,-1.1352,-1.1377,-1.1528,-1.1644,-1.1751,-1.1796,-1.1999,-1.2229,-1.2505,-1.2579,-1.2441,-1.2073,-1.2376,-1.2781,-1.3149,-1.3231,-1.3396,-1.3745,-1.3809,-1.4156,-1.4946,-1.4778,-1.4904,-1.5816,-1.5989,-1.6436,-1.7324,-1.7788,-1.836,-1.8907,-1.9037,-1.9218,-1.954,-1.9708,-1.9904,-2.0338,-2.0418,-2.0189,-1.9805,-1.9688,-1.948,-1.9134,-1.9013,-1.9013,-1.9013,-1.9013,-1.9013,-1.9013,-1.9013,-1.9013,-1.9013,-1.9013,-1.9013,-1.9013,-1.9013,-1.9013,-1.9013,-1.9013,-1.9013,-1.9013,-1.9013,-1.9013,-1.9791,-1.9499,-1.9338,-1.9272,-1.925,-1.8899,-1.8684,-1.8402,-1.7848,-1.8133,-1.9012,-1.9425,-1.97,-1.9928,-2.0065,-2.0201,-2.0275,-1.987,-1.9495,-1.9162,-1.8776,-1.8135,-1.7383,-1.7659,-1.7651,-1.7326,-1.7659,-1.763,-1.7244,-1.6983,-1.6636,-1.6114,-1.5899,-1.5805,-1.5805,-1.5805,-1.5694,-1.548,-1.4958,-1.4598,-1.441,-1.3999,-1.3699,-1.348,-1.3331,-1.3181,-1.3009,-1.2595,-1.2312,-1.2149,-1.1926,-1.1711,-1.1593,-1.1413,-1.1318,-1.1377,-1.1528,-1.175,-1.21,-1.2513,-1.2836,-1.302,-1.3029,-1.3056,-1.3093,-1.302,-1.3203,-1.3561,-1.3607,-1.381,-1.4176,-1.4222,-1.4491,-1.5119,-1.4981,-1.5157,-1.5806,-1.6283,-1.6726,-1.7352,-1.7979,-1.8545,-1.8946,-1.9266,-1.948,-1.982,-2.0213,-2.0742,-2.0995,-2.1272,-2.1031,-2.0073,-1.9808,-1.9567,-1.9122,-1.9013,-1.9013,-1.9013,-1.9013,-1.9013,-1.9013,-1.9013,-1.9013,-1.9013,-1.9013,-1.9013,-1.9013,-1.9013,-1.9013,-1.9013,-1.9013,-1.9013,-1.9013,-1.9013,-1.9013,-1.9625,-1.9279,-1.9272,-1.9235,-1.9118,-1.8547,-1.8299,-1.8191,-1.7316,-1.7443,-1.8419,-1.8944,-1.9417,-1.9837,-2.011,-2.0246,-2.0204,-1.9768,-1.9306,-1.8927,-1.8506,-1.7662,-1.6668,-1.7245,-1.7318,-1.6821,-1.7359,-1.7635,-1.7466,-1.7098,-1.6641,-1.6197,-1.5898,-1.5805,-1.5805,-1.5805,-1.5651,-1.5334,-1.4906,-1.4641,-1.453,-1.387,-1.348,-1.3485,-1.3245,-1.3129,-1.3103,-1.2732,-1.2526,-1.2509,-1.2166,-1.1934,-1.1926,-1.1687,-1.155,-1.155,-1.1679,-1.1939,-1.244,-1.2977,-1.3332,-1.3424,-1.3424,-1.3598,-1.3937,-1.3745,-1.3681,-1.3974,-1.402,-1.4157,-1.4433,-1.4467,-1.4675,-1.5118,-1.5098,-1.5323,-1.5989,-1.6624,-1.7174,-1.749,-1.8263,-1.8822,-1.9135,-1.9528,-1.9892,-2.0249,-2.0983,-2.1512,-2.15,-2.1777,-2.1356,-2.035,-1.9877,-1.9696,-1.9182,-1.9013,-1.9013,-1.9013,-1.9013,-1.9013,-1.9013,-1.9013,-1.9013,-1.9013,-1.9013,-1.9013,-1.9013,-1.9013,-1.9013,-1.9013,-1.9013,-1.9013,-1.9013,-1.9013,-1.9013,-1.9625,-1.9294,-1.9272,-1.9096,-1.8818,-1.846,-1.8313,-1.8269,-1.7821,-1.7476,-1.7366,-1.7685,-1.8535,-1.9546,-1.9837,-2.0065,-2.0192,-1.9322,-1.8686,-1.8297,-1.7699,-1.6878,-1.6002,-1.6915,-1.7172,-1.678,-1.7367,-1.7603,-1.7414,-1.703,-1.6485,-1.5925,-1.5814,-1.5735,-1.577,-1.577,-1.5744,-1.5728,-1.5077,-1.4545,-1.4153,-1.3733,-1.348,-1.348,-1.3476,-1.3459,-1.3425,-1.3146,-1.2957,-1.2923,-1.258,-1.2346,-1.2338,-1.2303,-1.2278,-1.2305,-1.2406,-1.2633,-1.2896,-1.3186,-1.3479,-1.381,-1.3827,-1.3992,-1.4387,-1.4375,-1.4405,-1.4433,-1.4412,-1.4451,-1.4506,-1.4485,-1.4704,-1.5118,-1.4902,-1.5079,-1.6218,-1.6436,-1.6754,-1.776,-1.8375,-1.8856,-1.9444,-1.9785,-2.0213,-2.0983,-2.1524,-2.1765,-2.1392,-2.138,-2.1115,-2.0213,-2.0165,-2.0009,-1.929,-1.9013,-1.9013,-1.9013,-1.9013,-1.9013,-1.9013,-1.9013,-1.9013,-1.9013,-1.9013,-1.9013,-1.9013,-1.9013,-1.9013,-1.9013,-1.9013,-1.9013,-1.9013,-1.9013,-1.9013,-1.9403,-1.9279,-1.9272,-1.9081,-1.8782,-1.8642,-1.8591,-1.8505,-1.7237,-1.6852,-1.7078,-1.6732,-1.7297,-1.8481,-1.9371,-1.9837,-1.9965,-1.9171,-1.8605,-1.8129,-1.7201,-1.6119,-1.5161,-1.6126,-1.6386,-1.609,-1.7,-1.735,-1.6902,-1.5975,-1.5083,-1.4516,-1.4446,-1.4446,-1.4446,-1.4446,-1.4494,-1.4595,-1.421,-1.3974,-1.3903,-1.3646,-1.348,-1.348,-1.348,-1.348,-1.3502,-1.3357,-1.3288,-1.3271,-1.2966,-1.2732,-1.2769,-1.2518,-1.2389,-1.2434,-1.2753,-1.3044,-1.3233,-1.3636,-1.3997,-1.424,-1.4258,-1.4332,-1.4488,-1.4485,-1.4485,-1.4485,-1.4485,-1.4485,-1.4485,-1.4485,-1.4675,-1.5128,-1.5274,-1.5652,-1.6457,-1.6909,-1.7473,-1.825,-1.8793,-1.9313,-1.9939,-2.0452,-2.0899,-2.1356,-2.162,-2.1536,-2.1019,-2.0935,-2.061,-2.0021,-1.9997,-1.9793,-1.9182,-1.9013,-1.9013,-1.9013,-1.9013,-1.9013,-1.9013,-1.9013,-1.9013,-1.9013,-1.9013,-1.9013,-1.9013,-1.9013,-1.9013,-1.9013,-1.9013,-1.9013,-1.9013,-1.9013,-1.9013,-1.9272,-1.9272,-1.9272,-1.9089,-1.8789,-1.8789,-1.8789,-1.8608,-1.7052,-1.6559,-1.6773,-1.6114,-1.6298,-1.7207,-1.8665,-1.9554,-1.9691,-1.8996,-1.8386,-1.7833,-1.6662,-1.5415,-1.4364,-1.5401,-1.5636,-1.5311,-1.6386,-1.6748,-1.6102,-1.5016,-1.4136,-1.3653,-1.3543,-1.3491,-1.3491,-1.3491,-1.3561,-1.3676,-1.3392,-1.3309,-1.3373,-1.3124,-1.3139,-1.345,-1.348,-1.348,-1.348,-1.348,-1.348,-1.3472,-1.3262,-1.3155,-1.3108,-1.2851,-1.2697,-1.2743,-1.3108,-1.3409,-1.3575,-1.4037,-1.4366,-1.4485,-1.4485,-1.4485,-1.4485,-1.4485,-1.4485,-1.4485,-1.4485,-1.4485,-1.4485,-1.4485,-1.4742,-1.5271,-1.5615,-1.5968,-1.6861,-1.7449,-1.7986,-1.8741,-1.9229,-1.9771,-2.0416,-2.0985,-2.1368,-2.1392,-2.1404,-2.1115,-2.0615,-2.0478,-2.0394,-1.9724,-1.9591,-1.9435,-1.9098,-1.9013,-1.9013,-1.9013,-1.9013,-1.9013,-1.9013,-1.9013,-1.9013,-1.9013,-1.9013,-1.9013,-1.9013,-1.9013,-1.9013,-1.9013,-1.9013,-1.9013,-1.9013,-1.9013,-1.9013,-1.9272,-1.9272,-1.9272,-1.9096,-1.8796,-1.8753,-1.8803,-1.8666,-1.7728,-1.691,-1.613,-1.5909,-1.575,-1.5696,-1.7753,-1.9096,-1.9417,-1.8496,-1.7762,-1.7233,-1.6111,-1.4892,-1.373,-1.4985,-1.5151,-1.4342,-1.5504,-1.5725,-1.4933,-1.451,-1.4207,-1.3834,-1.3498,-1.3419,-1.3346,-1.331,-1.3491,-1.3353,-1.286,-1.2583,-1.2513,-1.1966,-1.2282,-1.3268,-1.348,-1.345,-1.348,-1.348,-1.348,-1.348,-1.3476,-1.3468,-1.3468,-1.3442,-1.3408,-1.3425,-1.3618,-1.3825,-1.3927,-1.4151,-1.4336,-1.4485,-1.4485,-1.4485,-1.4485,-1.4531,-1.454,-1.4533,-1.454,-1.4561,-1.4598,-1.4607,-1.4868,-1.5571,-1.5404,-1.6048,-1.7543,-1.7573,-1.8166,-1.8966,-1.9618,-2.0187,-2.0931,-2.1248,-2.1314,-2.1278,-2.1332,-2.0971,-2.0129,-2.0225,-2.0033,-1.9408,-1.911,-1.9049,-1.9013,-1.9013,-1.9013,-1.9013,-1.9013,-1.9013,-1.9013,-1.9013,-1.9013,-1.9013,-1.9013,-1.9013,-1.9013,-1.9013,-1.9013,-1.9013,-1.9013,-1.9013,-1.9013,-1.9013,-1.9013,-1.9272,-1.9272,-1.9272,-1.9199,-1.9052,-1.8513,-1.8306,-1.8144,-1.6833,-1.5949,-1.5439,-1.5161,-1.4927,-1.4771,-1.6028,-1.7264,-1.8195,-1.6976,-1.6358,-1.6169,-1.5074,-1.4128,-1.3658,-1.4311,-1.4484,-1.423,-1.4963,-1.4979,-1.4055,-1.324,-1.2641,-1.2356,-1.2096,-1.1959,-1.1959,-1.1953,-1.2144,-1.2471,-1.2161,-1.2089,-1.2246,-1.1942,-1.1933,-1.2212,-1.2634,-1.3017,-1.3354,-1.3459,-1.348,-1.348,-1.348,-1.348,-1.348,-1.348,-1.348,-1.3511,-1.3571,-1.3731,-1.398,-1.407,-1.4228,-1.4446,-1.4485,-1.4494,-1.4531,-1.4735,-1.4882,-1.4882,-1.4882,-1.4974,-1.5157,-1.5047,-1.5109,-1.5616,-1.5858,-1.6166,-1.6807,-1.7254,-1.7843,-1.8905,-1.9947,-2.0823,-2.0864,-2.111,-2.0938,-2.037,-2.0313,-2.0045,-1.954,-1.948,-1.948,-1.9143,-1.9013,-1.9013,-1.9013,-1.9013,-1.9013,-1.9013,-1.9013,-1.9013,-1.9013,-1.9013,-1.9013,-1.9013,-1.9013,-1.9013,-1.9013,-1.9013,-1.9013,-1.9013,-1.9013,-1.9013,-1.9013,-1.9013,-1.9013,-1.9272,-1.9279,-1.9004,-1.8893,-1.8795,-1.7937,-1.7569,-1.7411,-1.6146,-1.5364,-1.5059,-1.4493,-1.424,-1.4321,-1.4503,-1.5289,-1.6466,-1.5839,-1.5602,-1.5576,-1.4625,-1.3952,-1.3592,-1.3901,-1.3918,-1.3708,-1.4048,-1.3983,-1.3322,-1.2373,-1.1836,-1.1648,-1.1298,-1.1117,-1.1117,-1.1117,-1.1329,-1.1612,-1.1499,-1.1464,-1.156,-1.1362,-1.1224,-1.1237,-1.1748,-1.2405,-1.3011,-1.3277,-1.348,-1.348,-1.348,-1.348,-1.348,-1.348,-1.348,-1.348,-1.348,-1.3631,-1.3941,-1.401,-1.4139,-1.4455,-1.4494,-1.4552,-1.4689,-1.4946,-1.5129,-1.5239,-1.5294,-1.545,-1.5725,-1.5643,-1.5606,-1.5877,-1.6183,-1.6499,-1.6808,-1.7238,-1.7972,-1.8987,-2.0109,-2.0711,-2.0656,-2.0588,-2.0291,-1.967,-1.9698,-1.9564,-1.9119,-1.9155,-1.9155,-1.9035,-1.9025,-1.9013,-1.9025,-1.9025,-1.9037,-1.9037,-1.9086,-1.9074,-1.9037,-1.9037,-1.9037,-1.9025,-1.9013,-1.9013,-1.9013,-1.9013,-1.9013,-1.9013,-1.9013,-1.9013,-1.9013,-1.9013,-1.9037,-1.9264,-1.9086,-1.8363,-1.8028,-1.7843,-1.7087,-1.6677,-1.6571,-1.5773,-1.5223,-1.485,-1.4001,-1.3858,-1.3998,-1.3464,-1.348,-1.4436,-1.514,-1.5365,-1.519,-1.479,-1.4201,-1.3507,-1.3844,-1.3597,-1.2839,-1.2784,-1.2784,-1.2723,-1.222,-1.1868,-1.1817,-1.1359,-1.1117,-1.1117,-1.1111,-1.1111,-1.1137,-1.0979,-1.0682,-1.0333,-1.0233,-1.0227,-1.0436,-1.1021,-1.1725,-1.2481,-1.3042,-1.3385,-1.348,-1.348,-1.348,-1.348,-1.348,-1.348,-1.348,-1.348,-1.3662,-1.3941,-1.401,-1.4148,-1.4489,-1.4522,-1.4735,-1.5047,-1.5184,-1.5359,-1.5634,-1.5707,-1.5872,-1.6221,-1.6239,-1.6196,-1.6321,-1.6388,-1.671,-1.7378,-1.7828,-1.8285,-1.9062,-1.987,-2.0205,-1.9959,-1.9818,-1.9634,-1.9547,-1.9574,-1.9528,-1.9092,-1.93,-1.9447,-1.9191,-1.9035,-1.9037,-1.9011,-1.9011,-1.9023,-1.9047,-1.9134,-1.9158,-1.9083,-1.9059,-1.9095,-1.9083,-1.9025,-1.9013,-1.8934,-1.8934,-1.8972,-1.8972,-1.8999,-1.9023,-1.9037,-1.9037,-1.9047,-1.8822,-1.8142,-1.8064,-1.7546,-1.6886,-1.6166,-1.5879,-1.5773,-1.4987,-1.4567,-1.4381,-1.3756,-1.3631,-1.3579,-1.3101,-1.2953,-1.3292,-1.3624,-1.3859,-1.4088,-1.4118,-1.3836,-1.3379,-1.3552,-1.3366,-1.2814,-1.2705,-1.2705,-1.2608,-1.2139,-1.1886,-1.1817,-1.1383,-1.1129,-1.1117,-1.1117,-1.1117,-1.1062,-1.0996,-1.0779,-1.034,-1.022,-1.0236,-1.036,-1.0839,-1.1483,-1.2313,-1.2958,-1.3354,-1.348,-1.348,-1.348,-1.348,-1.348,-1.348,-1.348,-1.348,-1.3601,-1.383,-1.3959,-1.4225,-1.4653,-1.4848,-1.5111,-1.5478,-1.5762,-1.5922,-1.6111,-1.6096,-1.6294,-1.6578,-1.6434,-1.6416,-1.6663,-1.6725,-1.6768,-1.7164,-1.7569,-1.7974,-1.841,-1.9071,-1.9324,-1.9192,-1.9118,-1.9155,-1.8998,-1.9071,-1.9033,-1.8961,-1.9102,-1.9381,-1.9335,-1.9222,-1.9104,-1.9164,-1.9215,-1.9241,-1.9308,-1.9401,-1.948,-1.9345,-1.9333,-1.9309,-1.9249,-1.9179,-1.9104,-1.9027,-1.9039,-1.9162,-1.9066,-1.909,-1.9092,-1.9059,-1.9167,-1.936,-1.7843,-1.7256,-1.7003,-1.6637,-1.6005,-1.534,-1.5035,-1.4928,-1.4461,-1.4143,-1.3986,-1.3653,-1.3421,-1.3276,-1.298,-1.2818,-1.2807,-1.2807,-1.2958,-1.3249,-1.3491,-1.3401,-1.311,-1.315,-1.3067,-1.2771,-1.2705,-1.2705,-1.2681,-1.2288,-1.2017,-1.1854,-1.1479,-1.1214,-1.1129,-1.1117,-1.1117,-1.1117,-1.1105,-1.0869,-1.0533,-1.0436,-1.0361,-1.0262,-1.0644,-1.1125,-1.1668,-1.2212,-1.2858,-1.3359,-1.348,-1.348,-1.348,-1.348,-1.348,-1.348,-1.3511,-1.3601,-1.3799,-1.392,-1.4239,-1.4785,-1.504,-1.5368,-1.5817,-1.6211,-1.6315,-1.6514,-1.6532,-1.6633,-1.6798,-1.6672,-1.667,-1.6872,-1.689,-1.6908,-1.6978,-1.7373,-1.7649,-1.7933,-1.8343,-1.8509,-1.85,-1.8554,-1.87,-1.8576,-1.8652,-1.8771,-1.8798,-1.8839,-1.9087,-1.929,-1.9225,-1.9219,-1.9332,-1.9404,-1.9462,-1.9582,-1.9734,-1.9853,-1.9873,-1.9929,-1.9953,-1.9841,-1.9773,-1.9726,-1.9658,-1.9721,-1.9789,-1.9557,-1.9383,-1.9669,-1.9841,-1.9913,-2.0045,-1.6528,-1.6455,-1.5561,-1.534,-1.5287,-1.4595,-1.4299,-1.4245,-1.4196,-1.4067,-1.3825,-1.3588,-1.3346,-1.3104,-1.2921,-1.2807,-1.2807,-1.2807,-1.2813,-1.291,-1.3028,-1.3076,-1.3104,-1.2903,-1.2782,-1.2717,-1.2705,-1.2705,-1.2687,-1.2409,-1.2139,-1.1908,-1.1597,-1.1345,-1.1166,-1.1117,-1.1117,-1.1117,-1.1117,-1.0936,-1.0677,-1.0701,-1.0507,-1.0083,-1.0474,-1.0783,-1.0942,-1.1324,-1.2097,-1.3199,-1.342,-1.348,-1.348,-1.348,-1.348,-1.354,-1.3506,-1.3614,-1.3795,-1.4008,-1.4328,-1.4858,-1.5191,-1.5496,-1.6211,-1.6404,-1.6508,-1.6798,-1.6853,-1.6872,-1.6899,-1.6872,-1.6872,-1.6899,-1.6908,-1.6908,-1.6943,-1.732,-1.7341,-1.7295,-1.7654,-1.7936,-1.7796,-1.7997,-1.8203,-1.8391,-1.8565,-1.8728,-1.8762,-1.8812,-1.8863,-1.9058,-1.9354,-1.9596,-1.9808,-1.9837,-1.9906,-2.0093,-2.0209,-2.025,-2.0222,-2.0246,-2.0241,-2.0182,-2.0222,-2.0208,-2.0167,-2.011,-2.0103,-1.9963,-2.0075,-2.0469,-2.0574,-2.0526,-2.0526,-1.6172,-1.5497,-1.5411,-1.4964,-1.432,-1.4158,-1.4196,-1.4196,-1.4191,-1.4035,-1.3803,-1.3583,-1.3324,-1.3098,-1.2867,-1.2807,-1.2807,-1.2807,-1.2807,-1.2813,-1.2813,-1.2964,-1.3042,-1.2815,-1.2675,-1.2686,-1.2699,-1.2705,-1.2687,-1.2457,-1.2151,-1.188,-1.1633,-1.1357,-1.1154,-1.1117,-1.1117,-1.1117,-1.1117,-1.0985,-1.0737,-1.0731,-1.0739,-1.0803,-1.0715,-1.091,-1.1295,-1.1403,-1.1834,-1.2673,-1.3155,-1.3407,-1.3467,-1.3489,-1.3592,-1.3836,-1.3673,-1.3648,-1.3994,-1.4272,-1.4653,-1.5099,-1.5609,-1.6178,-1.6679,-1.6752,-1.6807,-1.6908,-1.6908,-1.6908,-1.6908,-1.6908,-1.6908,-1.6908,-1.6908,-1.6908,-1.6897,-1.6735,-1.6637,-1.6635,-1.6928,-1.7076,-1.7273,-1.759,-1.7975,-1.8251,-1.8556,-1.8802,-1.8674,-1.9092,-1.9296,-1.9564,-1.983,-2.0105,-2.027,-2.03,-2.0412,-2.0626,-2.0734,-2.0721,-2.0517,-2.0258,-2.0147,-2.0018,-2.0246,-2.0317,-2.0217,-2.0111,-2.017,-2.0293,-2.0439,-2.0643,-2.0803,-2.0803,-2.0851,-1.5164,-1.4718,-1.4752,-1.4481,-1.3992,-1.4137,-1.4196,-1.4169,-1.4073,-1.39,-1.3663,-1.3421,-1.319,-1.2958,-1.2824,-1.2813,-1.2807,-1.2807,-1.2807,-1.2737,-1.2705,-1.2728,-1.2746,-1.2707,-1.2665,-1.2601,-1.2656,-1.2699,-1.2687,-1.2542,-1.2282,-1.1928,-1.1736,-1.1498,-1.1135,-1.1117,-1.1117,-1.1117,-1.1111,-1.1027,-1.0857,-1.0888,-1.0845,-1.0908,-1.077,-1.0908,-1.1089,-1.1135,-1.1456,-1.2034,-1.2574,-1.3016,-1.3308,-1.3414,-1.3616,-1.4019,-1.387,-1.387,-1.413,-1.4539,-1.5012,-1.5423,-1.6012,-1.6462,-1.6798,-1.6908,-1.6908,-1.6908,-1.6908,-1.6908,-1.6908,-1.6908,-1.6908,-1.6908,-1.6908,-1.6908,-1.6908,-1.6569,-1.6348,-1.6345,-1.6352,-1.6387,-1.6554,-1.6931,-1.7217,-1.7534,-1.803,-1.8233,-1.8402,-1.9103,-1.9535,-1.9576,-1.9651,-1.9738,-1.989,-1.9953,-2.03,-2.0602,-2.0868,-2.0923,-2.0887,-2.0557,-2.0579,-2.0537,-2.0498,-2.0446,-2.0415,-2.0404,-2.0446,-2.057,-2.0659,-2.0837,-2.1045,-2.1176,-2.1212,-1.3992,-1.4175,-1.3954,-1.3992,-1.4169,-1.4191,-1.4169,-1.4105,-1.3933,-1.3685,-1.3432,-1.3206,-1.3012,-1.2813,-1.2775,-1.2807,-1.2807,-1.2807,-1.2807,-1.27,-1.2602,-1.2431,-1.2415,-1.2523,-1.249,-1.2441,-1.2577,-1.2662,-1.2656,-1.2681,-1.2403,-1.1994,-1.1868,-1.1573,-1.122,-1.1117,-1.1117,-1.1117,-1.1117,-1.1105,-1.1069,-1.1057,-1.0961,-1.0731,-1.0645,-1.0493,-1.0483,-1.0621,-1.1026,-1.1433,-1.2003,-1.2633,-1.3108,-1.3291,-1.3726,-1.4147,-1.4238,-1.4187,-1.4377,-1.4947,-1.5399,-1.5793,-1.6163,-1.6514,-1.6826,-1.6908,-1.6908,-1.6908,-1.6908,-1.6908,-1.6908,-1.6908,-1.6908,-1.6908,-1.6908,-1.6908,-1.6844,-1.656,-1.6288,-1.6266,-1.6002,-1.5908,-1.5968,-1.6058,-1.621,-1.708,-1.7556,-1.7907,-1.8218,-1.8762,-1.8973,-1.8951,-1.9033,-1.916,-1.9333,-1.9551,-1.9991,-2.0404,-2.0711,-2.0927,-2.128,-2.116,-2.1288,-2.1276,-2.0908,-2.0865,-2.0946,-2.0927,-2.0794,-2.0932,-2.107,-2.1294,-2.1525,-2.1592,-2.1629,-1.4143,-1.4191,-1.4132,-1.4143,-1.4191,-1.4191,-1.4083,-1.39,-1.3841,-1.3572,-1.3243,-1.3125,-1.2969,-1.2813,-1.2807,-1.2807,-1.2807,-1.2807,-1.2807,-1.2732,-1.2527,-1.2332,-1.2175,-1.2154,-1.2216,-1.233,-1.2448,-1.2534,-1.2662,-1.2662,-1.2439,-1.1952,-1.1856,-1.1609,-1.119,-1.1117,-1.1117,-1.1117,-1.1117,-1.1117,-1.1117,-1.1105,-1.0997,-1.0719,-1.0533,-1.028,-1.0236,-1.0714,-1.1048,-1.1224,-1.1973,-1.2849,-1.337,-1.3868,-1.4334,-1.4678,-1.4675,-1.4741,-1.5157,-1.5462,-1.5769,-1.6037,-1.6451,-1.6817,-1.6872,-1.6908,-1.6908,-1.6908,-1.6908,-1.6908,-1.6908,-1.6908,-1.6908,-1.6908,-1.6908,-1.6908,-1.6844,-1.6526,-1.6306,-1.6223,-1.6008,-1.5851,-1.5974,-1.593,-1.621,-1.6681,-1.7119,-1.7582,-1.7994,-1.8385,-1.8525,-1.8553,-1.8545,-1.8703,-1.8955,-1.9198,-1.9587,-1.9893,-2.0171,-2.0482,-2.0833,-2.1126,-2.0987,-2.1071,-2.1184,-2.1155,-2.1121,-2.1077,-2.0896,-2.1183,-2.142,-2.142,-2.1506,-2.1733,-2.1831,-1.4196,-1.4196,-1.4196,-1.4196,-1.4196,-1.4191,-1.4051,-1.383,-1.3701,-1.3453,-1.3136,-1.3001,-1.2921,-1.2818,-1.2807,-1.2807,-1.2807,-1.2807,-1.2807,-1.2726,-1.2472,-1.2218,-1.2046,-1.1848,-1.1804,-1.208,-1.2326,-1.2448,-1.2577,-1.262,-1.2433,-1.1922,-1.1886,-1.1585,-1.119,-1.1117,-1.1117,-1.1117,-1.1117,-1.1117,-1.1117,-1.1111,-1.1075,-1.093,-1.0767,-1.0616,-1.0585,-1.1051,-1.1386,-1.173,-1.2521,-1.3282,-1.3652,-1.4056,-1.4555,-1.5019,-1.5069,-1.511,-1.546,-1.5823,-1.61,-1.634,-1.6695,-1.6828,-1.6908,-1.6908,-1.6908,-1.6908,-1.6908,-1.6908,-1.6908,-1.6908,-1.6908,-1.6908,-1.6908,-1.6908,-1.6844,-1.656,-1.6288,-1.6199,-1.5798,-1.5604,-1.5575,-1.5624,-1.5449,-1.5634,-1.6555,-1.7039,-1.7408,-1.7781,-1.8197,-1.827,-1.8219,-1.8315,-1.8594,-1.8892,-1.9188,-1.9303,-1.9318,-1.9587,-1.9814,-2.0107,-2.0366,-2.0634,-2.0962,-2.1075,-2.1049,-2.0985,-2.0993,-2.1131,-2.1244,-2.1307,-2.1393,-2.1545,-2.16,-1.4196,-1.4196,-1.4196,-1.4196,-1.4186,-1.4148,-1.3981,-1.3744,-1.3523,-1.327,-1.3055,-1.2889,-1.2829,-1.2807,-1.2807,-1.2807,-1.2807,-1.2807,-1.2802,-1.2619,-1.2316,-1.21,-1.1932,-1.164,-1.1467,-1.1699,-1.2032,-1.2283,-1.2448,-1.2498,-1.2344,-1.197,-1.1886,-1.1591,-1.1232,-1.1117,-1.1117,-1.1117,-1.1117,-1.1117,-1.1087,-1.1069,-1.1009,-1.0985,-1.0839,-1.0882,-1.0937,-1.1333,-1.1765,-1.2234,-1.3184,-1.3723,-1.3962,-1.4257,-1.4572,-1.5274,-1.5352,-1.5506,-1.5746,-1.6069,-1.6402,-1.6647,-1.6795,-1.6908,-1.6908,-1.6908,-1.6908,-1.6908,-1.6908,-1.6908,-1.6908,-1.6908,-1.6908,-1.6908,-1.6908,-1.6908,-1.6853,-1.6606,-1.6453,-1.634,-1.59,-1.5525,-1.5226,-1.5137,-1.4789,-1.4731,-1.5697,-1.6439,-1.6787,-1.7068,-1.7379,-1.7569,-1.7431,-1.7538,-1.7823,-1.7794,-1.8208,-1.8585,-1.8531,-1.8739,-1.8968,-1.941,-1.9857,-2.0385,-2.0703,-2.0808,-2.0877,-2.0868,-2.0934,-2.104,-2.1118,-2.1169,-2.1235,-2.1325,-2.1368,-1.4196,-1.4196,-1.4196,-1.4191,-1.4159,-1.3976,-1.376,-1.3518,-1.3287,-1.3039,-1.284,-1.2829,-1.2807,-1.2807,-1.2807,-1.2807,-1.2807,-1.2786,-1.2651,-1.2474,-1.2156,-1.2002,-1.1752,-1.1466,-1.1359,-1.1397,-1.1736,-1.2032,-1.2326,-1.2419,-1.2266,-1.2,-1.1886,-1.1603,-1.1286,-1.1117,-1.1117,-1.1117,-1.1117,-1.1117,-1.1081,-1.096,-1.0864,-1.0852,-1.0695,-1.0677,-1.0906,-1.1308,-1.1647,-1.1837,-1.3057,-1.3828,-1.4233,-1.4779,-1.5252,-1.5591,-1.5782,-1.5896,-1.6105,-1.6366,-1.6612,-1.6795,-1.6908,-1.6908,-1.6908,-1.6908,-1.6908,-1.6908,-1.6908,-1.6908,-1.6908,-1.6908,-1.6908,-1.6908,-1.6908,-1.6908,-1.689,-1.6826,-1.6718,-1.6661,-1.6083,-1.5524,-1.5285,-1.5001,-1.4717,-1.4689,-1.5241,-1.577,-1.6034,-1.6154,-1.6232,-1.6381,-1.647,-1.6698,-1.6998,-1.6819,-1.694,-1.7544,-1.7736,-1.8002,-1.831,-1.8876,-1.9366,-1.9674,-2.0179,-2.0504,-2.0606,-2.0765,-2.094,-2.1132,-2.1109,-2.1075,-2.1152,-2.1273,-2.1316,-1.4196,-1.4196,-1.4196,-1.4116,-1.3992,-1.3873,-1.361,-1.3292,-1.3152,-1.2974,-1.2818,-1.2807,-1.2807,-1.2807,-1.2807,-1.2807,-1.2786,-1.2619,-1.2522,-1.235,-1.2048,-1.1828,-1.1671,-1.1413,-1.1332,-1.1354,-1.157,-1.1866,-1.2203,-1.2369,-1.226,-1.2151,-1.2005,-1.1715,-1.1383,-1.1184,-1.1129,-1.1117,-1.1117,-1.1111,-1.1111,-1.0924,-1.0924,-1.087,-1.0803,-1.0816,-1.0949,-1.1473,-1.1843,-1.2161,-1.294,-1.3702,-1.4258,-1.4732,-1.5275,-1.5691,-1.6,-1.6167,-1.6307,-1.6473,-1.6682,-1.6874,-1.6908,-1.6908,-1.6908,-1.6908,-1.6908,-1.6908,-1.6908,-1.6908,-1.6908,-1.6908,-1.6908,-1.6908,-1.6908,-1.6908,-1.6908,-1.6908,-1.689,-1.6817,-1.6138,-1.5652,-1.5515,-1.5184,-1.4763,-1.4772,-1.4964,-1.5166,-1.5368,-1.5475,-1.557,-1.5723,-1.5902,-1.5951,-1.6158,-1.5979,-1.5998,-1.6525,-1.6852,-1.711,-1.7387,-1.7813,-1.8248,-1.8652,-1.921,-2.0019,-2.0666,-2.0925,-2.108,-2.1201,-2.1167,-2.1144,-2.1167,-2.1221,-2.1253,-1.4196,-1.4191,-1.4137,-1.4003,-1.382,-1.3706,-1.3459,-1.3147,-1.305,-1.2926,-1.2829,-1.2807,-1.2807,-1.2807,-1.2802,-1.2791,-1.2737,-1.249,-1.2371,-1.2167,-1.1898,-1.1693,-1.1575,-1.1429,-1.1348,-1.1483,-1.157,-1.1828,-1.2037,-1.2289,-1.2319,-1.2134,-1.1986,-1.1745,-1.1431,-1.1152,-1.1129,-1.1117,-1.1117,-1.1099,-1.1051,-1.1081,-1.1075,-1.1033,-1.1033,-1.1015,-1.1106,-1.1359,-1.1691,-1.2018,-1.2572,-1.3273,-1.397,-1.4358,-1.4911,-1.5611,-1.5964,-1.6167,-1.6307,-1.6542,-1.6751,-1.6864,-1.6908,-1.6908,-1.6908,-1.6908,-1.6908,-1.6908,-1.6908,-1.6908,-1.6908,-1.6908,-1.6908,-1.6908,-1.6908,-1.6908,-1.6908,-1.6881,-1.6807,-1.6541,-1.6028,-1.5753,-1.5579,-1.5102,-1.4604,-1.4588,-1.4772,-1.4808,-1.5001,-1.5139,-1.5253,-1.5349,-1.5424,-1.5324,-1.5338,-1.524,-1.5354,-1.5749,-1.5932,-1.6068,-1.6294,-1.6569,-1.7171,-1.7997,-1.874,-1.9566,-2.0307,-2.0987,-2.1138,-2.1201,-2.1201,-2.1201,-2.119,-2.1221,-2.1221,-1.4196,-1.4169,-1.3954,-1.3841,-1.3692,-1.3378,-1.3179,-1.3082,-1.2948,-1.2845,-1.2807,-1.2807,-1.2807,-1.2786,-1.2786,-1.2683,-1.2484,-1.2361,-1.2161,-1.1887,-1.1725,-1.1569,-1.1386,-1.1337,-1.144,-1.1613,-1.1699,-1.1828,-1.2037,-1.2283,-1.2248,-1.206,-1.1956,-1.1657,-1.131,-1.1128,-1.1117,-1.1117,-1.1117,-1.1015,-1.0882,-1.1009,-1.0942,-1.0833,-1.0797,-1.0882,-1.1063,-1.112,-1.115,-1.1354,-1.1848,-1.2542,-1.3273,-1.4006,-1.4697,-1.5426,-1.5956,-1.6307,-1.6351,-1.6621,-1.683,-1.6908,-1.6908,-1.6908,-1.6908,-1.6908,-1.6908,-1.6908,-1.6908,-1.6908,-1.6908,-1.6908,-1.6908,-1.6908,-1.6908,-1.6908,-1.6908,-1.689,-1.6807,-1.645,-1.5991,-1.5771,-1.5588,-1.5019,-1.4494,-1.4533,-1.4552,-1.4598,-1.4662,-1.4827,-1.4891,-1.4998,-1.5044,-1.5004,-1.493,-1.4768,-1.4868,-1.5148,-1.517,-1.5213,-1.5573,-1.6015,-1.6831,-1.7626,-1.8351,-1.9062,-1.9862,-2.0504,-2.0983,-2.1167,-2.1109,-2.1144,-2.1178,-2.1178,-2.1187,-1.3787,-1.3776,-1.3669,-1.354,-1.3394,-1.3184,-1.3023,-1.2959,-1.2856,-1.2807,-1.2807,-1.2807,-1.27,-1.2603,-1.2565,-1.2431,-1.2221,-1.2086,-1.1925,-1.1698,-1.1575,-1.1413,-1.1381,-1.144,-1.1613,-1.1736,-1.1946,-1.2155,-1.2283,-1.2285,-1.2278,-1.2139,-1.1986,-1.1718,-1.1323,-1.1146,-1.1129,-1.1117,-1.1105,-1.1051,-1.0997,-1.1033,-1.1057,-1.0942,-1.0936,-1.1009,-1.1045,-1.1033,-1.0948,-1.1186,-1.1669,-1.2291,-1.3062,-1.3833,-1.4633,-1.5275,-1.5956,-1.6272,-1.6342,-1.6691,-1.6839,-1.6908,-1.6908,-1.6908,-1.6908,-1.6908,-1.6908,-1.6908,-1.6908,-1.6908,-1.6908,-1.6908,-1.6908,-1.6908,-1.6908,-1.6908,-1.6908,-1.689,-1.6771,-1.6358,-1.5973,-1.5753,-1.5496,-1.5001,-1.4549,-1.4494,-1.4494,-1.4522,-1.4531,-1.4616,-1.4634,-1.4607,-1.4662,-1.471,-1.4664,-1.4584,-1.4593,-1.4799,-1.479,-1.4869,-1.5123,-1.5643,-1.6383,-1.6953,-1.7511,-1.8354,-1.9333,-2.0133,-2.0768,-2.092,-2.1006,-2.0868,-2.0764,-2.1075,-2.1026,-1.3297,-1.3308,-1.3362,-1.3276,-1.3098,-1.305,-1.2926,-1.2829,-1.2813,-1.2807,-1.2791,-1.2748,-1.2565,-1.2425,-1.2344,-1.2194,-1.2002,-1.1774,-1.1671,-1.1564,-1.1418,-1.1332,-1.1354,-1.1483,-1.1661,-1.1785,-1.2032,-1.2283,-1.2431,-1.2402,-1.235,-1.23,-1.2035,-1.1742,-1.1483,-1.123,-1.1117,-1.1117,-1.1117,-1.1105,-1.1099,-1.1099,-1.1111,-1.1105,-1.1111,-1.1117,-1.1117,-1.1105,-1.1105,-1.1477,-1.1744,-1.2372,-1.3251,-1.3941,-1.4625,-1.524,-1.5921,-1.6237,-1.6386,-1.663,-1.6839,-1.6908,-1.6908,-1.6908,-1.6908,-1.6908,-1.6908,-1.6908,-1.6908,-1.6908,-1.6908,-1.6908,-1.6908,-1.6908,-1.6908,-1.6908,-1.6908,-1.689,-1.6762,-1.6404,-1.6019,-1.5652,-1.5349,-1.4946,-1.4671,-1.4522,-1.4485,-1.4485,-1.4504,-1.4513,-1.4485,-1.4485,-1.4513,-1.4579,-1.4552,-1.4485,-1.4485,-1.4485,-1.4485,-1.4662,-1.499,-1.5223,-1.5723,-1.6233,-1.6799,-1.7687,-1.8725,-1.9654,-2.052,-2.0369,-2.027,-2.024,-2.0304,-2.0626,-2.0707,-1.2856,-1.2878,-1.3044,-1.3114,-1.3077,-1.2921,-1.2829,-1.2807,-1.2807,-1.2797,-1.27,-1.2554,-1.2447,-1.2339,-1.2134,-1.1991,-1.172,-1.1704,-1.1569,-1.1396,-1.1311,-1.1311,-1.1311,-1.144,-1.1613,-1.1914,-1.2118,-1.2363,-1.2517,-1.2386,-1.2337,-1.227,-1.198,-1.1724,-1.1471,-1.1194,-1.1123,-1.1117,-1.1117,-1.1117,-1.1117,-1.1117,-1.1117,-1.1117,-1.1117,-1.1117,-1.1117,-1.1117,-1.126,-1.1706,-1.2003,-1.2556,-1.3506,-1.4158,-1.4768,-1.5355,-1.585,-1.6167,-1.6351,-1.6621,-1.683,-1.6908,-1.6908,-1.6908,-1.6908,-1.6908,-1.6908,-1.6908,-1.6908,-1.6908,-1.6908,-1.6908,-1.6908,-1.6908,-1.6908,-1.6908,-1.6908,-1.6908,-1.6752,-1.6431,-1.6111,-1.5799,-1.5505,-1.5166,-1.4744,-1.4568,-1.4504,-1.4504,-1.4588,-1.4598,-1.4513,-1.4485,-1.4485,-1.4504,-1.4504,-1.4485,-1.4485,-1.4485,-1.4485,-1.4704,-1.4999,-1.5202,-1.5235,-1.583,-1.6467,-1.7305,-1.7938,-1.8572,-1.9074,-1.9396,-1.9575,-1.9819,-1.9746,-1.9815,-1.9884,-1.2807,-1.2818,-1.2861,-1.2948,-1.2888,-1.2851,-1.2807,-1.2807,-1.2807,-1.2673,-1.2549,-1.2441,-1.2248,-1.2016,-1.1898,-1.1704,-1.1466,-1.1439,-1.1375,-1.1343,-1.1311,-1.1311,-1.1311,-1.1483,-1.1742,-1.1995,-1.2155,-1.2257,-1.2397,-1.2312,-1.2204,-1.2053,-1.1772,-1.1501,-1.126,-1.1158,-1.1135,-1.1117,-1.1117,-1.1117,-1.1117,-1.1117,-1.1117,-1.1117,-1.1117,-1.1117,-1.1117,-1.1117,-1.1267,-1.1564,-1.2157,-1.2886,-1.3651,-1.4302,-1.4955,-1.5461,-1.5859,-1.6105,-1.6307,-1.6542,-1.6751,-1.6908,-1.6908,-1.6908,-1.6908,-1.6908,-1.6908,-1.6908,-1.6908,-1.6908,-1.6908,-1.6908,-1.6908,-1.6908,-1.6908,-1.6908,-1.6908,-1.6908,-1.6798,-1.6514,-1.6294,-1.6046,-1.5762,-1.5478,-1.5038,-1.4623,-1.4568,-1.454,-1.4662,-1.4671,-1.4616,-1.4494,-1.4485,-1.4485,-1.4485,-1.4485,-1.4485,-1.4485,-1.4485,-1.4675,-1.4843,-1.4743,-1.4894,-1.5506,-1.59,-1.6356,-1.6803,-1.7212,-1.7796,-1.8532,-1.9179,-1.9723,-1.9516,-1.9143,-1.9109,-1.2807,-1.2807,-1.2807,-1.2807,-1.2807,-1.2807,-1.2807,-1.2807,-1.2807,-1.2635,-1.2404,-1.2274,-1.2038,-1.1752,-1.1607,-1.1488,-1.1359,-1.1327,-1.1321,-1.1311,-1.1311,-1.1311,-1.1354,-1.1483,-1.1699,-1.1983,-1.2051,-1.2128,-1.2343,-1.2168,-1.1974,-1.1724,-1.1519,-1.1297,-1.1279,-1.1148,-1.1117,-1.1117,-1.1117,-1.1117,-1.1117,-1.1117,-1.1117,-1.1117,-1.1117,-1.1117,-1.1117,-1.1117,-1.1254,-1.1632,-1.2157,-1.2856,-1.3608,-1.433,-1.5062,-1.5461,-1.5788,-1.607,-1.6272,-1.6551,-1.6751,-1.6864,-1.6908,-1.6908,-1.6908,-1.6908,-1.6908,-1.6908,-1.6908,-1.6908,-1.6908,-1.6908,-1.6908,-1.6908,-1.6908,-1.6908,-1.6908,-1.6899,-1.678,-1.6572,-1.6425,-1.6367,-1.6028,-1.5762,-1.5487,-1.5148,-1.5129,-1.5029,-1.4891,-1.4854,-1.4668,-1.4577,-1.4485,-1.4485,-1.4485,-1.4485,-1.4485,-1.4485,-1.4485,-1.4485,-1.4565,-1.4485,-1.4545,-1.4967,-1.5253,-1.5342,-1.5809,-1.6444,-1.7184,-1.7961,-1.8526,-1.9103,-1.8988,-1.8627,-1.857,-1.2807,-1.2807,-1.2807,-1.2807,-1.2807,-1.2807,-1.2807,-1.2802,-1.278,-1.2587,-1.2301,-1.1951,-1.1752,-1.1634,-1.1439,-1.1354,-1.1327,-1.1311,-1.1311,-1.1311,-1.1311,-1.1311,-1.1311,-1.1397,-1.1613,-1.1846,-1.192,-1.2015,-1.2229,-1.1904,-1.1651,-1.1459,-1.1329,-1.1256,-1.1417,-1.12,-1.1123,-1.1117,-1.1117,-1.1117,-1.1117,-1.1117,-1.1117,-1.1117,-1.1117,-1.1117,-1.1117,-1.1117,-1.126,-1.1669,-1.1935,-1.2666,-1.3608,-1.4078,-1.4669,-1.5213,-1.5584,-1.5938,-1.6272,-1.6656,-1.683,-1.6864,-1.6908,-1.6908,-1.6908,-1.6908,-1.6908,-1.6908,-1.6908,-1.6908,-1.6908,-1.6908,-1.6908,-1.6908,-1.6908,-1.6908,-1.6908,-1.6908,-1.6798,-1.6709,-1.6755,-1.67,-1.6358,-1.6037,-1.5905,-1.5707,-1.568,-1.5533,-1.5313,-1.5019,-1.4824,-1.4726,-1.4586,-1.4485,-1.4485,-1.4485,-1.4485,-1.4485,-1.4485,-1.4485,-1.4485,-1.4485,-1.4545,-1.4654,-1.4902,-1.5255,-1.5468,-1.5749,-1.6485,-1.718,-1.7768,-1.8202,-1.8132,-1.8226,-1.8249,-1.2807,-1.2807,-1.2807,-1.2807,-1.2807,-1.2807,-1.2807,-1.2732,-1.2587,-1.2312,-1.1973,-1.1736,-1.1596,-1.1478,-1.1375,-1.1311,-1.1311,-1.1311,-1.1311,-1.1311,-1.1311,-1.1311,-1.1311,-1.1354,-1.1478,-1.172,-1.1821,-1.1768,-1.1798,-1.1684,-1.1483,-1.1317,-1.1232,-1.1134,-1.1176,-1.1135,-1.1117,-1.1117,-1.1117,-1.1117,-1.1117,-1.1117,-1.1117,-1.1117,-1.1117,-1.1117,-1.1117,-1.1117,-1.126,-1.1484,-1.1706,-1.2298,-1.3062,-1.3499,-1.4122,-1.4482,-1.4812,-1.5638,-1.6096,-1.6482,-1.676,-1.6839,-1.6908,-1.6908,-1.6908,-1.6908,-1.6908,-1.6908,-1.6908,-1.6908,-1.6908,-1.6908,-1.6908,-1.6908,-1.6908,-1.6908,-1.6908,-1.6908,-1.6872,-1.6862,-1.6881,-1.6881,-1.6642,-1.6459,-1.6285,-1.6171,-1.6083,-1.6028,-1.5812,-1.53,-1.5019,-1.4882,-1.4763,-1.4568,-1.4494,-1.4513,-1.4504,-1.4485,-1.4485,-1.4485,-1.4485,-1.4485,-1.4654,-1.4784,-1.501,-1.5225,-1.5264,-1.541,-1.5816,-1.6389,-1.6944,-1.754,-1.7739,-1.7927,-1.8157,-1.2807,-1.2807,-1.2807,-1.2764,-1.2716,-1.2775,-1.2775,-1.2597,-1.2312,-1.1978,-1.1736,-1.1623,-1.1461,-1.1343,-1.1311,-1.1311,-1.1311,-1.1311,-1.1311,-1.1311,-1.1311,-1.1311,-1.1311,-1.13,-1.1407,-1.1599,-1.1649,-1.1611,-1.147,-1.1561,-1.1477,-1.1353,-1.1256,-1.126,-1.1268,-1.1176,-1.1117,-1.1117,-1.1117,-1.1117,-1.1117,-1.1117,-1.1117,-1.1117,-1.1117,-1.1117,-1.1117,-1.1117,-1.1117,-1.1223,-1.1484,-1.1855,-1.2372,-1.2849,-1.3426,-1.368,-1.4438,-1.5374,-1.6017,-1.6438,-1.6682,-1.6864,-1.6908,-1.6908,-1.6908,-1.6908,-1.6908,-1.6908,-1.6908,-1.6908,-1.6908,-1.6908,-1.6908,-1.6908,-1.6908,-1.6908,-1.6908,-1.6908,-1.6908,-1.6908,-1.6908,-1.6908,-1.6908,-1.6881,-1.6743,-1.6606,-1.6477,-1.6395,-1.627,-1.5785,-1.534,-1.5194,-1.501,-1.4836,-1.4659,-1.4558,-1.454,-1.4494,-1.4485,-1.4485,-1.4485,-1.4515,-1.4704,-1.4872,-1.4872,-1.4872,-1.4922,-1.5128,-1.5352,-1.57,-1.6112,-1.668,-1.7251,-1.7512,-1.7705,-1.2797,-1.2802,-1.2807,-1.263,-1.2474,-1.2645,-1.256,-1.235,-1.1914,-1.1715,-1.1661,-1.1407,-1.1327,-1.1316,-1.1311,-1.1311,-1.1311,-1.1311,-1.1311,-1.1311,-1.1311,-1.1311,-1.1311,-1.1305,-1.1321,-1.1297,-1.1331,-1.1369,-1.1214,-1.134,-1.1413,-1.1423,-1.1417,-1.1381,-1.1303,-1.1188,-1.1123,-1.1117,-1.1117,-1.1117,-1.1117,-1.1117,-1.1117,-1.1117,-1.1117,-1.1117,-1.1117,-1.1117,-1.1117,-1.1149,-1.1192,-1.1484,-1.1818,-1.2157,-1.2622,-1.3346,-1.4358,-1.5152,-1.5947,-1.6359,-1.6682,-1.683,-1.6908,-1.6908,-1.6908,-1.6908,-1.6908,-1.6908,-1.6908,-1.6908,-1.6908,-1.6908,-1.6908,-1.6908,-1.6908,-1.6908,-1.6908,-1.6908,-1.6908,-1.6908,-1.6908,-1.6908,-1.6908,-1.6908,-1.6908,-1.6835,-1.6688,-1.6624,-1.6471,-1.6279,-1.589,-1.5634,-1.5414,-1.5111,-1.4937,-1.4677,-1.454,-1.4485,-1.4485,-1.4485,-1.4485,-1.4485,-1.4595,-1.4654,-1.4575,-1.4565,-1.4675,-1.4734,-1.4784,-1.5128,-1.5546,-1.6179,-1.6832,-1.6877,-1.7017,-1.2517,-1.2527,-1.2694,-1.263,-1.2388,-1.2118,-1.1968,-1.1876,-1.1736,-1.1618,-1.1402,-1.1343,-1.1311,-1.1311,-1.1311,-1.1311,-1.1311,-1.1311,-1.1311,-1.1311,-1.1311,-1.1311,-1.13,-1.1268,-1.1224,-1.1146,-1.1161,-1.1129,-1.1093,-1.1198,-1.1407,-1.1483,-1.1495,-1.1399,-1.126,-1.1154,-1.1129,-1.1117,-1.1117,-1.1117,-1.1117,-1.1117,-1.1117,-1.1117,-1.1117,-1.1117,-1.1117,-1.1117,-1.1117,-1.1117,-1.1117,-1.126,-1.1335,-1.1855,-1.2439,-1.3535,-1.4266,-1.4875,-1.5727,-1.6193,-1.6517,-1.6795,-1.6908,-1.6908,-1.6908,-1.6908,-1.6908,-1.6908,-1.6908,-1.6908,-1.6908,-1.6908,-1.6908,-1.6908,-1.6908,-1.6908,-1.6908,-1.6908,-1.6908,-1.6908,-1.6908,-1.6908,-1.6908,-1.6908,-1.6908,-1.6908,-1.6881,-1.6798,-1.6707,-1.6523,-1.6376,-1.6111,-1.5634,-1.5285,-1.501,-1.4751,-1.4595,-1.4485,-1.4485,-1.4485,-1.4485,-1.4485,-1.4485,-1.4485,-1.4485,-1.4485,-1.4515,-1.4565,-1.4625,-1.4734,-1.5098,-1.5758,-1.6304,-1.6407,-1.668,-1.2274,-1.2291,-1.2467,-1.2344,-1.2086,-1.1681,-1.1514,-1.1564,-1.152,-1.1429,-1.1321,-1.1311,-1.1311,-1.1311,-1.1311,-1.1311,-1.1311,-1.1311,-1.1311,-1.1311,-1.1295,-1.1225,-1.1203,-1.1134,-1.0972,-1.0919,-1.0867,-1.088,-1.0923,-1.1245,-1.1513,-1.1651,-1.1573,-1.1405,-1.131,-1.1202,-1.1123,-1.1117,-1.1117,-1.1117,-1.1117,-1.1117,-1.1117,-1.1117,-1.1117,-1.1117,-1.1117,-1.1117,-1.1117,-1.1117,-1.1117,-1.1117,-1.1223,-1.1706,-1.2622,-1.3615,-1.4158,-1.4883,-1.5638,-1.6053,-1.6412,-1.6691,-1.6795,-1.683,-1.6874,-1.6908,-1.6908,-1.6908,-1.6908,-1.6908,-1.6908,-1.6908,-1.6908,-1.6908,-1.6908,-1.6908,-1.6908,-1.6908,-1.6908,-1.6908,-1.6908,-1.6908,-1.6908,-1.6908,-1.6908,-1.6908,-1.6908,-1.6881,-1.6826,-1.67,-1.6636,-1.6508,-1.5936,-1.5386,-1.5157,-1.4946,-1.4717,-1.4588,-1.4485,-1.4485,-1.4494,-1.4504,-1.4513,-1.4504,-1.4485,-1.4485,-1.4485,-1.4485,-1.4545,-1.4654,-1.4754,-1.5245,-1.5787,-1.6161,-1.656,-1.2073,-1.2062,-1.2073,-1.197,-1.1682,-1.1423,-1.1327,-1.1311,-1.1332,-1.1311,-1.1311,-1.1311,-1.1311,-1.1311,-1.1311,-1.1311,-1.1311,-1.1311,-1.1311,-1.13,-1.123,-1.1187,-1.1069,-1.095,-1.0751,-1.0534,-1.0494,-1.0673,-1.0785,-1.1139,-1.1591,-1.1832,-1.1615,-1.1429,-1.1309,-1.1202,-1.1117,-1.1117,-1.1117,-1.1117,-1.1117,-1.1117,-1.1117,-1.1117,-1.1117,-1.1117,-1.1117,-1.1117,-1.1117,-1.1117,-1.1117,-1.1117,-1.1446,-1.1929,-1.2915,-1.3716,-1.4338,-1.4991,-1.5611,-1.6,-1.6263,-1.6499,-1.6603,-1.6751,-1.683,-1.6908,-1.6908,-1.6908,-1.6908,-1.6908,-1.6908,-1.6908,-1.6908,-1.6908,-1.6908,-1.6908,-1.6908,-1.6908,-1.6908,-1.6908,-1.6908,-1.6908,-1.6908,-1.6908,-1.6908,-1.6908,-1.6908,-1.6908,-1.689,-1.6853,-1.681,-1.6807,-1.6263,-1.5712,-1.5601,-1.5344,-1.4912,-1.4689,-1.468,-1.4763,-1.4937,-1.4799,-1.457,-1.4513,-1.4485,-1.4485,-1.4485,-1.4485,-1.4515,-1.4565,-1.4675,-1.4813,-1.5245,-1.5816,-1.6332,-1.1785,-1.1785,-1.1779,-1.1747,-1.1666,-1.1407,-1.1311,-1.1311,-1.1311,-1.1311,-1.1311,-1.1311,-1.1311,-1.1311,-1.1311,-1.1311,-1.1311,-1.1311,-1.1311,-1.1236,-1.1155,-1.1069,-1.0934,-1.0778,-1.0512,-1.039,-1.0394,-1.0506,-1.0815,-1.1221,-1.1501,-1.1579,-1.1471,-1.1387,-1.1262,-1.1123,-1.1117,-1.1117,-1.1117,-1.1117,-1.1117,-1.1117,-1.1117,-1.1117,-1.1117,-1.1117,-1.1117,-1.1117,-1.1117,-1.1117,-1.1117,-1.1335,-1.1781,-1.2469,-1.3244,-1.4049,-1.4633,-1.5177,-1.5541,-1.5894,-1.6202,-1.6438,-1.6603,-1.6716,-1.683,-1.6874,-1.6908,-1.6908,-1.6908,-1.6908,-1.6908,-1.6908,-1.6908,-1.6908,-1.6908,-1.6908,-1.6908,-1.6908,-1.6908,-1.6908,-1.6908,-1.6908,-1.6908,-1.6908,-1.6908,-1.6908,-1.6908,-1.6908,-1.6908,-1.689,-1.6881,-1.6789,-1.6514,-1.6108,-1.5974,-1.5698,-1.5276,-1.5157,-1.5184,-1.5267,-1.5304,-1.5065,-1.479,-1.4568,-1.4485,-1.4485,-1.4485,-1.4485,-1.4515,-1.4536,-1.4675,-1.4843,-1.5128,-1.5613,-1.6114,-1.1498,-1.1498,-1.1504,-1.1542,-1.1477,-1.1359,-1.1311,-1.1311,-1.1311,-1.1311,-1.1311,-1.1311,-1.1311,-1.1311,-1.1311,-1.1311,-1.1311,-1.1311,-1.1311,-1.1236,-1.1048,-1.0939,-1.0783,-1.0589,-1.0347,-1.0186,-1.0264,-1.0445,-1.0855,-1.1044,-1.12,-1.1429,-1.1399,-1.1286,-1.1117,-1.1117,-1.1117,-1.1117,-1.1117,-1.1117,-1.1117,-1.1117,-1.1117,-1.1117,-1.1117,-1.1117,-1.1117,-1.1117,-1.1117,-1.1117,-1.1117,-1.1446,-1.1848,-1.2291,-1.2915,-1.3644,-1.4302,-1.4991,-1.5275,-1.5603,-1.5956,-1.6193,-1.6438,-1.6517,-1.6716,-1.6786,-1.6908,-1.6908,-1.6908,-1.6908,-1.6908,-1.6908,-1.6908,-1.6908,-1.6908,-1.6908,-1.6908,-1.6908,-1.6908,-1.6908,-1.6908,-1.6908,-1.6908,-1.6908,-1.6908,-1.6908,-1.6908,-1.6908,-1.6908,-1.6908,-1.6908,-1.6826,-1.6588,-1.6376,-1.6156,-1.5922,-1.5615,-1.5611,-1.568,-1.5304,-1.5093,-1.5111,-1.5001,-1.4714,-1.4531,-1.4485,-1.4485,-1.4485,-1.4485,-1.4515,-1.4684,-1.4872,-1.5157,-1.5352,-1.5739,-1.1316,-1.1311,-1.1316,-1.1316,-1.1311,-1.1311,-1.1311,-1.1311,-1.1311,-1.1311,-1.1311,-1.1311,-1.1311,-1.1311,-1.1311,-1.1311,-1.1311,-1.1311,-1.1311,-1.1171,-1.102,-1.0794,-1.0562,-1.0353,-1.0148,-1.0062,-1.0133,-1.0455,-1.0798,-1.0907,-1.1067,-1.1351,-1.1292,-1.1117,-1.1117,-1.1117,-1.1117,-1.1117,-1.1117,-1.1117,-1.1117,-1.1117,-1.1117,-1.1117,-1.1117,-1.1117,-1.1117,-1.1117,-1.1117,-1.1117,-1.1155,-1.1484,-1.1818,-1.2187,-1.2652,-1.3273,-1.3789,-1.4222,-1.4474,-1.484,-1.5303,-1.5736,-1.6026,-1.6272,-1.6464,-1.6716,-1.6839,-1.6908,-1.6908,-1.6908,-1.6908,-1.6908,-1.6908,-1.6908,-1.6908,-1.6908,-1.6908,-1.6908,-1.6908,-1.6908,-1.6908,-1.6908,-1.6908,-1.6908,-1.6908,-1.6908,-1.6908,-1.6908,-1.6908,-1.6908,-1.6908,-1.6844,-1.6676,-1.652,-1.6389,-1.6251,-1.6026,-1.6026,-1.6028,-1.5377,-1.4974,-1.5221,-1.5194,-1.4751,-1.4604,-1.4531,-1.4494,-1.4485,-1.4485,-1.4485,-1.4604,-1.4734,-1.4813,-1.5049,-1.5284,-1.1311,-1.1311,-1.1311,-1.1311,-1.1311,-1.1311,-1.1311,-1.1311,-1.1311,-1.1311,-1.1311,-1.1311,-1.1311,-1.1311,-1.1311,-1.1311,-1.1311,-1.1311,-1.1155,-1.1036,-1.0869,-1.0616,-1.0385,-1.0207,-0.997,-0.997,-1.011,-1.0327,-1.0623,-1.077,-1.0942,-1.1164,-1.1202,-1.1117,-1.1117,-1.1117,-1.1117,-1.1117,-1.1117,-1.1117,-1.1117,-1.1117,-1.1117,-1.1117,-1.1117,-1.1117,-1.1117,-1.1117,-1.1117,-1.1117,-1.1149,-1.1446,-1.1706,-1.2003,-1.2402,-1.2725,-1.3237,-1.3499,-1.3789,-1.4006,-1.443,-1.4931,-1.5259,-1.5815,-1.6158,-1.6726,-1.6804,-1.6908,-1.6908,-1.6908,-1.6908,-1.6908,-1.6908,-1.6908,-1.6908,-1.6908,-1.6908,-1.6908,-1.6908,-1.6908,-1.6908,-1.6908,-1.6908,-1.6908,-1.6908,-1.6908,-1.6908,-1.6908,-1.6908,-1.6908,-1.6908,-1.6835,-1.6787,-1.6807,-1.6798,-1.6725,-1.6553,-1.6578,-1.645,-1.5936,-1.5634,-1.5615,-1.546,-1.4983,-1.4698,-1.457,-1.4513,-1.4485,-1.4485,-1.4485,-1.4485,-1.4575,-1.4645,-1.4764,-1.5029]}]]